GFSMW_con_sbcape_000.txt.gz
CAPE
297 251 291 488 497 570 965 1264 1412 1486 1274 1244 1196 986 990 760 605 538 524 465 310 530 448 398 207 110 140 102 38 23 47 65 0 59 99 20 0 10 0 42 162 0 2
119 39 132 363 201 336 885 1095 1354 1362 1441 1256 956 1010 879 663 676 540 511 596 589 467 303 242 152 146 113 15 0 16 32 69 76 91 2 9 7 0 3 16 12 0 0
84 34 34 215 221 190 589 907 1024 1322 1490 1149 709 827 864 1078 1008 892 976 949 435 389 346 211 139 20 0 1 0 0 0 58 60 36 46 1 1 0 0 4 0 0 0
99 63 25 70 176 166 359 708 776 1014 1116 1006 995 1222 1259 1352 1072 527 635 649 286 193 43 0 0 0 0 0 0 0 14 11 37 22 56 0 13 21 2 0 0 0 0
66 70 48 55 62 169 301 454 528 573 939 1083 1197 1148 1109 1010 25 0 78 137 0 0 0 0 0 0 0 0 0 0 0 0 14 10 1 0 0 1 0 0 0 0 0
79 64 41 27 88 150 309 477 538 634 906 1059 1102 1128 1127 570 0 0 38 0 0 0 0 0 0 0 0 0 0 0 0 0 17 15 4 0 0 0 0 0 0 0 0
149 89 52 71 126 251 413 664 682 790 1065 1227 1310 1372 1154 340 0 0 0 0 0 0 0 0 0 0 0 0 0 0 0 0 0 22 12 0 0 0 0 0 0 1 0
245 185 107 128 176 383 491 745 876 937 1216 1501 1552 1626 1055 135 0 0 0 0 0 0 0 0 0 0 0 0 0 0 0 0 10 17 0 0 0 0 0 0 0 0 0
267 376 228 200 240 394 596 805 1039 1119 1219 1417 1544 851 399 0 0 0 0 0 0 0 0 0 0 0 0 0 0 0 0 0 0 0 0 0 0 0 0 0 0 0 0
297 333 450 435 411 461 690 887 1085 1240 1246 1149 839 515 59 0 0 0 0 0 0 0 0 0 0 0 0 0 0 0 0 0 0 0 0 0 22 0 0 0 0 0 0
130 224 595 707 634 584 697 949 1172 1331 1278 864 354 164 3 0 0 0 0 0 0 0 0 0 0 0 0 0 0 0 0 0 0 13 22 34 27 11 0 0 0 0 1
90 127 562 773 809 714 738 990 1219 1379 1439 838 179 29 0 0 0 0 0 0 0 0 0 0 0 0 0 0 0 0 0 0 11 46 35 66 50 23 7 0 0 0 0
31 79 272 651 714 651 875 1045 1244 1308 1399 826 46 6 0 1 1 0 0 0 0 0 0 0 0 0 0 0 0 0 0 0 3 31 44 53 27 0 0 0 0 0 5
8 68 96 263 422 395 616 986 1199 1213 1103 462 41 18 6 11 23 0 0 0 0 0 0 0 0 0 0 0 0 0 0 0 11 41 48 24 19 16 7 0 0 22 23
0 14 95 107 159 221 298 628 887 1032 829 413 143 111 68 46 3 9 0 0 0 0 0 0 0 0 0 0 0 0 0 22 68 80 51 20 18 38 39 32 40 0 16
0 0 10 52 83 97 126 527 794 921 854 559 374 305 127 39 0 22 141 0 0 0 0 0 0 0 0 0 0 18 25 89 88 78 23 0 0 7 10 31 68 100 122
0 0 0 0 0 0 49 403 699 839 818 708 678 350 8 10 0 0 2 3 7 0 0 0 0 2 21 0 4 4 82 34 7 4 0 0 0 16 3 0 8 54 87
0 0 0 0 0 0 50 294 556 794 870 814 747 141 20 0 0 0 0 0 0 0 0 0 11 13 26 10 4 6 16 11 0 0 0 0 0 0 0 0 13 3 0
5 35 0 0 1 56 154 370 572 798 805 828 513 237 87 85 99 2 0 0 0 0 12 47 77 64 93 68 28 1 7 8 0 0 0 0 0 0 0 0 0 0 0
0 0 5 13 174 249 403 448 507 691 739 608 495 356 104 0 0 18 11 0 0 4 27 43 15 17 25 22 0 0 8 5 0 0 0 0 0 0 0 0 0 0 0
113 124 376 512 378 289 391 426 365 577 550 365 383 535 326 163 29 0 0 0 17 28 55 33 0 18 66 63 0 0 0 0 0 0 0 0 0 0 0 0 0 0 0
117 239 384 544 492 280 461 302 471 274 298 270 206 96 80 122 0 0 0 0 0 0 0 13 0 0 0 0 0 0 0 0 0 0 0 0 0 0 0 0 0 0 0
264 524 678 582 233 137 188 235 51 165 126 1 0 6 0 0 0 0 0 0 0 0 29 59 81 114 1 0 0 0 0 0 0 0 0 0 0 0 0 0 0 0 0
248 380 446 291 39 25 5 0 51 60 0 0 0 0 0 0 0 0 0 0 0 0 10 54 63 2 0 0 0 0 0 0 0 0 0 0 0 0 0 0 0 0 0
188 248 231 112 49 22 1 0 18 0 0 0 0 0 0 0 0 7 0 0 0 3 26 22 0 0 0 0 0 0 0 0 0 0 0 0 0 0 0 0 0 0 0
239 163 80 155 20 0 0 0 0 0 0 1 1 0 0 0 0 2 2 0 0 0 0 0 0 0 0 0 0 0 0 0 0 0 0 0 0 0 0 0 0 0 0

GFSMW_con_sbcape_003.txt.gz
CAPE
1223 1438 1699 1766 1961 2086 2192 2318 2384 2643 2727 2309 2186 2312 1772 2416 2254 2277 2219 1898 2070 1758 2016 1917 1659 1484 1184 1062 1063 952 903 463 590 535 93 150 204 100 84 107 3 0 0
1235 1398 1509 1479 1663 1967 2097 2320 2541 2778 2780 2595 2735 2371 2376 2317 2153 2269 2329 2092 1919 1998 1974 1722 1373 1139 757 998 860 902 535 496 594 371 199 0 140 110 21 0 0 0 0
874 994 1124 1284 1417 1665 1967 2187 2764 3112 2881 2840 2705 2587 2474 2514 2400 2363 2335 2193 2135 2026 1756 1453 1098 1033 600 164 538 425 637 287 542 573 251 5 7 0 4 11 0 0 0
605 706 818 1009 1247 1404 1617 2174 2568 3050 2935 3027 2580 2694 2304 2131 2225 2594 2452 2374 2272 1661 1473 1351 720 762 311 468 319 291 599 700 223 329 398 266 208 3 0 0 0 0 0
461 573 690 776 958 1215 1344 1687 2519 2873 3357 3116 3161 2726 2627 2427 2558 2342 2041 2478 2104 1525 1004 643 547 576 435 464 187 612 471 398 172 127 217 115 42 54 0 0 0 0 0
454 511 585 613 760 988 1161 1459 2433 2975 2739 2782 2959 2931 2971 2858 2605 2186 1360 1378 1604 885 497 302 498 754 619 322 128 325 289 294 328 349 208 25 1 0 1 2 1 0 0
409 458 603 631 770 1043 1213 1417 2221 2609 2340 2426 2836 2827 2866 3143 3065 2753 1770 1247 1167 717 271 301 444 543 567 166 115 205 207 215 189 480 104 104 35 34 35 39 18 4 0
329 422 661 944 941 1030 1218 1490 1988 2374 2168 2124 2798 3024 3084 2798 2837 2621 1760 1221 1134 833 294 308 373 550 177 17 60 28 9 135 157 400 278 120 120 107 115 99 63 26 9
542 618 659 809 1143 1274 1599 1795 2104 2331 2262 1997 2778 2810 3157 3051 2840 2452 1512 1083 1078 426 296 297 378 244 0 14 95 0 16 117 251 241 428 257 134 166 173 205 99 77 32
674 707 1003 1009 1211 1221 1511 1644 2005 2254 2350 1980 2324 2516 2801 2956 2901 2564 1335 621 670 322 323 311 200 132 32 25 165 15 3 49 11 72 398 500 213 294 591 335 157 97 71
828 1030 1202 1069 1197 1270 1336 1721 1709 2110 2042 2124 2679 2869 2800 2720 2769 1908 1588 334 385 438 338 337 189 169 147 139 204 251 37 5 100 372 449 509 595 279 283 334 286 143 113
997 953 1053 1079 1108 1348 1254 1446 1603 1646 2154 2500 2656 2452 2523 1514 1477 1801 164 304 225 297 354 347 302 295 256 281 286 197 0 80 142 178 402 397 281 554 426 270 286 162 209
661 955 1038 1336 1327 1384 1798 1501 1807 1740 1875 2301 2124 2216 1957 1542 1933 75 141 60 166 84 176 288 393 350 330 449 521 354 112 242 299 302 391 424 526 515 231 263 140 94 289
743 884 1013 1709 1914 2062 2135 2083 1850 1868 1912 1949 2096 2309 1612 1338 401 209 21 0 25 82 85 258 562 384 444 414 294 120 240 378 329 434 488 576 562 422 299 202 229 257 234
438 881 1005 1800 2009 2095 1870 1895 1751 2075 2215 2320 2133 1877 1403 950 345 85 9 0 0 11 0 34 338 368 294 187 233 308 444 691 687 652 858 708 612 179 116 71 196 220 187
335 700 913 1016 1255 1499 1464 1456 1678 1947 2114 2133 1970 1600 1190 551 313 270 13 0 0 0 101 77 186 325 182 56 13 161 581 811 961 936 728 771 128 84 23 16 44 91 195
415 520 742 902 924 982 1131 1154 1387 1563 1785 1883 1732 1366 884 486 601 358 214 25 0 0 12 198 160 546 474 148 19 8 465 756 880 942 799 617 181 58 119 17 0 17 16
523 407 255 406 556 520 671 935 1284 1654 1791 1815 1632 1266 818 672 470 600 354 167 0 20 329 381 535 491 626 183 6 0 402 496 734 609 534 417 323 180 45 57 38 79 132
404 480 344 350 474 392 639 974 1257 1582 1779 1792 1719 1118 708 738 627 550 512 260 163 204 294 144 370 457 526 14 23 67 238 282 213 542 383 121 102 4 0 0 4 32 58
570 591 590 583 820 764 851 1213 1390 1573 1737 1748 1681 1149 735 628 550 671 631 355 291 111 79 229 456 230 513 23 69 106 59 160 115 339 69 0 0 0 0 0 0 29 52
707 919 964 1004 1125 1349 1392 1602 1658 1770 1785 1688 1316 1059 895 844 837 854 518 301 300 211 478 552 693 419 499 311 1 0 110 196 215 223 119 0 0 0 0 0 1 1 0
945 1230 1482 1585 1358 1514 1839 1881 1877 1670 1394 1421 1044 1065 842 814 660 623 381 362 450 597 541 600 613 174 320 0 0 0 7 41 243 338 50 0 0 0 0 0 0 0 0
1401 1372 1379 1500 1381 1465 1596 1506 1116 843 1018 1044 818 984 848 591 484 383 387 324 395 386 431 313 255 212 208 60 1 1 1 0 18 0 0 0 0 0 0 0 0 0 0
1388 1627 1778 1660 1282 969 798 932 844 1090 1008 788 835 963 1077 798 470 404 306 181 183 74 38 122 246 486 183 35 0 0 0 0 0 0 0 0 0 0 0 0 0 0 0
1338 1550 1818 1833 1457 1079 1052 969 1074 1051 1099 1023 1059 967 962 551 520 210 44 39 70 2 180 189 406 607 363 85 0 0 0 0 0 0 0 0 0 0 2 0 0 0 0
1606 1702 1692 1261 941 1023 964 931 1060 1121 1161 1052 918 720 397 158 43 0 0 0 0 0 0 0 105 0 0 0 0 0 0 0 0 0 0 0 0 2 1 0 0 0 0

GFSMW_con_sbcape_006.txt.gz
CAPE
839 1084 1409 1533 1522 1819 2213 2472 2415 2587 3167 2479 1687 1728 1514 1662 1721 1740 2283 2176 2038 1945 2011 1554 1673 1680 1515 976 609 298 143 10 67 12 20 69 122 64 52 39 0 0 4
831 1206 1479 1471 1475 1873 2291 2614 2740 2788 3076 2124 2281 1830 1827 1556 1887 1924 2160 2193 2205 2306 1934 1929 1728 1531 371 577 216 158 22 16 44 63 18 14 76 66 31 0 0 0 0
957 1074 1240 1398 1451 1741 2340 2648 2950 3077 3192 2743 2298 2442 2310 2605 2056 2194 2421 2609 2533 2436 2352 2136 1196 988 160 2 159 162 33 15 229 264 33 11 12 6 38 29 0 0 0
1041 1077 1095 1279 1384 1606 2034 2674 3053 3327 3241 3333 2960 3234 2219 1651 1266 1698 1361 2005 2482 2299 2176 1775 1094 183 0 59 157 32 85 203 23 28 24 117 178 21 17 36 13 0 0
770 987 1072 1050 1322 1481 1797 2317 3078 3616 3597 3319 3846 3013 2858 1663 1334 1427 1970 2351 2144 2242 1445 1695 531 176 88 308 170 87 164 44 23 16 31 48 16 8 6 8 18 20 20
309 653 832 927 1149 1342 1604 1929 2864 3797 3653 3536 3502 3459 2957 2582 1473 1968 1608 1077 1068 1574 1646 1629 687 192 90 301 214 60 71 60 66 62 105 21 18 21 11 8 10 16 13
324 442 695 892 1130 1324 1514 1841 2619 3447 3429 3471 3343 3419 3368 3086 2771 2497 1696 1242 652 741 1316 1793 869 296 432 260 108 57 6 54 42 107 36 38 37 41 37 32 28 32 44
341 408 602 819 1158 1281 1548 1815 2489 3296 3270 3245 3590 4055 3890 3180 2890 2737 1625 965 608 365 565 1715 732 359 284 263 32 0 8 26 33 35 117 39 43 37 47 43 62 49 48
594 354 598 795 1066 1328 1816 2425 3132 3002 3029 2976 3411 3706 4051 3564 2995 2780 2548 1487 1270 361 1054 1165 699 196 326 82 33 0 10 8 12 12 38 119 34 39 58 77 95 76 36
670 496 571 770 1013 1280 1567 1957 2311 2967 2788 2771 2934 3055 3240 3448 3241 3103 3211 2468 1799 1473 945 848 365 254 190 61 96 9 7 6 0 0 4 65 33 69 82 92 94 73 41
806 787 658 709 1060 1152 1365 1789 2156 2444 2701 2706 3320 3116 2923 3007 3396 3342 3438 3033 2585 1627 1121 881 401 302 225 148 188 129 0 1 2 0 62 211 420 193 74 72 53 64 80
745 962 931 971 1035 1302 1255 1444 1769 2170 2532 3125 3354 2907 2894 2988 3197 3882 3274 2691 2794 1400 1129 751 443 672 218 209 303 189 7 11 0 32 165 324 245 358 429 188 204 167 179
790 1107 1126 1309 1374 1376 1721 1559 1850 2019 2190 2602 2756 2825 2825 2997 3226 3346 2877 2917 1749 904 468 433 674 713 561 292 345 386 321 116 32 108 245 311 332 401 207 235 102 113 109
916 1228 1256 1570 1661 2055 2732 2687 1972 2073 2235 2331 2709 3233 2999 2822 2979 2890 1707 1067 815 401 117 286 332 173 447 640 622 349 427 205 70 220 324 492 506 406 384 294 317 323 212
946 1328 1502 2240 2758 2630 2686 2566 2382 2373 2379 2567 2653 3001 3146 3073 2775 2415 1479 665 446 382 0 93 16 135 490 198 570 374 231 248 302 371 478 622 739 347 320 173 475 331 197
1052 1418 1698 1936 2359 2377 2566 2647 2642 2501 2637 2798 2872 2983 3274 3069 2810 2241 1201 801 517 186 51 0 0 6 147 0 0 122 309 385 551 710 892 1004 873 538 188 55 12 51 119
1117 1314 1679 1863 2291 2389 2668 2647 2643 2609 2701 2921 2963 3095 3183 2849 2361 1728 1361 787 528 156 98 104 30 79 399 28 0 13 172 389 667 978 987 794 417 341 570 149 8 15 0
1146 1283 1410 1773 1965 1907 2039 2160 2339 2546 2684 2899 2915 2959 2817 2548 2163 1985 1343 961 339 262 399 479 304 269 409 267 0 0 420 835 1084 966 770 631 501 537 500 465 256 173 186
1363 1377 1339 1576 1802 1538 1781 1916 2062 2289 2463 2655 2714 2644 2413 2201 1694 1541 1475 1393 775 562 724 749 643 608 716 0 0 0 585 852 992 703 545 430 662 80 0 64 112 157 145
1029 1181 1094 1365 1348 1319 1474 1778 1914 2244 2473 2615 2652 2549 2247 2207 1897 1691 1709 1467 1184 866 646 755 734 596 1297 0 0 0 670 1016 573 276 437 0 40 0 0 0 52 63 89
1176 1267 1210 1127 1351 1325 1546 1714 1903 2145 2341 2554 2650 2370 2147 2211 2352 1967 1726 1517 1079 987 1020 838 863 1043 469 768 0 0 591 299 376 393 975 385 0 0 0 0 0 22 0
976 910 1408 1750 1743 1782 2053 2280 2385 2544 2670 2714 2558 2084 2028 1777 1869 1799 1326 884 1107 1202 990 1464 1482 1214 1365 201 0 0 8 66 497 1177 386 7 0 0 0 0 0 0 0
864 1007 1544 1943 2141 2347 2390 2625 3092 2726 2676 2128 1731 1874 1913 1423 1222 1148 822 793 1009 1041 1078 1299 1180 1804 1067 7 0 1 1 0 482 393 23 0 0 0 0 0 0 0 0
1213 1245 1447 1878 2344 2389 2450 2750 2147 2234 2377 2121 2087 1644 1363 1497 1154 1048 1131 1199 1114 1033 1687 1391 785 539 776 292 79 0 2 0 9 0 0 0 0 0 0 0 0 1 4
1347 1280 1470 2065 2282 2262 2258 2062 1973 1846 1834 1726 1733 1269 1093 1065 1314 592 180 789 112 208 547 457 273 214 1157 533 200 85 170 149 10 0 0 0 5 5 13 17 9 4 0
1889 1978 2016 2291 2359 2322 2236 2175 1780 1985 1854 1378 1306 1333 1402 1430 1281 731 108 0 0 1 1 1 89 22 6 0 0 0 0 0 0 0 0 1 3 3 7 8 3 0 0

GFSMW_con_sbcape_009.txt.gz
CAPE
631 767 1022 1068 1050 1283 1644 2497 2688 3818 2727 1884 2624 2011 1556 1838 1463 1251 3169 2586 2278 2681 1964 2073 2139 1799 2145 1729 441 167 115 16 82 0 61 48 69 58 45 19 0 0 1
370 762 1076 1078 1089 1415 1985 3197 3447 4157 3580 2491 2811 2493 1768 1408 1069 1412 2504 2144 2821 2493 2448 2670 1567 1599 831 495 191 94 15 16 114 35 13 25 207 420 35 3 0 0 0
142 634 915 1113 1208 1505 2277 3219 4163 4317 4152 3641 3483 3089 3014 2196 2296 1781 2301 2194 2408 2183 2470 2213 2187 1462 503 0 266 134 29 7 61 205 23 21 59 139 119 37 2 0 0
235 400 923 1230 1180 1585 1900 3328 4159 4419 4279 4192 3078 3543 2153 1554 847 1099 1027 1884 2719 2164 2247 2300 1169 924 55 542 129 27 88 96 20 30 9 32 44 5 29 98 30 0 2
351 360 750 1082 1162 1354 1641 2768 4273 4552 4515 4302 3799 2562 2637 1340 1206 774 2379 2257 3333 1595 1393 1269 963 348 0 189 320 39 168 205 6 5 15 368 7 6 0 6 31 44 45
370 623 572 907 1067 1215 1526 2534 4302 4700 4650 4583 3883 4090 4059 2792 1404 1442 1486 1620 1409 1611 1425 955 1003 358 34 235 247 168 101 68 159 73 110 23 12 25 24 13 21 25 30
391 491 810 890 1402 1872 2173 2671 4189 4734 4653 4350 4329 4389 4408 4387 3721 2736 1844 2082 678 949 2587 1791 1420 653 475 356 254 218 196 75 39 86 50 182 37 26 21 23 23 36 57
662 289 577 1160 1884 1773 2556 2801 3707 4612 4710 4404 4611 4629 4634 2667 2278 2864 2057 1178 831 919 2825 1735 1309 810 342 410 335 51 13 191 46 12 434 11 48 56 31 38 106 109 65
588 514 373 630 1365 1633 2466 2883 3740 4310 4436 3615 4760 4763 4635 4468 2722 3297 3714 1995 2157 904 880 1505 1203 898 231 401 205 34 337 63 73 118 507 138 17 17 22 47 418 274 82
473 628 459 528 1037 1137 1800 2693 3396 4113 3847 4038 4279 4181 4383 4664 4472 4732 4276 3271 2594 2445 2066 1888 1389 817 759 878 538 444 377 215 41 4 317 512 33 32 32 124 72 53 38
326 684 604 553 733 872 1417 2009 2645 3579 3838 3938 3937 4138 3896 4054 4551 4433 4247 4223 3343 3271 2343 2432 1923 1007 813 759 941 500 174 413 621 521 173 380 688 103 19 26 41 17 57
197 582 724 636 740 1110 1054 1299 1635 1915 2942 3573 4228 4282 4308 4219 4103 4569 4569 4281 3780 3527 2689 2351 1862 1081 588 202 871 548 365 128 175 209 644 337 199 1205 1485 168 1236 582 316
96 480 703 862 1022 999 1360 982 1533 1299 1777 3082 3239 3972 3920 4309 4229 4576 4450 4455 4345 3692 2478 2362 2035 1102 1005 1051 1098 1050 579 324 392 338 753 572 1129 1280 602 1007 474 278 408
424 448 887 1362 1594 1790 1988 1748 1525 1133 1526 2113 2428 3565 4082 4124 4084 4527 4473 4552 4152 3932 2687 2284 1722 1313 1026 1019 939 978 936 1151 962 861 824 913 1013 1145 1285 1029 1444 1008 565
626 923 1210 2428 2792 2693 2774 2574 2070 2250 1988 2876 2907 3585 4381 4294 4316 4285 4631 4406 4157 3669 2501 2123 1427 1209 599 389 1089 668 490 933 842 649 566 891 1009 669 733 838 808 1253 465
49 1021 1389 1749 2932 3147 3510 3239 3038 3053 2867 3675 3580 4106 4720 4588 4581 4622 4695 4222 3631 3065 2265 1224 721 400 143 0 32 486 192 1133 1130 920 1275 1351 708 449 207 227 178 89 478
87 857 1352 1818 2549 2382 3453 3589 3770 3369 3641 4179 4500 4617 4993 4914 4916 4580 4139 3554 2716 2492 1810 955 150 151 433 0 10 0 273 738 1117 1487 1178 1086 793 344 437 442 110 44 0
211 435 1160 1896 2826 2354 2437 3151 3215 4225 4449 4621 4545 4804 4955 4924 4791 4212 3573 2786 2433 2257 1519 751 516 523 727 21 1 0 294 791 907 1405 1710 1808 1554 1036 1019 814 418 556 949
175 624 1402 1910 3405 2974 3589 3800 3319 3849 3811 3845 4229 4402 4258 4152 3910 3305 3020 2480 2170 1978 1047 604 524 944 1111 32 0 1 642 831 1511 1645 1642 1311 1373 682 172 274 192 214 361
156 1158 1656 2153 2699 3267 2756 3159 2927 3190 3384 3607 3637 4029 4083 3732 3242 3071 2962 2519 2472 1851 1196 818 1076 1133 1316 75 1 28 437 778 1261 1428 1770 259 248 0 0 83 103 229 339
1345 1880 2111 2970 3269 3167 2584 3278 3055 2813 2740 2939 3027 3381 3270 3388 3170 2751 2881 2527 2297 1782 1411 1053 1435 1622 1508 1027 0 0 565 877 959 1224 989 768 0 0 0 0 34 93 20
1637 1759 2364 2710 2618 2911 3088 3299 3451 3609 3832 3647 3344 3322 3088 2798 2659 2586 2516 2258 1997 1630 1561 1840 1832 1423 1681 545 0 0 0 0 691 1132 984 795 0 0 0 0 0 0 0
1830 1731 1727 2590 2431 3105 3286 3675 4382 4112 3879 3706 3494 3119 2731 2481 2416 2664 2134 1464 1389 1184 1427 1098 1689 1736 1875 921 1 1 0 0 61 247 0 0 0 0 0 0 0 0 0
1696 1531 1751 2361 2769 3159 2903 3590 3411 3365 3356 2908 2548 2397 2258 1926 1676 1594 1271 1052 963 1206 1523 1493 1509 1497 1234 997 212 0 0 1 0 1 1 0 0 0 0 0 0 0 2
1832 1960 1903 2183 2420 2677 2909 2583 2885 3062 2758 2934 2574 2191 1790 1608 1134 661 676 883 194 567 986 1202 1304 784 347 479 72 5 18 231 61 103 88 37 47 48 65 55 67 40 36
1541 2079 1920 2268 2558 2644 2649 2616 2567 2692 2441 2324 2078 1756 1523 1276 1066 426 2 0 0 2 1 0 53 44 0 0 0 0 0 0 0 11 28 38 19 45 42 106 149 50 8

GFSMW_con_sbcape_012.txt.gz
CAPE
439 712 794 828 942 1558 2302 2371 2519 3530 3639 3353 2316 2423 2645 2271 2184 2365 3042 2876 3110 3232 3021 3013 2431 2316 2053 563 962 1057 598 807 536 367 198 472 374 443 347 0 0 1 19
287 692 961 857 977 1612 1984 2710 2785 3784 3468 3258 2963 2420 2373 2426 1765 2342 2971 3328 3216 3685 2642 2717 2936 2207 2093 1783 1108 625 663 517 912 261 334 121 269 173 9 10 0 0 2
73 684 955 938 1189 1548 2269 2792 3190 3456 3271 3333 2869 3070 2732 3246 2748 2724 3277 3083 3397 2827 1899 2737 2535 2539 1312 1300 1307 966 671 339 960 370 400 348 135 357 225 110 0 0 0
107 486 927 1229 1233 1530 2250 2864 3264 3418 3641 3190 2980 2793 2161 2430 2292 2223 2291 2943 3128 3084 3279 3073 2881 2248 1263 1846 1239 847 386 1004 463 597 225 233 103 157 218 282 70 47 0
121 188 816 1161 1216 1591 2130 2650 3537 3631 3475 3455 3024 2944 2776 2057 2330 2030 3380 3040 3229 2962 2743 3084 2585 1758 777 1837 927 858 583 824 701 307 677 732 532 246 26 59 85 87 71
326 346 757 1087 1322 1517 2170 2228 3724 3822 3719 3953 3252 3668 2594 2308 2335 2335 2919 2773 2789 2570 2874 2266 2137 1686 911 1487 1082 938 725 496 862 608 785 555 294 71 236 128 55 51 101
516 540 715 1154 1424 1596 1967 2461 3591 3823 3847 4049 3712 3302 3558 2854 3314 4121 2904 2443 1945 2161 2603 2285 1879 1500 1250 1769 1304 1429 1062 728 554 1010 493 233 165 282 260 73 77 57 107
579 656 769 1066 1559 1545 2029 2455 3319 3730 4058 3701 4126 3742 3529 3528 3173 3250 2976 2743 2081 1701 1972 1854 1707 1843 1138 1161 1308 1068 450 748 636 234 622 509 413 317 88 169 205 44 56
716 548 1000 989 1600 1598 1952 2390 3482 3855 4118 4085 4152 4133 3861 3674 3372 3066 2999 3253 2385 2829 1762 1720 2108 1474 1266 1279 1496 440 486 820 1036 924 670 457 174 218 277 422 199 172 58
816 812 680 1206 1500 1735 1903 2471 3005 3860 4202 4173 4109 4062 4133 3678 3188 3223 3425 2469 2968 2328 2327 2116 1883 1536 1180 864 1108 395 910 572 635 501 686 598 360 417 387 128 140 228 125
264 736 790 838 1441 1833 1904 2306 2622 3652 4104 4117 4060 4067 4025 3984 3467 3889 3287 3529 2771 2495 2463 2168 1822 1597 1127 1119 914 601 388 569 541 477 604 507 820 487 336 669 420 178 160
173 444 963 801 1108 1478 1700 2162 2602 3178 3748 3899 3952 3977 4049 4016 3976 3434 3886 3328 3862 3017 2365 2265 2000 1646 752 1123 609 371 213 728 655 627 628 477 370 1010 934 915 629 677 827
484 549 719 920 991 1140 1517 1961 2337 2712 3470 3637 3665 3773 3813 3970 3893 4037 3448 4161 3578 3099 2320 2370 2038 1742 772 983 651 478 570 603 241 444 564 404 742 1215 979 924 770 560 574
872 1003 914 1269 1094 1232 1513 1770 2105 2324 2859 3254 3363 3516 3651 3748 3658 3868 4068 3745 3846 3278 3063 2362 2099 1875 928 757 552 737 820 723 437 831 736 676 651 1145 1156 927 1179 1055 942
1038 1178 1478 1963 1615 1734 1696 1632 1766 1843 2013 2768 3137 3447 3815 3728 3800 3767 4122 4015 3951 3870 3494 2930 2296 2041 1031 710 890 897 846 897 649 1245 806 839 1181 886 1058 1214 1011 1149 730
366 1322 1700 3064 3160 2180 1945 1717 1679 1706 1895 2238 2663 3077 3585 3951 3777 3976 3921 4231 4165 4220 3741 3141 2232 1909 1016 262 393 732 832 995 686 1001 1194 932 716 453 396 51 127 624 596
297 1413 1927 2156 2871 2881 2422 1949 1805 1977 1916 2565 2726 2918 3542 3947 4053 3976 4032 4279 4297 4194 3698 3328 2199 1530 1037 0 0 218 695 410 644 1384 1191 1067 544 964 1197 185 127 135 77
219 336 852 2102 2631 2877 2626 2659 2363 2573 2495 3667 3264 3485 4112 4296 4220 4221 4249 4432 4360 3985 3478 2685 1460 903 542 125 23 2 82 201 702 980 1305 1078 837 1165 1157 1065 1007 475 265
780 464 86 1889 2696 2942 2917 3407 3012 2748 3794 3365 4630 4128 5033 4793 4762 4742 4681 4495 3799 2932 2400 1604 674 495 730 36 6 0 55 90 597 932 844 1033 1278 1147 504 648 722 311 604
122 549 331 2303 3358 3354 3200 3366 3692 3440 3233 4295 4442 5008 5021 4950 4888 4790 4364 3053 2416 2225 1913 994 723 587 818 765 61 0 315 304 766 1099 981 482 792 490 193 355 367 370 390
382 1574 3051 2911 3519 3615 3516 3660 3819 3989 4020 4533 4546 4828 4917 4957 4833 4538 3296 2407 2477 2622 1701 1111 894 923 725 1265 0 0 658 901 1025 925 888 1029 520 67 0 0 298 176 0
918 3037 3569 4082 4067 3948 4029 4174 4245 4439 4556 4489 4465 4626 4686 3833 3788 3384 2730 2749 2373 1922 1632 1289 1148 1285 1610 39 0 0 12 62 696 1171 906 624 1 0 0 0 0 0 0
2930 2691 3753 4123 4124 4552 4039 4149 4397 4092 4013 4029 4257 4217 3890 3473 3131 2771 2701 2440 2266 1811 1498 1664 1611 1929 1880 1104 6 0 0 0 0 505 1 0 0 0 0 0 0 0 0
3062 3123 3084 3414 3680 3859 4085 4327 4345 4222 4134 4104 3715 3270 2641 2544 2577 2330 2206 1847 1687 1499 1624 1814 2157 1805 1710 884 123 6 0 0 0 0 0 0 0 0 0 0 0 0 1
2821 3006 3139 3594 3959 4403 4034 4060 4243 4026 3253 2891 2647 2155 1812 1772 1202 112 859 1357 0 337 1901 1964 1693 1286 1174 990 344 93 0 1 0 0 1 0 2 0 0 0 7 10 21
2497 2641 3122 3432 3445 3496 3587 3788 3882 3263 3053 2608 2247 1670 1691 1252 716 81 0 0 0 0 0 0 521 0 0 0 0 0 0 0 0 67 522 365 344 258 323 45 116 38 37

GFSMW_con_sbcape_015.txt.gz
CAPE
88 343 345 396 567 1208 1062 1034 1300 1297 1041 1599 1367 1373 1556 1548 770 961 1056 1502 1386 1503 1496 1529 1289 1652 1033 279 479 113 0 0 0 0 6 7 31 5 0 0 0 0 1
45 234 287 308 577 1069 976 883 932 2210 1586 1502 1320 1330 1360 1529 1094 897 1640 1343 1481 1774 1284 1272 1276 1405 823 210 0 0 0 0 18 0 0 20 23 33 0 0 0 0 0
66 179 208 267 302 803 1160 1129 913 2271 2020 1858 1339 1369 1623 1726 1796 1321 2207 1932 1910 1826 1175 1479 1299 703 160 37 0 0 0 0 29 0 0 1 4 31 16 7 0 0 0
72 145 258 295 299 842 1306 1241 1402 2124 1823 1800 1507 1317 1092 1035 1190 1530 1508 2086 2148 1672 1245 1311 1362 577 188 102 6 5 0 38 0 0 0 0 0 6 28 37 0 5 0
14 103 377 316 432 774 1036 1722 1576 1723 1942 1969 1446 1390 1269 959 1264 1517 1391 1996 1976 1743 1714 1537 1194 129 4 189 87 15 10 45 56 8 15 3 0 2 0 10 31 42 15
0 83 270 403 388 880 1385 1825 1963 1911 2248 1652 1868 1675 1561 1451 1025 916 1829 1893 1520 1534 1934 1485 300 47 8 90 51 61 72 50 22 0 1 0 0 0 0 0 0 2 17
4 0 210 509 513 901 1337 1885 2026 2069 2356 1979 1620 2008 1591 1478 1155 1345 1789 1764 1652 1441 1576 946 287 56 27 184 108 110 66 57 19 48 0 4 0 0 0 0 0 0 5
19 2 206 397 666 757 1329 1948 2195 2048 2372 2486 2179 1564 2186 1432 1226 1391 1851 1561 1527 1286 1120 790 286 122 26 514 264 194 68 79 19 15 0 0 0 0 0 0 0 0 0
1 30 103 319 638 736 1495 1581 2576 2416 2559 2584 2642 2203 1896 2205 2042 1893 1792 1572 1018 1009 1094 871 443 196 100 69 312 214 28 114 54 0 0 0 0 0 0 0 0 0 0
3 49 73 340 665 803 1322 1543 2497 2604 2708 2277 2902 2715 2337 2010 2037 2189 1840 2052 1284 1410 921 1089 617 709 187 162 402 57 154 26 108 59 30 0 1 1 0 0 0 0 0
11 87 127 388 794 927 1278 1603 2166 2676 2817 2841 2599 2970 2742 2530 2087 2352 1909 1561 1740 1086 939 1015 1053 598 342 358 385 43 35 148 2 16 0 77 2 8 0 26 0 0 0
55 138 264 347 945 1053 1088 1563 2576 2691 2917 3066 2927 2936 2989 2970 2565 2238 2049 2140 1442 1399 1360 1058 1088 754 455 252 340 69 49 22 125 8 0 0 10 14 7 101 57 116 51
108 333 213 610 1062 1138 1080 1557 2181 2971 3085 3260 3199 3041 2870 3106 3002 2468 2366 2269 2262 1753 1425 1456 1066 912 686 370 377 122 5 106 29 91 20 15 1 1 82 84 107 69 72
10 166 307 647 933 1264 1230 1364 1872 2759 3169 3398 3283 3117 2971 2951 3012 2945 2303 2508 2602 2378 1254 1243 1195 951 711 326 351 140 39 97 129 65 134 75 5 13 296 211 193 151 175
65 300 373 426 847 1200 1290 1398 1696 1943 2906 3147 3209 3009 3022 3033 3093 3000 3055 2591 2596 2502 2074 1344 1305 1115 622 319 284 264 195 228 256 104 229 96 111 126 187 220 130 318 257
530 705 538 471 573 795 1027 1341 1581 1898 2270 2875 2983 2884 2887 2946 3011 3033 2972 3162 2691 2813 2187 2011 1531 1276 1117 532 375 305 356 424 344 205 505 184 313 436 496 470 413 350 297
416 557 675 751 675 784 979 1270 1577 1693 1993 2404 2756 2749 2656 2895 2927 2989 2937 3234 3267 3124 3056 2616 1971 1376 1320 411 147 338 358 335 341 379 509 559 293 205 184 131 145 73 111
89 559 805 1767 1126 1104 997 1264 1380 1674 1786 1857 2450 2538 2749 2757 3093 3044 3181 3103 3388 3291 3294 2912 2064 1514 687 104 24 4 146 221 184 379 518 429 257 174 593 390 128 44 58
0 0 638 1051 2033 1519 1233 1121 1152 1470 1456 1572 1894 2344 2485 2852 3073 3246 3233 3237 3414 3351 2975 2064 1139 549 328 88 1 0 0 7 6 142 341 366 330 338 154 319 315 344 221
0 0 0 652 1554 1981 1663 1308 1245 1420 1296 1382 1990 2172 2353 2890 3326 3378 3301 3283 3084 2270 1874 954 536 302 206 40 15 0 3 0 0 0 229 330 328 61 16 180 155 119 99
0 0 211 1332 1595 2027 2093 1778 1605 1379 1995 1438 3575 2802 3391 3808 3674 3535 2807 2066 1850 1788 1255 748 397 205 246 306 1 0 0 42 67 88 162 104 96 345 130 4 17 137 0
1727 168 1488 1616 2295 2243 2631 2618 2324 2466 2820 3752 4084 4319 4238 4227 3178 2538 1822 1623 1836 1573 1039 742 609 565 358 401 286 0 0 83 193 149 197 146 329 91 0 0 0 0 0
3258 3217 3269 3436 3553 3052 3105 3477 3778 3739 3701 3790 3747 3371 2996 2521 2113 1810 1794 1715 1420 1334 1085 879 739 735 807 50 33 0 0 0 0 0 0 0 0 0 0 0 0 0 0
2845 2951 3090 3138 3274 3411 3470 3522 3315 3374 3443 3222 2783 2496 2350 2042 1867 1710 1517 1516 1264 1205 1075 1019 907 845 570 49 1 1 0 0 0 0 0 0 0 0 0 0 0 0 0
2298 2726 3071 3283 3262 3358 3332 3272 3358 3125 2849 2291 1829 1744 1745 943 0 0 187 234 0 473 934 1013 764 609 696 406 0 0 0 0 0 0 0 0 0 0 0 0 0 0 0
2077 2887 3055 3150 3157 3195 3014 2686 2497 2353 1976 1580 1432 1393 496 89 0 0 0 0 0 0 0 73 138 0 184 204 1 0 0 0 0 0 0 0 0 0 0 0 0 0 3

GFSMW_con_sbcape_018.txt.gz
CAPE
335 240 194 235 438 599 800 936 783 759 780 994 882 651 619 756 699 802 501 1095 1136 1431 862 669 901 834 642 169 56 0 0 0 0 0 0 5 3 0 0 0 8 12 135
310 172 180 266 261 633 908 913 777 578 577 952 940 643 661 834 882 438 543 857 934 1141 943 882 763 842 99 0 0 0 0 0 0 0 0 0 13 1 0 0 6 4 23
161 190 154 335 342 732 775 740 890 735 538 753 783 769 850 1187 1096 708 823 1038 881 1139 1166 799 763 664 250 31 0 0 0 0 0 0 0 0 0 14 1 0 0 0 0
41 121 196 117 370 586 682 633 1092 1031 901 963 945 964 777 1115 941 892 1197 1418 1208 1217 909 823 687 0 49 0 0 0 0 0 0 0 0 0 0 0 0 0 0 0 0
35 8 162 152 141 515 591 559 692 1414 1350 1227 936 911 774 672 558 771 996 1353 1487 1233 920 805 689 12 0 0 0 0 0 3 0 0 0 0 0 0 0 0 0 0 0
29 0 86 113 114 341 684 624 499 1532 1576 1406 1116 865 698 586 463 659 855 1299 1537 1226 1016 992 558 0 0 14 0 0 0 5 16 0 0 0 0 0 0 0 0 0 0
7 0 16 65 84 161 621 838 751 772 1499 1347 1198 994 907 737 569 436 799 1198 1403 1036 1147 856 185 0 0 0 0 0 0 0 0 0 0 0 0 0 0 0 0 0 0
9 3 9 120 93 204 673 1144 990 882 1372 1502 1287 1158 1046 929 918 591 828 1218 1262 1223 1065 687 150 0 0 0 0 0 0 0 0 0 0 0 0 0 0 0 0 0 0
0 0 7 80 170 243 778 1091 1305 1150 1461 1446 1409 1496 1387 1122 1100 717 1200 1064 1204 1048 913 684 140 12 0 83 66 21 0 21 0 0 0 0 0 0 0 0 0 0 0
1 1 0 126 260 217 764 1140 1482 1404 1603 1753 1498 1363 1492 1604 1288 817 1120 1149 1006 1020 815 553 153 53 4 49 67 55 1 0 4 0 0 0 0 0 0 0 0 0 0
6 18 21 76 231 356 780 1317 1521 1464 1701 1930 1864 1716 1404 1279 1647 1586 1479 1306 968 702 791 567 251 115 51 0 130 6 5 0 0 9 0 0 0 0 0 0 0 0 0
27 6 30 44 163 516 813 1252 1791 1675 1740 1996 2051 2038 1970 1719 1509 1577 1776 1448 1277 653 767 663 408 277 164 69 41 31 21 20 0 0 0 0 0 0 0 0 1 0 0
0 0 1 22 198 548 714 1269 1678 1999 2006 2101 2087 2380 2271 2157 1972 1672 1595 1599 1418 942 707 649 739 393 328 174 123 63 11 0 5 0 0 0 0 0 6 4 5 27 11
0 0 36 54 290 639 738 1242 1453 2157 2227 2357 2227 2296 2518 2386 2331 2145 1860 1730 1718 1119 948 751 771 737 391 203 202 147 8 0 1 0 0 0 0 5 0 12 7 26 53
0 29 7 118 405 773 836 1146 1556 1956 2297 2429 2588 2441 2531 2607 2560 2468 2183 1880 1978 1768 1087 1000 898 695 625 412 231 185 72 11 3 0 0 0 10 11 6 7 19 44 81
0 0 63 238 278 782 915 1039 1411 2199 2370 2608 2659 2757 2691 2599 2585 2695 2621 2107 2001 2077 1395 1012 1000 796 749 587 237 276 174 91 32 16 0 12 105 105 10 5 30 50 101
0 2 98 214 425 800 985 1030 1468 2016 2593 2676 2869 2898 2831 2751 2675 2637 2647 2682 2217 2034 1843 1183 1068 997 986 678 119 146 168 146 139 10 14 82 293 133 112 80 80 16 37
0 51 239 291 581 827 1037 1138 1349 1767 2493 2670 2821 2998 2842 2787 2731 2749 2748 2736 2825 2354 2342 1918 1421 1324 1152 715 5 108 272 241 233 194 120 195 298 103 54 29 5 10 19
0 0 376 331 459 676 962 1124 1295 1684 1895 2416 2638 2829 2775 2648 2725 2655 2747 2771 2941 2897 2755 2740 2071 1606 1395 390 0 66 144 174 185 101 224 303 164 32 4 38 78 81 165
0 0 202 1002 581 584 659 923 1176 1496 1765 1986 2381 2660 2634 2541 2633 2746 2768 2834 2929 2987 2980 2411 1821 1619 294 0 3 2 0 17 15 0 0 72 170 75 0 37 34 62 45
0 0 0 357 1441 859 678 816 978 1251 1570 1870 1925 2316 2480 2516 2528 2825 2847 2852 2965 2584 2011 1080 320 421 395 19 0 0 0 0 0 0 0 1 0 0 0 13 12 38 1
291 0 0 0 157 1361 983 828 886 1025 1363 1493 1444 1681 2104 2259 2600 2879 2851 2722 2262 1788 778 381 316 293 136 67 0 0 0 0 7 31 0 0 0 0 0 0 3 0 0
1877 2023 0 0 37 946 1407 1140 1038 1005 1187 1118 1672 1844 2048 2588 2875 2692 2230 1928 1538 1210 847 587 442 373 92 3 0 0 0 0 3 0 0 0 1 1 1 1 1 0 0
784 1846 2490 2461 2418 1894 1740 1466 1493 1909 1995 2236 3186 3187 2917 2681 2410 1988 1764 1550 1136 863 688 657 619 375 236 0 1 1 1 1 0 0 0 0 0 0 0 0 0 0 0
0 0 652 2101 2747 3004 3000 2973 2524 3235 3085 2830 2614 2269 1619 1219 199 1 487 644 443 872 888 560 419 320 230 31 0 0 0 0 0 0 0 0 0 0 0 0 0 0 0
0 0 0 0 0 0 2659 2887 2712 2501 2248 1943 1347 286 32 3 2 0 1 0 0 0 467 504 217 1 141 118 0 0 0 0 0 0 0 0 0 0 0 0 0 0 0

GFSMW_con_sbcape_024.txt.gz
CAPE
196 114 61 171 176 205 296 373 488 529 437 332 330 259 347 223 180 159 388 459 591 872 789 535 565 240 526 425 90 0 0 0 0 0 0 0 0 0 0 24 375 667 676
305 202 87 76 120 167 250 350 415 510 488 441 461 492 406 79 340 348 359 542 661 823 718 430 528 414 497 160 52 0 0 0 0 0 0 0 0 0 0 4 33 161 334
369 258 162 75 47 96 262 305 374 469 533 453 405 109 82 171 216 207 386 299 785 895 844 398 516 520 419 219 37 0 0 0 0 0 0 0 0 0 0 0 0 17 36
448 262 209 132 85 7 182 286 286 365 439 377 371 533 550 513 361 295 249 342 564 810 879 714 504 511 316 67 12 0 0 0 0 0 0 0 0 0 0 0 0 0 0
445 381 277 195 131 70 48 236 264 308 320 361 395 451 556 481 134 208 325 320 360 521 804 771 585 471 281 146 5 0 0 0 0 0 0 0 0 0 0 0 0 0 0
289 311 184 263 101 91 94 229 296 335 334 310 358 312 400 84 140 266 354 424 581 555 665 674 615 294 55 94 11 0 0 0 0 0 0 0 0 0 0 0 0 0 0
250 197 124 55 113 71 102 230 335 378 358 283 293 298 319 154 115 204 488 425 677 760 705 642 529 230 14 4 0 0 0 0 0 0 0 0 0 0 0 0 0 0 0
166 204 151 47 73 97 114 274 383 405 388 315 276 285 283 248 179 137 322 554 738 922 956 731 684 357 50 11 0 0 0 0 0 0 0 0 0 0 0 0 0 0 0
0 50 118 71 25 80 114 250 410 422 449 434 361 330 325 346 278 198 220 454 622 910 925 888 821 432 54 27 0 0 0 0 0 0 0 0 0 0 0 0 0 0 0
0 0 0 9 14 33 122 251 388 380 486 563 550 529 495 483 418 249 159 239 376 815 936 980 914 433 76 14 0 0 0 0 0 0 0 0 0 0 0 0 0 0 0
0 0 0 2 0 4 35 200 355 392 436 745 753 759 712 637 508 359 346 298 449 630 856 1024 903 547 139 52 5 5 0 0 0 0 0 0 0 0 0 0 0 0 0
0 0 0 0 3 0 10 62 332 373 402 851 969 963 895 792 666 572 571 545 534 598 773 886 906 670 210 110 77 40 31 0 0 0 0 0 0 0 0 0 0 0 0
0 0 0 0 0 0 0 27 211 456 432 504 1019 1036 986 901 844 732 767 597 743 751 801 833 867 658 369 126 135 124 81 60 31 1 0 0 0 0 0 0 0 0 0
0 0 0 0 0 0 4 17 159 384 560 541 794 1014 1059 1016 1026 962 940 776 824 840 926 920 915 708 514 280 152 148 148 124 122 50 0 3 0 0 0 0 0 0 11
0 0 0 0 0 0 4 47 214 395 658 722 761 994 1055 1089 1138 1216 1174 1107 1023 1019 906 932 936 826 634 469 328 200 162 160 148 87 35 4 0 1 0 0 0 0 1
0 0 0 0 0 0 76 165 348 611 778 922 940 1066 1204 1183 1151 1135 1281 1309 1306 1275 1039 931 978 906 848 599 225 275 264 193 159 75 66 95 0 0 0 0 0 0 0
0 0 0 0 0 1 127 253 441 735 933 1089 1177 1296 1399 1442 1418 1366 1244 1225 1224 1345 1155 1101 1005 1004 1055 509 196 155 457 407 300 188 92 42 77 3 34 0 0 0 0
0 0 0 0 0 0 0 162 397 843 1140 1217 1270 1475 1603 1666 1663 1675 1573 1458 1363 1296 1329 1200 1048 1058 984 503 114 100 580 539 385 283 181 212 244 101 14 11 4 0 0
0 0 0 0 0 0 0 179 448 856 1194 1436 1420 1548 1739 1808 1838 1881 1877 1839 1723 1546 1516 1412 1214 1169 1205 345 30 49 544 500 425 325 249 244 223 38 0 57 68 5 1
0 0 0 0 0 0 3 293 531 862 1087 1584 1702 1759 1847 1829 1926 2035 2090 2060 2004 1841 1730 1604 1368 1230 1436 65 22 57 662 661 514 420 340 72 176 6 0 178 296 192 3
0 0 0 0 0 0 38 344 478 783 1118 1409 1793 1968 2067 2052 1964 2090 2276 2324 2350 2164 1870 1825 1605 1611 1380 803 4 0 767 904 582 564 361 204 40 17 0 1 27 1 2
1574 830 0 0 0 0 73 400 595 814 1030 1435 1775 1982 2202 2320 2323 2207 2286 2285 2439 2415 2140 1935 1868 1906 1630 1226 1 1 664 581 671 503 233 37 0 0 0 0 0 0 0
463 1120 493 14 1 45 29 41 198 477 801 1202 1773 2148 2258 2445 2433 2469 2405 2407 2425 2434 2297 2083 2081 1811 1130 0 1 1 233 130 234 129 46 0 0 2 1 1 1 0 0
0 53 28 0 0 0 0 0 153 1072 529 950 1290 1839 2339 2479 2609 2469 2483 2479 2477 2261 2265 2212 2129 1558 245 36 1 0 0 0 0 1 0 1 0 0 0 1 0 0 0
0 0 0 0 0 0 0 0 0 739 1606 408 981 1448 2022 2052 2552 1078 1232 2354 2457 2535 2547 1927 1411 559 276 75 1 2 1 0 0 0 1 0 0 0 2 2 1 0 0
0 0 0 0 0 0 0 0 0 201 1941 1780 733 1181 1762 2071 169 0 0 2 2 2 8 36 3 0 0 0 2 1 1 1 0 0 1 0 0 0 0 0 0 0 0

GFSMW_con_sbcape_027.txt.gz
CAPE
507 483 448 547 603 732 905 1072 1147 1311 1066 929 787 622 477 432 730 1104 1300 1413 1656 1861 2150 1877 2135 1875 1654 1736 1685 1038 612 54 33 0 68 34 59 47 101 697 500 1068 1026
645 591 559 583 656 780 1029 1389 1454 1647 1471 1132 1178 720 766 513 1189 1649 1767 1705 1753 2013 2117 2140 2056 1910 1582 1815 1611 997 240 32 55 24 53 13 44 17 8 500 395 752 310
779 680 581 537 685 861 1179 1525 1911 2078 1805 1724 1197 1042 1061 1248 1441 1636 1668 1690 1958 2121 2221 2222 2043 2031 1900 1716 1724 937 419 48 161 60 52 16 1 62 0 221 266 450 174
835 772 690 604 594 1097 1041 1616 1766 2097 1674 2058 1614 1813 1117 873 1117 1501 1642 1768 1932 2070 2164 2262 2025 2113 1846 1948 1705 819 414 111 95 40 4 66 232 0 0 0 130 118 85
894 858 804 863 763 751 795 1268 1882 2052 2095 2178 2041 1704 1791 1213 1294 1335 1993 2708 2193 2038 2042 2238 2176 2213 2044 2015 1560 782 487 158 39 80 1 0 0 0 0 2 0 30 22
906 939 896 897 793 679 549 901 1704 1891 2065 1992 2069 2302 2307 1903 1381 1459 1402 1409 1546 1645 1996 2186 2444 2461 2142 2130 1782 1103 752 323 134 174 119 3 0 0 0 1 0 0 0
938 974 976 918 1141 1140 1085 984 1549 1744 1913 1910 1970 2104 2208 2382 2282 2071 1503 1724 1379 1418 1952 2154 2257 2151 2176 2004 1688 1290 780 550 282 393 199 169 37 0 0 0 0 0 0
778 954 1269 1381 1372 1245 1242 1157 1383 1628 1785 1766 1920 2054 2170 1763 1861 1921 1440 1398 1357 1481 2016 2238 2257 2198 2063 1778 1395 1197 829 416 453 421 216 193 183 69 0 0 0 0 0
721 754 1100 1336 1313 1393 1234 1334 1452 1656 1707 1666 1762 1827 1956 1950 1825 2033 2140 1468 2137 1486 1925 2290 2386 2372 2083 1796 1374 938 725 364 422 365 314 152 142 121 16 0 0 0 0
411 667 989 1110 1162 1051 1311 1254 1439 1659 1761 1754 1716 1622 1736 1863 1908 2007 2010 2020 2149 2156 1951 2323 2423 2396 2146 1848 1574 1237 783 535 341 220 322 275 117 94 91 43 11 0 4
55 190 736 1142 1200 842 1068 1191 1422 1687 1821 1827 1812 1766 1727 1754 1900 1921 2001 2089 2255 2320 2319 2321 2303 2305 2183 1860 1684 1540 1022 712 688 340 360 367 316 94 67 39 18 13 0
98 101 170 431 660 1135 986 1194 1325 1550 1746 1832 1931 1888 1912 1872 1832 1903 1973 2081 2215 2194 2522 2465 2357 2231 2190 2003 1736 1659 1199 949 851 639 434 387 131 217 148 44 131 41 16
27 132 92 376 672 948 1087 1018 1125 1161 1282 1793 1866 2006 2031 1928 1910 1941 2036 2141 2196 2253 2047 2418 2577 2267 2091 2076 1825 1814 1641 1154 1076 829 602 512 393 214 40 72 15 13 112
60 185 132 653 652 806 1030 1103 1158 1108 1268 1489 1806 2050 2105 2066 2012 2052 2140 2157 2279 2267 2364 2514 2665 2430 2082 2043 1831 1792 1822 1538 1269 1032 773 636 557 414 319 175 223 168 146
0 1 134 726 991 1021 1132 1063 1137 1405 1441 1713 1769 2090 2239 2292 2302 2222 2225 2262 2374 2269 2396 2489 2587 2460 2049 1777 1922 1827 1838 1725 1523 1324 1016 780 647 247 222 147 440 619 359
0 0 353 424 633 1040 1128 1108 1207 1331 1613 1786 1720 1991 2390 2452 2398 2374 2354 2386 2385 2354 2488 2532 2589 2592 2054 1416 1000 1566 1905 1787 1989 1824 1427 1064 309 78 0 0 97 602 693
0 0 196 461 658 652 1105 1047 1203 1204 1619 1861 1931 2051 2299 2461 2474 2435 2483 2427 2474 2417 2484 2466 2545 2610 2617 820 277 383 2062 1881 2138 2043 1877 1378 772 165 330 32 0 0 0
0 0 0 15 861 381 319 984 1226 1558 1723 1931 2138 2110 2112 2367 2458 2548 2539 2594 2571 2560 2567 2531 2539 2594 2555 440 72 124 1862 2260 2243 2076 1907 1655 1284 814 652 826 407 267 108
0 0 0 0 606 738 883 1181 1389 1701 1909 2010 2208 2260 2182 2413 2536 2513 2543 2551 2623 2711 2733 2683 2713 2641 2711 261 17 52 1571 2205 2247 2136 1875 1554 1417 766 152 780 769 467 510
0 0 0 0 1 496 389 991 1216 1632 2025 2154 2263 2308 2554 2591 2656 2715 2746 2690 2633 2676 2645 2802 2802 2271 2777 222 4 63 1926 2186 1967 2069 1804 586 1071 643 0 736 983 1032 856
0 0 0 0 29 46 315 1289 1452 1793 2012 1858 2055 2617 2852 2908 2785 2529 2857 3106 2989 2901 2893 2855 2831 2783 2311 2138 1 0 2086 2172 2000 1910 1301 1479 146 90 0 114 1281 1052 988
1398 0 0 38 555 680 750 1564 2182 1998 2107 2249 2682 3203 3207 2873 2661 3042 2753 3285 2884 3136 3300 3133 2612 2594 2888 1676 1 0 374 1599 2043 1346 1367 1557 9 0 0 0 604 89 130
1809 1205 967 1232 1185 1337 1528 1788 1786 1796 2120 2588 3149 3340 3403 3381 3384 3446 3417 2740 2419 2513 2796 2388 2438 2454 2071 2155 196 1 0 743 1372 1216 1152 750 2 2 1 0 2 0 198
1309 761 609 785 868 1394 1797 2035 2386 2404 2247 2781 3019 3282 3555 3636 3720 3382 3267 3028 2507 2344 2094 2276 2092 2111 2143 1342 2 0 0 127 281 6 1 1 2 0 0 0 0 194 226
60 246 376 425 360 464 388 229 355 2150 3073 2368 2333 2714 2910 2988 3598 3652 3461 3060 2779 2748 2752 2975 2303 2378 772 0 0 1 1 2 4 3 3 5 3 2 2 5 3 82 0
264 242 223 255 226 295 329 267 266 197 1056 1793 2111 2014 2155 2563 3125 3325 1368 0 176 1445 1047 2300 2387 897 1 1 1 0 1 1 0 0 4 10 2 9 3 1 2 0 0

GFSMW_con_sbcape_030.txt.gz
CAPE
843 701 744 787 898 1066 1250 1373 1430 1829 1695 1602 1374 1048 590 379 287 425 782 1310 1939 2271 2720 2203 1964 2158 1633 1536 1387 1247 1089 226 131 3 27 46 51 54 51 54 53 56 57
927 792 765 797 797 1025 1221 1603 1602 2092 2039 1629 1728 901 585 321 342 552 1237 1932 2149 2544 2654 2738 2092 2072 1721 1985 1903 1449 627 228 2 22 38 43 38 31 47 46 36 23 24
986 920 740 741 747 958 1247 1705 2099 2336 2204 2216 1600 1204 755 618 629 932 1737 2324 2504 2523 2890 2515 1792 2301 2338 1833 2165 1792 1161 139 21 156 118 18 30 30 18 122 44 34 27
1180 1084 863 843 806 1015 1247 1675 2372 2408 2480 2375 2170 2674 992 657 662 1134 1525 1788 2292 2420 2524 2570 2486 2862 2091 2012 2639 1821 1242 1153 12 54 4 253 546 26 39 12 36 19 27
1190 1252 1072 891 942 1011 1183 1499 2473 3190 3191 2974 2882 2084 2123 930 704 852 2667 3344 2636 2425 2170 2592 2836 2852 2643 2336 2610 2033 1887 1062 54 1 0 16 0 58 14 46 34 74 27
1140 1253 1312 1090 968 1056 1245 1418 2832 3255 3271 2926 2526 3228 3362 2578 1229 1722 1467 1510 1655 2036 2375 2400 2881 2912 2707 2640 2716 2470 1931 1611 515 16 80 0 0 0 5 5 18 36 88
1048 1215 1403 1415 1184 1100 1284 1417 2426 2974 3100 2486 2805 2781 3148 3312 3135 2721 1892 2260 1339 1204 2735 2650 2779 2667 3118 2732 2771 2779 2041 1975 1208 566 92 61 25 0 0 0 1 4 13
1061 1169 1379 1540 1583 1398 1737 1678 2429 2929 2697 2554 3586 3695 3809 2356 2419 2813 1913 1764 1455 1621 1759 2305 2509 2660 2674 2881 2769 2649 2256 1739 1551 876 494 58 104 98 16 0 0 1 0
1048 1242 1312 1481 1693 1870 2404 2520 2899 3420 2990 2477 3596 3910 3667 3487 2300 3333 3196 2102 2851 1737 1832 1992 2521 2496 2683 2794 2892 2525 2378 1488 1526 851 830 307 46 134 65 37 1 0 1
955 1171 1318 1392 1595 1765 1888 2321 2876 3152 3256 2791 3018 2962 3316 3751 3570 3724 3772 3336 2836 2787 2282 2181 2333 2466 2710 3006 3067 2545 2394 2051 1370 771 540 754 68 108 115 59 14 2 0
718 903 1044 1208 1416 1649 1873 1995 2274 2835 2903 3003 3244 3171 2857 3023 3321 3482 3680 3756 3082 3571 3013 3072 2550 2399 2801 3062 3194 3077 2413 2358 1929 1362 729 873 738 94 48 86 84 63 36
76 187 545 875 1152 1478 1677 1941 1960 2028 2464 2874 3360 3408 3443 3308 3041 3425 3498 3710 3723 3456 3790 3340 3251 2792 2659 2986 3010 3008 2399 2489 2232 1981 1515 889 588 783 359 132 998 368 203
14 108 142 342 884 1244 1556 1519 1839 1785 1885 2743 2496 2723 3006 2878 3407 3640 3522 3691 3779 3844 2722 3498 3946 3357 3026 3288 3016 2919 2978 2625 2557 2289 2047 1490 765 852 485 389 235 116 146
0 0 37 190 517 1166 2163 2340 1487 1622 1655 1942 2199 2981 3397 3367 3377 3631 3635 3695 3824 3900 3854 3700 4175 3794 3190 2984 2699 2720 2940 2997 2637 2590 2331 1922 1416 1005 931 545 523 319 164
0 0 362 530 1037 1337 2004 2512 1820 2011 1880 2602 2324 3051 3466 3647 3655 3701 3699 3705 3909 3798 3987 3954 4050 4097 3123 2551 3566 3408 3076 3428 2937 2739 2589 2282 1720 888 936 865 981 1382 597
0 0 0 199 714 1254 1624 1883 2635 2182 2057 2834 2840 3120 3641 3886 3808 3817 3804 3933 3892 3910 3974 3903 4053 4080 3067 1949 1501 2615 3219 3733 3771 3240 2791 2536 1265 771 299 308 333 886 1274
0 0 0 17 594 1028 1367 1491 2454 2020 2485 2880 3204 3382 3754 3895 3949 3989 4034 3969 3915 3973 4032 3987 4011 4151 4043 1635 721 1197 2947 3607 3635 3449 3220 2739 2310 1375 1471 149 31 34 295
0 0 0 0 82 437 123 1124 1361 2672 2860 3123 3304 3555 3732 3928 4155 4188 4113 4086 4041 3974 4092 4037 4095 4145 4075 2071 270 474 2767 3683 3765 3584 3556 3885 3506 2435 1812 1709 736 489 485
0 0 0 0 0 0 155 359 1326 1876 2600 3156 3389 3557 3670 3410 3551 4120 4098 4067 3845 3665 3693 3554 4120 4375 4226 1590 64 332 2572 2936 3985 3671 3512 3594 3550 2621 883 1878 1923 1683 1187
0 0 0 0 0 127 224 622 1151 1554 2588 3008 3277 3476 3786 3781 3705 4092 4230 4088 3938 3556 3107 3511 3910 3417 4265 2082 1 230 2261 2849 2715 3804 3971 1993 2884 2233 220 1470 1815 2004 1783
0 0 0 0 37 419 644 1056 1290 1677 2423 2349 2415 3367 3875 4040 4038 4341 4302 4240 4067 3624 4045 3715 3696 4075 3877 3710 0 0 2631 2757 2788 2551 2831 2827 1161 243 98 412 1502 1796 1884
669 1172 332 0 16 640 630 1193 2941 2489 2985 3083 3084 3874 3994 3208 3073 4433 4496 4176 4167 4127 3978 3379 3552 3703 4106 2649 143 0 160 2126 3010 2968 2454 2671 304 67 0 0 789 849 729
1275 1690 13 243 1386 1904 1567 1639 2737 2643 2702 2999 3669 3715 3817 3855 4197 4487 4536 3738 4238 3371 3369 2907 3468 3176 3682 3712 1355 0 0 12 1520 2522 2330 1579 2 0 1 5 23 72 903
2440 2084 1387 1305 1988 2517 2625 2869 2875 2719 2767 2875 3131 3239 3500 3483 3475 3295 3545 3284 3098 3598 3207 3560 3712 3414 3448 3475 3140 630 4 5 163 103 6 0 0 1 3 2 5 399 719
1290 1451 1791 1899 1864 1976 2011 2185 2711 3430 2926 3120 3231 3353 3301 3469 3626 3853 3376 3266 3635 3205 3428 3503 3170 3090 3100 3306 2847 679 145 233 213 0 1 2 1 2 5 35 132 298 549
1002 976 963 1041 1162 1093 1147 1228 1225 1326 1848 2398 2539 2400 2498 2802 3219 3300 3737 51 218 27 1002 1795 1548 2199 2225 518 56 2 2 1 1 1 6 8 3 0 4 92 100 320 221

GFSMW_con_sbcape_033.txt.gz
CAPE
661 649 711 624 576 658 886 1868 1960 2830 2158 1653 1410 1267 818 890 350 288 909 1117 1398 2003 2487 2324 2759 1864 2488 1684 1351 1306 914 688 25 11 27 42 26 32 41 54 54 47 62
890 618 669 542 553 993 1745 2552 2813 3513 2966 1970 2285 1523 1531 418 251 205 1481 1190 1616 2150 2557 2953 2358 2226 1648 1886 1936 1420 1253 37 0 182 39 38 30 37 45 34 22 31 20
1117 850 654 590 589 1158 2049 2590 3218 3524 3159 2930 2569 2345 1649 1281 389 457 629 1455 1989 2232 3457 2545 2250 2464 2560 3146 2250 1603 1042 265 0 413 273 191 99 18 1 17 36 5 15
1153 1109 686 648 617 1045 1520 2755 3397 3571 3383 3477 2262 2604 1175 625 406 653 533 1423 2762 2280 2473 2477 2032 2848 2162 2768 2244 1784 1605 1262 60 0 21 602 652 452 124 45 24 20 14
1154 1176 1009 678 643 851 1107 1975 3512 3768 3534 3464 3256 2158 2075 640 470 484 1862 2456 3676 2594 2041 3206 2890 3157 2774 3384 2420 2358 2162 1094 529 0 0 0 0 0 118 181 263 20 21
1039 1241 1240 911 632 677 931 1967 3500 4094 4069 4080 3645 4043 2723 2229 815 907 977 1214 1381 2328 3464 2722 3743 3848 3516 2553 2756 2856 2406 2096 898 194 49 23 41 65 44 17 442 272 307
814 1186 1330 1186 1092 1134 1431 1991 3283 4039 4171 4198 3790 3676 4049 3743 4044 3087 1079 1563 1146 1012 2948 3754 3646 2877 3868 3103 3534 3892 2783 2338 1810 1326 122 47 64 12 0 0 2 2 29
812 1119 1329 1454 1609 1639 2075 2248 3171 4022 4154 3999 4109 4011 4292 2773 2367 2769 1536 1275 1167 1141 2760 3858 3465 3433 3530 3310 4009 3024 2711 2842 1998 1412 1375 187 114 102 82 35 0 20 1
623 931 1279 1489 1998 1884 2412 2567 3137 3788 4039 3666 4080 4260 4188 4034 3007 3303 3564 2521 2690 1331 2928 3542 3601 3579 3578 3862 4082 2681 3537 3026 2374 2098 1701 704 49 104 89 31 0 0 19
410 867 1173 1416 2002 1792 2254 2678 3004 3598 3841 3477 3820 3960 4210 4301 4018 4118 4237 3249 3415 3617 3627 3149 3271 3471 3765 3927 4317 3227 3633 3546 1986 1008 2194 1899 128 154 94 43 21 0 0
173 722 1153 1344 1673 1773 1806 2386 2836 3499 3829 3763 3768 3859 4000 4060 4269 3952 4196 4174 4186 4402 3761 4087 3664 3708 3792 3985 4382 3978 3703 3624 3309 2489 2464 2153 2223 113 56 74 52 43 41
80 657 1153 1137 1320 1684 1809 2082 2503 2528 3662 3785 3880 3864 4021 4010 4049 4225 4028 4308 4407 4201 4405 4284 4201 3972 3808 3980 4255 3998 2588 3707 3201 2626 2695 1960 832 2090 1797 228 1555 451 737
130 686 893 1037 1181 1437 2155 1996 2512 2119 2266 3248 3444 3958 3963 4052 3973 4144 4210 4172 4353 4402 4196 4284 4471 4324 3948 4019 4410 4289 3990 3784 3670 3464 3331 2717 2201 2260 733 845 426 243 496
20 211 330 498 1134 1601 2564 2854 2368 2258 2288 2501 2859 3481 4052 3975 4042 4122 4333 4276 4383 4392 4329 4275 4403 4410 4297 4028 4109 4185 4195 3988 3799 3715 3664 3426 2811 2199 2333 1666 1605 1161 643
0 1 89 432 933 2052 2882 3096 2400 2841 2548 3151 3153 3456 3998 4198 4253 4212 4289 4333 4384 4357 4407 4369 4378 4566 4398 3585 4064 3864 3998 4138 4172 3966 3914 3728 3025 1897 1923 1369 1582 1470 851
0 0 0 89 552 1404 2615 2828 3201 2798 2824 3479 3342 3729 4127 4351 4424 4436 4380 4538 4434 4476 4467 4464 4380 4376 4091 2786 2136 3148 3961 4130 4318 4211 4130 3848 2340 1589 954 847 982 1461 2066
0 0 0 0 259 633 1582 2022 3294 3226 2934 3378 3782 3815 4188 4393 4522 4572 4605 4527 4524 4534 4520 4471 4529 4479 4476 2809 1239 1332 3789 4117 4033 4326 4294 3920 2713 2394 2196 431 429 226 605
0 0 0 0 34 19 291 1415 1558 3813 3697 3634 3690 3998 4125 4356 4573 4683 4633 4650 4632 4592 4594 4599 4656 4632 4514 3308 758 597 2993 3735 3929 4072 4258 4310 3464 3477 2976 2725 1515 1348 1128
0 0 0 0 134 0 42 473 1643 2824 3744 3908 3861 3820 4196 4345 4526 4574 4610 4644 4610 4605 4555 4610 4724 4717 4575 2954 1369 194 2671 3202 3552 3735 4154 4213 4284 3424 1745 3123 2985 2137 1674
0 0 0 0 0 62 0 0 256 1698 3625 3658 4076 4156 4444 4475 4533 4624 4762 4739 4690 4567 4299 4481 4632 4293 4683 3743 995 358 2907 3106 3276 3593 4079 2885 3642 3471 656 2807 3163 2677 2091
514 249 157 74 165 113 67 1358 1224 1405 2704 3329 3999 4390 4465 4647 4572 4655 4783 4828 4759 4430 4637 4525 4569 4636 4349 4515 695 8 3310 3152 3156 3255 3414 3749 1800 1793 128 1123 2840 2816 2730
787 400 397 1021 1174 431 783 2740 2973 3085 3777 3761 3970 4324 4548 4132 4067 4692 4833 4969 4842 4750 4747 4703 4633 4553 4659 3169 1563 0 570 2738 3186 3267 3224 3401 1810 384 0 59 2128 1867 1886
805 37 310 1619 533 772 1067 2719 3751 4441 4389 4491 4638 4619 4694 4696 4536 4840 4910 4502 4794 4311 4404 4248 4507 4468 4468 4562 1929 6 0 368 2374 3193 2927 2547 344 0 0 93 346 455 1294
1444 1962 2000 1703 1040 2063 2545 2454 3448 3665 4170 4740 4844 4808 4894 4783 4610 3660 4007 3845 3696 4024 3973 3905 4110 4014 4122 3995 4485 1960 109 18 326 1120 1527 112 1 42 375 1 0 376 894
2257 2041 2451 2558 2752 3134 3421 3449 3497 3231 3255 3426 3393 3615 3433 3852 4495 4385 3289 3606 3966 3272 3589 3737 3600 3662 3766 3620 3541 3809 3688 2058 1365 1733 366 154 151 0 0 37 2 60 395
1703 1839 1902 2007 1914 1867 1891 1991 2011 3223 3800 3592 3550 3338 3171 3324 3525 3581 4000 1986 2077 1172 1151 0 266 2419 795 839 1308 2181 1753 1427 705 1214 567 276 279 43 2 76 38 89 149

GFSMW_con_sbcape_036.txt.gz
CAPE
781 981 835 783 911 1287 1636 1499 1859 2435 1938 1705 1685 1749 1244 1592 1701 1840 2216 2906 2769 2991 3644 2161 1025 2410 2550 2692 2530 2014 1330 891 276 681 296 252 46 50 39 66 51 199 211
652 947 888 767 772 1097 1547 1703 1810 2429 2297 1925 1898 1706 1990 1461 1311 1393 2457 2532 2448 3187 3365 2908 2527 2614 1142 2680 2188 2155 1666 1113 328 867 189 178 207 43 41 118 44 117 37
732 868 897 787 723 1204 1517 1758 1943 2739 2631 2292 2534 2835 2739 2771 1581 1150 1650 1897 2528 2958 3077 2890 2845 2636 2619 2227 2270 2434 2551 1069 271 1385 1215 138 30 255 139 59 18 62 7
1045 827 964 898 782 1092 1373 1947 2185 2498 2782 2774 2229 2557 1499 1188 1152 1089 1279 1614 2079 2820 2861 2891 3504 3389 2579 2717 2893 3121 2718 1987 320 260 567 1142 1105 369 18 305 110 189 13
1079 1044 860 909 805 1029 1637 2049 2436 2614 2915 2258 2983 2265 2039 1404 1099 1519 1917 2305 2635 3006 3050 3031 3322 3690 3350 2962 2500 3222 2920 2675 1846 507 387 747 990 819 916 199 253 183 177
1127 1393 1056 993 862 1081 1785 2124 2741 2717 3026 2931 2407 3322 2186 2018 1176 1183 1735 2144 2801 2708 3467 3234 3162 3598 3343 3478 2953 3417 3512 3115 2751 1686 1046 499 329 569 520 654 326 343 502
1107 1499 1408 1126 982 1149 1587 1938 2957 2912 2852 3025 2472 2288 3456 2133 2829 2925 1071 1518 1638 2388 2802 3464 3419 3040 3172 3412 3647 3457 3754 3250 2900 2126 1641 1232 1240 904 769 364 448 386 334
791 1417 1630 1382 1159 1144 1452 1786 2778 2930 3018 2964 3079 2446 3268 2685 1733 3106 1533 1198 1643 1714 2952 2781 3180 3075 2954 3206 3919 3747 3302 3148 2792 2949 1914 1322 1352 952 693 576 878 319 310
541 1258 1650 1638 1385 1177 1438 1725 2405 2944 3179 2854 3391 3291 2441 3351 2558 2353 2794 2568 1997 2227 3502 2905 3130 2856 3265 3519 3810 2997 3453 3547 2871 2497 2505 1738 1112 1104 920 852 607 670 534
488 1099 1527 1832 1648 1366 1431 1651 2315 2792 3214 3325 3138 3296 2841 3051 3165 2680 2955 2248 2984 2420 3742 3135 3026 3194 3068 3677 3509 3338 3479 3261 2893 2218 1978 1807 678 652 1091 757 781 577 474
479 903 1572 1742 2009 1682 1658 1679 1931 2804 3220 3281 3249 3218 3330 2828 2931 3051 3115 3763 2763 4141 2962 3801 3214 3270 3295 3313 3603 3117 3012 3577 3044 2101 2192 1728 1389 1471 1024 774 807 903 714
678 830 1351 1683 2024 2091 1892 1960 2046 2469 3060 3534 3438 3144 3238 3512 3341 2906 3175 3483 4098 3182 4257 3687 3381 3411 3162 3294 3285 3316 2545 3323 3051 2514 1982 2011 1418 1654 1782 1770 890 744 1084
375 762 1238 1549 1964 2135 2174 2186 2189 2190 2971 3458 3411 3312 3204 3240 3475 3540 3052 3281 3422 3838 3286 3993 3906 3245 3180 3159 3273 3259 3226 2335 3197 3009 2522 2147 1706 1556 930 1165 1057 988 1143
486 831 1203 1556 1839 2127 2398 2398 2370 2383 2495 3178 3450 3287 3365 3370 3410 3546 3685 3265 3292 3454 3668 3533 3472 3818 3317 3249 3170 3286 3559 3216 2899 3257 3000 2712 2161 1534 1589 1231 917 1138 1079
708 1207 1324 1836 1941 2282 2506 2597 2530 2566 2528 2680 3203 3359 3372 3509 3516 3619 3684 3838 3592 3421 3551 3630 3611 3506 3697 3348 3228 3249 3515 3493 3051 2970 3348 3043 2723 2097 1607 1387 1531 786 972
103 188 537 695 1520 2498 2951 2569 2672 2821 2764 2758 2929 3185 3459 3485 3835 3680 3775 3856 3946 3837 3782 3820 3703 3687 3585 3298 2789 2957 3320 3556 3367 3272 3215 3204 2631 2170 1420 1268 1067 1302 734
0 0 38 327 1008 1472 3277 3287 3024 3098 3270 2998 3261 3311 3404 3565 3737 3989 3889 3846 4036 4051 4029 4011 3966 3710 3695 3135 2018 1778 3129 3227 3283 3241 3261 3317 3020 2484 1943 696 758 696 888
0 128 0 45 1038 393 475 2111 3412 3495 3310 3880 3601 3805 3862 3686 3922 4064 4098 4124 4050 4163 4119 4174 4101 4021 3862 3240 1315 1017 2542 3087 3145 3203 3198 3254 3169 2931 2687 1847 937 806 611
29 59 0 2 1426 842 974 1605 2066 3730 3726 3464 3920 3696 4044 4027 4027 4135 4153 4213 4279 4213 4311 4243 4271 4191 4029 3010 1523 306 2232 2718 2922 3162 3299 3212 3243 3087 1898 2513 1770 1139 1046
988 1357 913 936 220 2046 406 2494 2214 2862 3636 3597 3435 3858 3783 3952 4068 4190 4341 4359 4363 4351 4304 4316 4274 4146 4196 3774 1228 325 2746 2633 2628 2809 3221 2564 3060 3035 1073 2275 2488 1924 1406
1161 1385 1338 1268 2281 2246 1988 2875 2217 2348 3089 3601 3745 3984 4023 3890 4093 4250 4448 4497 4487 4446 4425 4358 4341 4339 4179 4138 2156 89 3016 3165 2803 2656 2797 3012 1689 1723 648 1019 2540 2447 2220
1463 1188 1486 1656 1681 2692 2540 2944 3880 3984 4151 4223 4064 4173 4513 3956 3938 4406 4510 4536 4527 4507 4445 4402 4376 4387 4323 3583 3446 110 239 2970 3198 2949 2673 2775 2673 493 115 0 2010 2330 2128
1962 1574 1265 1618 1906 1987 3187 3042 4783 5096 4868 5087 4912 4472 4704 4525 4143 4588 4486 4512 4599 4527 4504 4405 4385 4308 4211 4499 3717 1741 0 2 1076 3224 3060 855 1614 817 0 24 589 495 1660
2249 3052 3147 3420 3637 2642 3000 4366 4350 4436 5079 5233 5322 4947 4843 4661 4528 4171 4448 4330 4357 4512 4555 4458 4334 4167 4380 4427 4109 2282 22 0 81 1096 1796 2406 674 9 574 149 4 1334 2043
2659 2816 3385 4009 4061 4454 4187 4045 4478 4801 4646 4830 4986 5113 4685 4587 4739 4590 3995 4478 4403 4237 4382 4386 4083 3908 4200 2952 360 1432 3379 1812 1200 1868 2515 2557 2222 2408 778 399 665 1441 1819
2396 2882 2941 2690 2405 2288 2360 2679 2771 3849 4822 4644 4244 4059 3859 4121 4327 4563 4501 2899 2584 738 12 6 908 2988 322 0 29 1004 1561 1051 1380 819 2406 2539 2011 1436 1201 587 860 1208 1160

GFSMW_con_sbcape_039.txt.gz
CAPE
340 425 518 413 311 349 249 114 406 476 272 1017 738 997 464 635 583 347 1123 1297 1388 1588 1482 1400 860 1218 880 986 977 386 458 96 0 0 24 9 10 23 31 30 104 148 52
401 356 91 198 370 472 499 331 745 807 483 806 485 673 907 575 681 314 1314 1479 1556 1623 1505 1425 902 1308 1081 1234 1089 800 510 360 0 58 33 8 4 4 10 11 61 43 3
442 361 170 95 373 522 478 595 553 1072 710 786 811 903 962 592 690 391 312 1484 1333 1878 1638 1388 1425 1333 584 957 1151 893 917 0 0 41 104 12 1 1 13 2 0 6 0
343 390 254 182 203 659 599 486 725 1496 986 1030 1079 915 762 841 766 266 184 784 1224 1399 1761 1533 1312 1496 1275 999 998 1146 903 24 0 0 26 93 48 0 0 0 0 0 0
245 404 319 316 179 524 755 608 712 1254 1376 1187 1078 1210 1023 833 304 242 223 751 728 1196 2109 1615 1771 1537 1640 1064 1063 1748 796 618 145 0 0 0 0 0 0 1 1 0 0
308 323 396 308 266 583 818 864 765 956 1372 1283 1413 1050 1182 618 737 229 182 1083 1036 1380 1892 1865 1816 1673 1712 1396 1420 1648 1196 945 1165 67 16 0 0 0 0 9 5 0 0
428 331 446 290 328 587 648 1032 996 998 1538 1254 1035 1527 1093 982 566 478 316 818 1672 1518 1886 1935 1804 1889 1982 1977 1399 1851 1956 1378 1240 951 37 97 0 44 0 0 0 0 0
408 456 426 356 343 347 740 1231 1255 1279 1570 1762 1188 870 1634 1356 852 1380 491 539 1023 1479 1412 2179 1738 1820 1744 1788 1986 1944 2028 1751 1209 1553 606 37 142 16 0 0 0 0 0
654 633 452 441 315 402 1003 1112 1591 1384 1550 1813 1752 1191 1104 2149 1035 571 1514 177 693 938 1582 1818 2276 1813 1672 1633 1953 2234 1915 2016 1613 1061 1316 584 79 129 25 0 0 0 0
654 906 612 540 400 386 872 1201 1753 1711 1710 1722 1912 1811 1185 1101 1967 795 738 1723 369 670 1498 1789 2030 1960 1871 1881 1998 2362 2323 1986 1877 1403 1209 1045 424 81 64 40 4 0 0
656 1094 919 725 572 462 789 1059 1466 1942 1930 1911 1747 1990 1760 1194 1673 1765 888 1785 1247 1544 1292 1985 1990 1950 2072 2269 2191 2038 2032 2376 2083 1603 1317 1024 667 108 64 80 56 32 0
252 1197 1152 998 817 606 745 984 1191 1905 2023 2129 1903 1961 2179 1944 1383 1942 1999 920 2179 1376 2290 2362 2105 2232 2044 1965 2499 2105 2202 1898 2171 1819 1128 1099 809 420 268 641 45 27 89
324 1125 1346 1251 1054 814 717 913 1120 1583 2009 2243 2302 2143 2105 2313 1764 1721 1830 2283 1340 2483 1604 2625 2359 2292 2343 2310 2140 2347 2194 1894 2211 2018 1391 973 967 663 323 417 514 266 27
352 1081 1235 1417 1336 1093 925 920 1008 1362 2007 2201 2408 2472 2415 2370 2479 2056 1801 1581 2359 2107 2929 1882 2572 2400 2395 2291 2408 2355 2397 2268 1796 2204 1942 1549 1198 987 653 352 297 282 342
467 745 1164 1235 1510 1425 1197 1178 1121 1267 1572 2292 2541 2585 2595 2398 2379 2393 2442 2282 1774 2504 2237 2630 2337 2679 2389 2462 2327 2448 2418 2419 2405 1831 2375 2114 1728 1276 844 724 371 210 313
172 212 690 1191 1452 1656 1564 1475 1457 1439 1479 2083 2418 2680 2593 2580 2393 2449 2404 2671 2650 2106 2395 2411 2449 2699 2803 2646 2131 2372 2478 2486 2570 2560 1928 2513 2077 1597 947 744 698 563 159
0 0 0 142 1259 1764 1753 1781 1830 1667 1723 1721 2223 2525 2688 2571 2624 2520 2701 2672 2871 2924 2590 2428 2722 2624 2755 2617 1522 1608 2505 2495 2633 2664 2586 2087 2441 2040 1998 581 596 455 559
0 0 0 0 1 707 2040 1887 1897 2067 1931 1926 1960 2211 2588 2785 2698 2789 2677 2911 2930 3055 3158 3066 2815 3012 2923 2672 1321 837 2349 2568 2540 2835 2791 2689 2534 2458 2345 2216 1162 957 667
537 607 463 287 284 42 80 2302 2142 2302 2495 2216 2236 2270 2694 2751 2922 2871 3049 3026 3041 3122 3172 3367 3307 3211 3206 2426 1459 312 2010 2607 2649 2689 2765 2896 2814 2649 1801 2434 2051 1449 1114
652 768 635 436 432 713 586 1865 2660 2498 2654 2775 2947 2800 2789 2942 2886 3019 3038 3198 3292 3237 3279 3277 3496 3388 3413 3155 1049 317 2308 2598 2645 2615 2562 2303 2582 2703 1311 2061 2478 1958 1511
979 960 776 745 879 568 497 1025 1151 2721 2660 2461 2666 3266 3374 3301 3259 3153 3267 3384 3513 3548 3525 3557 3553 3695 3557 3464 1831 165 2329 2896 2846 2693 2564 2493 2102 1030 1072 443 2604 2456 2042
1025 1412 1210 736 608 405 1106 852 677 1973 2367 2703 2894 2888 3106 3132 3323 3432 3589 3731 3770 3800 3744 3773 3780 3722 3678 3398 2825 361 209 2798 3036 3108 2925 2585 2274 1520 421 0 1039 1480 1562
73 1546 2280 2505 2624 1060 1306 1282 2943 3063 3693 2914 3026 3132 3347 3342 2702 3629 3607 4038 3984 4053 3999 3937 3934 3888 3769 3669 3525 2063 90 19 1554 3221 3235 3050 2685 1513 18 0 117 23 1258
158 1217 1972 2683 3432 3227 3098 3090 3460 3146 2450 3343 4218 3570 3730 4078 3318 3831 3813 3944 4125 4050 3983 3950 3924 3765 3591 3603 3589 2581 89 1 1 1202 1800 1931 1798 2185 926 86 0 58 1648
155 663 1228 2025 2575 2577 2431 2325 2289 2737 3756 2723 4587 4195 4165 4109 3984 3445 3964 3795 3729 3851 3950 3934 3786 3717 3720 2486 349 405 1616 801 363 780 1471 2394 2478 2125 1968 798 702 84 527
41 424 875 1547 1924 2185 1682 1275 1287 1872 2793 3808 4379 4452 3988 3947 4103 4158 2572 0 80 0 1 7 2255 0 0 1 2 2 0 0 1 30 1045 1872 2394 2659 2518 2404 1905 563 482

GFSMW_con_sbcape_042.txt.gz
CAPE
225 152 181 86 103 79 40 11 0 298 225 340 245 43 20 38 200 174 368 434 711 1039 1078 910 899 851 802 709 70 70 45 5 0 9 4 0 9 11 36 52 39 38 37
302 187 130 84 93 96 71 30 0 51 290 180 235 211 24 31 172 5 451 609 822 1073 975 865 618 679 809 666 584 269 101 3 0 21 0 0 0 0 2 27 33 13 17
391 268 228 156 95 110 104 56 21 0 35 231 68 303 442 227 272 109 519 754 926 1131 1091 913 724 775 590 701 620 467 65 0 0 1 0 0 0 0 0 0 11 16 7
411 319 324 301 202 147 88 77 123 87 33 284 130 278 433 730 369 174 2 814 917 1139 1202 969 911 1080 531 380 641 540 355 0 0 0 1 4 0 0 0 0 0 0 0
413 278 346 359 332 216 194 101 383 228 194 449 277 177 210 360 279 113 21 400 786 950 1152 1117 923 895 1018 580 506 989 622 0 0 0 0 0 0 0 0 0 0 0 0
401 325 216 102 350 353 301 200 594 444 373 519 424 338 256 305 260 133 3 58 450 583 1117 1175 1047 1123 1092 968 563 891 554 551 0 0 0 0 0 0 0 0 0 0 0
341 379 217 106 284 419 337 330 395 806 619 547 643 522 489 384 389 88 7 58 398 395 889 1511 1084 1174 1162 880 755 988 953 374 734 116 0 0 0 0 0 0 0 0 0
306 333 323 180 128 521 498 370 399 574 912 734 621 628 551 651 443 179 1 7 481 588 744 1391 1368 1331 1185 1204 992 971 1358 812 663 631 35 8 64 0 0 0 0 0 0
410 296 374 253 218 423 622 575 416 391 876 933 858 878 835 712 739 351 200 0 315 1024 830 1340 1382 1316 1250 1292 1336 1172 1172 1444 723 485 828 97 10 24 26 0 0 0 0
480 348 337 328 304 379 579 710 604 464 593 1057 853 672 769 1435 968 543 488 777 24 823 1081 1113 1739 1394 1288 1099 1215 1765 1369 1481 1276 894 480 607 322 39 21 10 0 0 0
529 424 334 419 354 335 589 834 809 702 779 951 1203 1038 687 604 1441 936 229 365 735 86 755 1171 1445 1728 1483 1226 1109 1348 1875 1372 1522 1459 994 630 420 263 20 0 0 0 0
625 520 411 492 414 364 638 722 1108 969 996 1113 1293 1386 1249 828 628 1462 828 397 536 773 101 1267 1341 1671 1679 1463 1406 1325 1745 1992 1626 1563 1323 1109 769 498 125 0 36 0 0
688 607 537 495 485 369 518 940 1081 1312 1240 1291 1320 1447 1538 1382 990 764 1581 1113 629 856 1032 1420 1449 1639 1640 1709 1729 1572 1575 1618 1825 1726 1460 1387 963 894 521 70 65 133 0
647 815 712 599 559 397 466 804 1048 1588 1589 1601 1598 1458 1648 1776 1598 1138 949 1760 1369 636 1198 1692 1803 1803 1785 1682 1739 1984 1913 1696 1613 1691 1680 1501 1077 1121 727 284 124 61 168
588 997 879 776 700 522 436 720 916 1305 1731 1804 1824 1771 1601 1821 2015 1758 1361 1269 1619 1816 1015 1593 1837 2000 1952 2014 1905 1739 1829 2027 1904 1589 1906 1832 1418 1116 940 728 411 54 46
597 1127 1024 956 871 696 557 711 830 1144 1569 1827 1943 1952 2017 1886 1949 2146 1965 1552 1431 1337 1974 1762 1984 1969 2266 2211 1836 2011 2049 1929 1910 1917 1750 1728 1710 1211 669 467 692 352 172
513 1135 1141 1083 1096 942 773 722 834 959 1526 1764 1854 2107 2117 2280 2193 2172 2219 2226 1964 1668 1287 1741 2091 2079 2247 2243 1308 1149 2055 2123 2089 2035 2006 2011 1933 1734 1764 380 159 222 162
0 0 156 673 1150 1227 1066 938 910 984 1108 1521 1992 2081 2392 2358 2397 2237 2198 2191 2310 2381 2144 1690 1809 2182 2143 2125 953 562 1853 2164 2150 2199 2191 2182 2213 1981 2041 2176 1369 634 618
59 52 73 15 45 1315 1488 1385 1299 1299 1269 1337 1448 2209 2347 2597 2463 2437 2292 2332 2376 2393 2570 2570 2363 2014 2140 1967 906 195 1514 2095 2395 2383 2304 2407 2441 2366 1374 2027 2273 1969 1402
366 112 60 48 67 248 116 1628 1698 1741 1621 1575 1654 1661 2324 2515 2624 2528 2546 2505 2522 2659 2625 2666 2805 2771 2661 2337 857 105 1953 2167 2308 2533 2606 2057 2221 2618 1548 1351 2152 2288 2325
983 1233 1103 576 99 126 211 1463 1695 1935 2029 1967 1765 1808 1811 2387 2553 2671 2653 2680 2762 2666 2709 2798 2806 2899 2836 2943 1034 41 2115 2582 2604 2597 2655 2670 2173 782 1067 464 2400 2451 2500
589 1172 2479 2536 1805 369 313 95 882 1393 1929 1855 2215 2208 2293 2242 2507 2538 2658 2722 2709 2910 2949 2871 2954 3001 2961 2872 1529 132 268 2641 2887 3030 2948 2840 2629 1697 394 0 618 1251 885
9 530 1288 2235 2371 2228 2145 2407 2453 2068 2174 2228 2275 2416 2498 2622 2656 2665 2652 2801 2893 2975 3122 3193 3226 3291 3296 3149 2599 658 0 38 1633 3073 3228 3164 2762 1650 21 0 10 0 747
0 120 830 1102 1691 1909 1826 1725 1636 1854 2655 1513 2877 2229 2415 2509 2378 2962 3023 3120 3279 3345 3350 3444 3498 3515 3441 3272 3114 752 12 1 1 281 1365 1668 1726 1399 1260 632 58 0 365
0 46 239 553 883 1643 1189 932 851 1032 1567 2208 2446 3127 2836 2472 2540 1445 1617 3189 3531 3650 3728 3690 3759 3751 3664 2944 1750 2040 1872 776 312 582 728 1099 1604 2172 2223 2203 1565 1142 83
0 4 58 111 438 1141 934 803 744 1149 1616 1722 2208 3272 3294 2993 2896 442 1 1 0 28 1175 1967 2654 0 244 2 1 0 0 1 1 1 561 918 1110 1476 1870 2299 2479 2434 1490

GFSMW_con_sbcape_045.txt.gz
CAPE
146 85 138 108 0 0 0 0 0 11 6 60 13 0 0 23 184 193 341 364 677 893 568 273 235 537 314 373 24 31 0 0 0 3 1 0 0 0 33 39 40 59 21
152 110 79 98 22 0 0 0 0 0 62 24 140 0 0 0 40 37 220 264 441 857 824 637 607 577 455 308 210 20 13 0 0 1 0 0 0 0 0 27 44 32 16
168 124 106 104 23 0 0 0 0 0 120 30 0 45 17 0 10 9 230 267 479 809 784 647 359 492 419 454 245 124 0 0 0 0 0 0 0 0 0 0 13 16 9
203 146 129 107 98 0 0 0 0 0 38 2 11 89 35 4 0 0 3 407 556 732 854 613 398 501 326 151 319 158 20 0 0 0 1 0 0 0 0 0 0 0 0
248 198 142 109 120 28 2 0 0 0 0 2 10 5 0 0 15 0 0 311 516 685 935 751 580 699 624 256 315 276 113 0 0 0 0 0 0 0 0 0 0 0 0
399 303 210 163 153 100 43 4 0 0 0 3 4 0 0 20 151 78 0 5 414 496 776 854 619 522 654 591 259 339 232 9 0 0 0 0 0 0 0 0 0 0 0
484 392 296 251 268 163 110 27 17 12 3 1 39 0 0 1 82 59 1 0 80 227 544 795 726 652 660 715 454 346 602 264 25 0 0 0 0 0 0 0 0 0 0
426 475 311 292 293 296 164 55 67 72 29 58 95 65 16 0 10 30 1 0 5 170 404 742 798 702 789 784 450 480 663 242 382 185 0 0 0 0 0 0 0 0 0
75 182 433 249 210 335 264 162 70 168 128 130 167 171 102 103 69 23 0 0 0 109 162 432 1048 1005 902 907 725 544 750 965 370 308 228 11 0 4 0 0 0 0 0
59 84 314 255 145 341 337 274 153 223 281 233 247 311 272 264 237 104 0 0 0 246 402 480 663 900 1080 919 919 773 701 929 962 493 209 330 156 2 0 3 0 0 0
92 56 164 286 197 345 460 302 255 209 301 433 380 404 425 411 404 378 156 204 0 101 609 577 856 970 983 878 867 1120 1172 934 1096 1087 799 420 177 243 30 0 0 0 0
174 110 161 254 266 193 422 456 303 236 221 484 519 520 572 680 826 627 243 144 455 0 233 690 798 1140 1174 992 938 915 1265 1417 1213 1263 1234 1123 802 315 67 0 0 0 0
100 179 268 216 316 264 211 463 483 361 244 340 618 613 544 455 674 1253 1052 286 147 276 127 376 825 986 1249 1254 1033 1028 995 1283 1560 1412 1337 1465 1211 1058 602 126 20 0 0
19 251 358 285 347 307 200 381 586 535 450 474 555 816 886 812 556 494 960 1202 599 371 419 465 723 985 1160 1328 1340 1291 1213 1170 1366 1614 1581 1564 1333 1389 1241 604 238 6 0
75 263 374 303 348 298 221 450 555 802 695 729 792 903 1126 1143 1063 788 586 915 1288 985 698 741 1051 1124 1168 1315 1375 1482 1462 1336 1292 1304 1433 1561 1566 1309 1327 1235 840 113 9
243 382 454 386 378 347 283 404 694 989 1038 981 1012 1048 1096 1315 1361 1277 1088 732 1058 1444 1043 823 929 1328 1508 1626 1307 1430 1527 1609 1607 1542 1412 1511 1463 1194 754 700 1029 870 505
214 435 425 422 415 403 336 457 793 1021 1363 1353 1343 1361 1322 1347 1541 1636 1564 1256 1027 1091 1511 1480 1115 1201 1363 1549 1075 863 1629 1548 1526 1594 1604 1637 1639 1419 1627 561 84 85 120
111 403 561 554 494 492 415 447 718 909 1419 1592 1653 1671 1712 1617 1547 1717 1903 1817 1519 1344 1237 1235 1565 1628 1642 1580 507 486 1434 1872 1840 1760 1712 1716 1756 1734 1587 1655 1597 638 641
0 9 377 502 568 610 529 532 736 924 1156 1461 1701 1828 1889 1934 1978 1878 1891 2000 2063 1951 1713 1550 1237 1227 1638 1373 867 86 1204 1709 1922 1959 1914 1970 1980 1915 1390 1556 1836 1881 1864
1106 89 0 242 797 776 687 683 774 850 1004 1371 1653 1758 1933 2085 2110 2222 2141 2089 2123 2174 2254 2272 2138 1670 1476 1526 422 27 1571 1785 1876 2026 2148 1830 1845 2104 1560 1159 1820 1956 2052
808 1923 1297 183 30 151 987 1016 1010 1020 1082 1068 1104 1573 1969 2167 2277 2216 2231 2197 2174 2235 2240 2262 2321 2369 2083 2091 583 3 1564 1973 2053 2130 2247 2325 2167 1051 833 513 2240 2359 2374
127 800 1814 1706 1142 75 649 903 1270 1315 1432 1390 1207 1281 1524 2089 2238 2381 2316 2316 2343 2321 2349 2389 2421 2448 2512 2222 1144 30 82 1973 2300 2475 2572 2577 2480 1714 419 0 434 935 577
0 140 540 1361 1498 1471 1552 1671 1770 2170 1621 1666 1645 1465 1543 1582 2044 2323 2440 2418 2384 2505 2535 2541 2528 2530 2548 2504 2083 448 0 5 1346 2684 2957 2979 2621 1507 23 0 0 0 104
0 0 63 405 1072 906 779 693 774 1248 1892 1997 1830 1852 2125 2058 1969 2219 2278 2404 2534 2548 2589 2673 2819 2783 2708 2874 2360 355 43 7 1 372 1311 1383 1492 1616 1631 857 302 0 2
0 0 0 6 328 651 453 514 947 1120 1370 1672 1758 2110 2079 1637 2030 980 1292 2216 2548 2443 2757 2838 2937 2991 3016 3040 3128 3109 1918 1162 851 1027 733 1062 1368 1631 1830 1938 1804 1628 669
0 0 0 7 137 429 459 629 1104 1206 1022 1135 1046 946 2223 2281 1589 14 1 0 1 2 146 1131 3214 11 421 841 357 160 204 460 148 387 851 906 807 929 1003 1118 1293 1489 1463

GFSMW_con_sbcape_048.txt.gz
CAPE
33 37 35 0 0 0 0 0 0 0 0 0 0 0 0 0 52 72 403 419 557 930 275 348 336 738 521 594 143 59 20 12 9 17 7 0 1 44 54 36 41 80 164
42 42 39 1 0 0 0 0 0 0 0 0 0 0 0 0 28 48 235 377 603 1035 714 393 540 764 583 186 138 70 73 2 0 7 1 5 6 4 6 37 94 79 77
63 61 39 46 0 0 0 0 0 0 0 0 0 0 0 0 7 5 78 208 441 931 943 672 603 601 283 323 364 165 14 0 8 2 0 0 0 0 0 2 44 82 64
94 87 60 45 15 0 0 0 0 0 0 0 0 24 3 17 0 4 6 174 380 596 845 746 444 591 363 524 525 247 0 0 0 0 6 0 0 0 10 0 0 1 38
106 104 98 68 39 0 0 0 0 0 0 0 0 0 15 0 0 0 0 84 279 472 876 787 562 569 669 359 448 416 138 0 0 0 0 0 0 0 0 0 0 0 0
122 110 87 88 58 27 0 0 0 0 0 0 0 0 0 0 0 0 0 3 211 393 665 919 664 588 814 716 355 504 214 3 0 0 0 0 0 0 0 0 0 0 0
131 119 108 92 89 60 0 0 0 0 0 0 0 0 0 0 0 0 0 0 18 268 461 724 717 619 623 840 631 520 604 299 2 0 0 0 0 0 0 0 0 0 0
230 184 155 137 111 95 51 12 0 0 0 0 0 0 0 0 0 0 0 0 0 130 424 570 796 763 794 784 729 616 666 531 553 240 0 5 0 0 0 0 0 10 0
143 344 311 205 155 132 84 47 23 0 0 0 0 0 0 0 0 0 0 0 0 42 255 513 844 827 854 918 810 688 795 994 561 628 450 56 16 1 0 0 0 17 31
60 135 347 276 229 178 151 62 35 4 4 0 0 0 0 0 0 0 0 0 0 41 165 304 732 951 991 969 941 902 728 1017 1132 756 515 480 264 22 14 9 0 0 0
111 150 295 370 245 230 220 98 45 30 34 42 55 72 66 41 44 17 8 0 0 0 180 315 486 671 944 1089 1104 1193 1122 974 1125 1146 935 695 360 516 204 0 1 0 0
165 91 92 156 267 187 236 245 89 47 78 108 131 149 161 166 152 150 74 40 0 0 211 435 539 781 883 1011 1112 1255 1489 1336 1284 1306 1288 1393 917 689 487 174 63 1 0
104 123 100 70 236 133 173 271 219 143 133 222 222 208 253 300 301 300 273 196 233 12 61 398 614 758 1071 1170 1106 1228 1329 1582 1668 1610 1602 1686 1485 1567 1120 740 429 31 1
20 78 89 55 133 211 205 362 318 267 210 271 419 377 383 414 479 519 523 260 251 394 238 245 548 762 960 1258 1343 1307 1315 1308 1510 1687 1724 1732 1767 1781 1782 1346 1249 1011 375
0 7 67 90 120 275 193 426 422 348 282 285 506 556 515 491 518 687 973 957 370 301 453 443 486 760 979 1144 1435 1526 1492 1481 1471 1533 1699 1816 1699 1452 1579 1774 1673 1351 1017
0 0 22 118 175 285 296 380 535 513 395 338 428 621 670 636 565 459 470 923 1137 878 724 624 702 713 837 832 870 1277 1633 1659 1613 1590 1569 1671 1272 1151 847 638 1050 1510 1234
0 0 0 107 212 295 321 328 536 645 595 509 504 605 797 932 918 850 679 568 710 1144 1144 993 923 1030 1194 907 423 451 1518 1674 1748 1771 1773 1729 1641 1282 1771 810 248 202 163
70 0 52 196 234 312 308 303 513 807 783 704 779 864 949 1097 1169 1212 1185 1062 831 812 1227 1332 1122 975 1036 885 190 158 1210 1658 1773 1777 1850 1899 1970 1906 1778 1917 1993 1689 1313
651 0 72 142 225 319 300 357 658 832 1061 1050 1092 1158 1208 1205 1307 1461 1521 1490 1376 1196 1075 1213 1500 1542 1361 702 172 0 1188 1622 1798 1952 1980 1955 2017 1872 1202 1786 2048 2144 2131
763 291 186 162 186 240 251 446 719 954 1334 1390 1449 1530 1555 1522 1471 1489 1630 1781 1839 1735 1615 1578 1481 1300 1591 1388 147 4 1312 1543 1742 1969 2063 1553 1697 1941 1294 1317 2120 2265 2398
355 1055 188 270 330 310 316 536 690 930 1128 1380 1598 1707 1785 1809 1814 1788 1788 1859 1983 2098 2157 2135 2046 1948 1433 1512 448 0 1421 1869 1988 2002 2043 2193 1835 925 550 284 2123 2272 2282
30 315 1292 1245 420 294 502 600 702 742 814 1088 1412 1684 1793 1976 2028 2093 2225 2227 2163 2204 2257 2281 2351 2422 2445 1581 1017 11 40 1471 1960 2185 2302 2384 2078 1555 459 0 128 625 326
0 19 380 776 781 1164 1601 1761 1744 1465 1152 945 1122 1344 1779 1969 2224 2292 2265 2338 2351 2365 2385 2428 2473 2520 2512 2537 1178 254 0 1 858 2227 2368 2382 2268 1872 44 0 0 0 0
0 0 9 182 403 329 522 704 1050 1727 1619 1608 1405 1237 1285 1613 2117 2342 2419 2435 2498 2545 2573 2551 2567 2563 2609 2706 2494 929 147 1 1 30 897 1190 1363 1444 1512 951 371 1 5
0 0 0 34 188 279 468 857 1122 1207 1383 1505 1823 1939 1910 1483 1759 1343 1377 2435 2575 2187 2610 2668 2729 2867 2876 2773 2776 2465 2191 1951 1402 1046 1040 1173 1450 1718 1788 1815 1704 1715 1162
0 0 0 0 126 239 342 536 791 857 913 1054 1066 888 2060 1589 1962 62 0 0 1 2 2 336 2629 451 859 2298 2539 2199 1614 1318 1201 864 1503 1448 1330 1108 856 679 369 188 0

GFSMW_con_sbcape_051.txt.gz
CAPE
0 0 69 197 533 659 603 579 617 658 446 354 331 381 339 508 784 1020 1254 1480 1441 1483 1859 1523 1740 1602 2492 2159 1316 828 610 106 178 160 120 38 44 358 343 493 386 332 427
0 0 65 111 269 582 628 646 590 644 576 332 718 474 797 835 1157 1321 1375 1596 1524 1881 1948 1691 1521 1999 1729 1723 1488 1287 246 95 108 136 95 81 60 84 204 462 539 658 555
0 4 12 118 187 362 492 569 660 652 703 716 631 664 835 827 970 1265 1400 1574 1665 1955 2192 1907 1610 1991 2365 1600 1741 1342 939 62 172 256 78 53 38 68 114 388 605 848 811
16 22 69 86 108 336 330 474 702 736 620 773 772 1210 754 718 863 1204 1391 1629 1722 1829 2252 2335 2001 2006 1879 1970 1846 1561 1048 322 188 229 309 51 159 26 54 206 369 622 770
136 98 182 199 172 181 212 246 703 1058 1070 929 1157 879 1097 797 915 875 1457 1751 1847 1778 1746 2132 2042 1873 1938 2148 1854 2023 1831 563 135 211 615 722 54 25 68 25 155 351 479
280 275 251 225 299 308 128 109 696 971 1121 1039 1153 1580 1663 1264 848 955 893 1082 1325 1529 1713 1831 2046 2030 1872 2120 1975 1991 1906 1154 124 156 566 437 369 170 55 29 201 190 289
502 374 357 323 405 633 423 402 553 805 949 998 1187 1353 1601 1784 1515 1241 827 994 934 1274 1573 1943 2116 1999 2223 2181 2224 2257 2021 1661 1091 530 41 139 223 199 213 187 201 258 382
571 510 422 493 752 680 773 566 621 762 814 928 1226 1395 1541 777 750 1190 667 650 588 860 1497 1915 1973 2096 2188 2154 2288 2166 2146 1996 1706 1641 874 361 208 106 182 214 282 362 525
650 580 511 627 765 809 855 795 888 842 829 527 1108 1297 1382 1357 953 1403 1268 723 1169 522 1140 1654 1832 1971 2100 2222 2355 2164 2392 2359 2324 2102 2149 1495 903 562 269 254 293 404 468
745 699 613 649 837 674 860 832 905 895 873 841 980 983 1201 1331 1347 1374 1397 1386 915 812 728 1534 1738 1935 2022 2243 2448 2074 2382 2531 2260 2063 2271 2236 1678 1248 877 741 520 422 473
750 809 864 849 805 661 812 886 869 995 974 883 932 1083 955 838 818 962 1147 1481 1093 1110 1319 1616 1732 1880 1999 2127 2374 2297 2240 2570 2585 2414 2408 2498 2390 1837 1420 1108 893 757 630
620 731 802 886 844 1028 939 809 897 698 934 976 1033 1031 1227 1144 922 1278 1048 1384 1617 1178 1343 1585 1801 1824 1815 1941 2171 2100 1746 2352 2660 2673 2562 2432 2271 2454 2310 1824 1754 1435 1198
318 522 422 812 1002 1040 1216 999 878 692 667 996 736 981 1161 1067 1327 1413 1281 1465 1369 1387 1139 1281 1846 1880 1825 1884 1982 2051 2156 2239 2399 2734 2775 2673 2568 2655 2367 2571 2259 2016 1773
157 405 398 1006 1320 1350 1399 1333 1133 898 808 801 871 1216 1301 1337 1313 1579 1687 1313 1766 1685 1415 1502 1846 1845 1873 1920 2017 2095 2239 2372 2344 2611 2798 2818 2829 2876 2933 2864 2859 2683 2515
0 166 517 936 1083 1471 1472 1483 1462 1346 1070 1240 1224 1322 1465 1533 1624 1760 1860 1745 1853 1860 1913 1686 1698 1662 1594 1449 1881 2081 2251 2418 2510 2547 2709 2726 2571 2245 2504 2719 3478 3196 2600
233 79 5 670 899 1136 1421 1374 1516 1476 1412 1440 1451 1579 1708 1748 1815 1917 2037 2122 1916 1880 2212 2004 1807 1683 1381 787 861 1642 2185 2537 2620 2625 2668 2748 2004 1756 1114 776 1067 1935 3444
136 483 313 3 908 823 1364 1328 1523 1584 1593 1607 1712 1926 1965 1944 1981 2063 2225 2349 2318 1986 2177 1857 1859 2136 2258 984 401 504 1910 2420 2667 2869 2738 2516 2092 2000 2524 1690 311 207 164
22 292 693 48 242 540 733 1249 1394 1726 1708 1748 1828 2053 2135 2092 2142 2158 2215 2351 2201 2504 2314 2099 2301 2352 2322 1333 221 1 1386 2524 2941 2990 2843 3018 3137 2913 2575 2784 2840 2967 3016
3 530 967 215 418 1039 1321 1483 1695 1793 1788 1837 1917 2009 2154 2224 2304 2311 2302 2160 1958 1984 2247 2243 2354 2493 2550 1062 390 5 1705 2048 2845 2948 2897 3081 3161 2612 2101 2544 2965 3361 3366
146 954 624 253 803 1388 1362 1505 1460 1855 1934 1967 2040 2061 2124 2293 2457 2539 2643 2674 2358 2247 1798 1894 2485 2144 2732 1733 54 2 1582 2146 1964 2753 3054 1947 1891 2227 1634 2210 2606 3299 2937
257 1305 839 1146 1556 1574 1313 1773 1813 2119 1873 1802 1782 2126 2425 2515 2649 2875 3017 2688 2599 2724 2538 2430 2746 2526 2311 2703 403 0 1655 1907 2098 2067 2066 2205 1449 1273 648 453 2935 3140 3052
331 875 1305 920 1142 1472 1737 2030 2160 2377 2584 2672 2625 2825 2869 2278 2219 3045 2884 2766 3030 2989 3026 2914 2802 2680 2689 1708 1178 0 52 1925 2606 2731 2731 2977 2205 1581 489 1 464 696 588
173 743 1247 1429 1694 1360 1469 1692 1918 2180 2566 2985 3177 3008 2944 2842 3300 3003 3052 2689 3046 2767 2879 2899 2931 2949 3013 3158 968 57 0 0 1377 2603 2600 2358 2022 1613 461 13 17 0 29
40 737 1236 1389 1571 1958 2198 2478 2530 2124 2157 2521 2855 2945 2868 2970 3134 2812 2861 2879 2933 2945 2940 3064 3096 3119 3217 3288 3366 2039 595 69 68 268 1468 2005 1722 1985 2324 1670 179 0 7
0 210 647 985 1132 1390 1530 1500 1944 2750 2460 2246 2161 2354 2406 2478 2872 3045 2564 2941 3404 2738 3146 3216 3287 3346 3425 3419 3154 3306 3333 2915 1966 1664 2104 2250 2388 2472 2500 2403 2095 1951 1144
0 0 0 190 797 878 639 657 784 990 1729 2285 2575 2463 2253 1674 2201 2884 941 0 0 2 3 434 2354 3356 1846 2336 2696 2523 2702 2184 1064 1788 2647 2822 2193 2144 2212 1967 1538 844 378

GFSMW_con_sbcape_054.txt.gz
CAPE
96 44 43 70 59 231 366 566 514 603 595 396 490 718 761 903 1126 1129 1484 1853 1729 1847 1544 1265 1354 945 918 1179 1453 1082 1179 221 265 75 84 159 305 450 328 226 107 339 339
103 73 140 116 123 391 492 617 718 773 803 234 485 508 704 809 1022 1345 1773 1988 1880 2106 1952 1734 1495 947 701 1201 1265 1155 436 273 250 103 64 65 24 40 116 194 272 340 325
148 62 156 138 130 371 611 744 976 1000 872 606 298 669 984 1252 1544 1664 1608 1971 2003 2082 2257 2187 1657 1473 1318 798 1054 1555 830 285 396 756 170 25 61 24 153 399 352 617 512
190 112 101 214 114 283 746 888 1183 1233 1002 920 773 1818 1114 886 742 1175 1017 1442 2094 2034 2194 2383 2129 1665 1131 1415 1077 1543 1023 931 177 370 142 634 551 132 332 207 302 438 470
138 147 117 317 253 197 370 902 1421 1868 1656 1598 1410 855 1469 438 566 802 1534 2013 2439 2205 1990 2446 2382 2220 1235 1428 1627 1639 1643 744 348 48 202 455 81 199 197 173 320 354 344
416 202 166 268 386 380 360 655 1604 2081 1803 1418 921 1853 1994 1421 672 1299 1208 1230 1286 1944 2255 2205 2503 2384 1637 1652 1668 1765 1867 1616 930 153 344 156 208 253 233 135 345 282 309
849 578 309 407 444 461 444 539 1531 1954 1752 1302 1121 1331 1664 1969 1649 1427 1150 1545 789 962 1675 2424 2601 2238 2602 2222 2663 2200 2207 2387 1312 1180 153 185 286 408 437 379 250 336 442
1011 916 749 558 687 672 604 625 1390 1898 1823 1483 1984 2288 2142 899 1091 1411 1015 879 701 730 1065 2180 2259 2417 2288 2268 2440 2225 1985 2255 1880 1959 1215 243 217 220 309 453 467 499 685
990 1087 1003 873 743 862 1382 1354 1877 1724 1807 1344 2274 2467 2399 2155 1349 2331 1429 1052 1678 671 887 1388 2090 2052 2212 2399 2406 2047 2478 2289 2424 2077 2070 1852 769 605 443 470 507 494 651
822 930 1158 1073 977 827 907 1002 1103 1717 1777 1378 1584 1587 1631 1946 2137 1705 2217 1819 1186 1396 975 1274 1554 1533 1876 2297 2596 2059 2320 2647 2268 2056 2175 2317 1181 1054 901 793 703 661 679
782 874 1084 1166 1118 974 901 1047 1066 1286 1379 1713 1855 1815 1557 1543 1598 1609 1686 1860 1745 1598 1840 1443 1324 1332 2032 2236 2527 2323 1999 2719 2805 2462 2209 2790 2833 1974 1160 1072 1033 923 853
447 837 953 1023 1172 1198 1051 1037 1057 1110 1217 1806 2303 2039 1999 2136 1537 1806 1743 1891 2036 1852 2000 1879 1676 1481 1745 2244 2561 2438 1748 2229 2552 2765 2759 2655 2249 2980 2818 1786 2006 1671 1780
131 543 792 1012 1113 1283 1286 1111 1092 971 1087 1657 1318 1465 1640 1693 2083 2065 1798 2264 2068 2110 1890 1964 2008 1816 1702 2145 2488 2555 2281 2099 2322 2538 2786 2777 2822 2859 2419 2308 1996 1928 2132
93 295 557 749 1239 1504 2101 2000 1289 1086 961 1190 1204 1793 1733 1943 1642 2490 2600 1989 2491 2303 2203 2187 2128 2028 1744 1668 2087 2251 2403 2313 2313 2545 2630 2950 3150 3269 3407 3374 3289 3204 3025
0 33 247 713 1587 1819 2328 2183 1470 1650 1424 2007 1303 1918 2499 2357 2522 2832 2882 2522 2678 2403 2339 2330 2297 2155 1883 1349 1933 1982 2053 2359 2442 2445 2792 2918 2861 2687 2980 3290 4365 4637 3382
126 72 38 512 945 1337 2046 2346 2486 2094 1913 2480 2211 2497 3033 2958 3031 3195 3335 3357 2964 2859 2836 2331 2397 2309 1819 917 735 1230 1805 2088 2498 2634 2751 2879 2356 2347 2082 1744 1666 1921 3779
242 343 526 361 221 1049 1546 1992 2805 2228 2427 2809 2718 2937 3208 3248 3326 3356 3522 3447 3442 3020 3289 2516 2573 2997 2769 1191 400 380 1493 1767 2534 3272 2738 2525 2030 2449 2938 1377 930 761 680
72 346 609 768 1072 249 743 1511 1902 2900 2961 3160 3001 3131 3359 3374 3521 3561 3626 3740 3143 3331 3155 2852 3299 3341 3097 1609 571 28 1631 2355 2703 2928 2838 3460 3227 2731 2233 2602 2760 2893 3153
103 263 525 917 1251 1373 461 1208 1656 2416 2828 3176 3210 3310 3397 3423 3277 3350 3426 3186 3262 3093 3081 2910 3235 3278 3548 1353 750 98 1755 1845 2887 2899 3182 3438 3570 2839 2340 2800 3272 3245 3174
344 548 1007 1426 1491 1592 379 772 1518 1976 2939 3039 3133 3308 3343 3499 3483 3479 3748 3763 3138 3210 2819 2876 3260 2690 3369 2436 267 200 1858 2354 1971 3056 3668 2210 2167 2468 1943 2798 2858 3418 2579
467 1167 1832 1733 1365 1150 419 1883 2113 2437 2639 2292 2351 2985 3432 3705 3670 3983 3942 3829 3220 3314 3397 3102 3539 3832 3151 3320 523 0 2278 1917 1931 1815 1613 1806 1082 1448 1082 951 3066 3041 2529
848 1662 1681 1485 970 1069 1292 2620 2924 2327 2708 2867 2823 3442 3586 2796 2714 4029 3548 3412 3586 3676 3872 3580 3206 2864 3067 2282 844 0 185 1869 2396 2268 1717 2317 1894 676 301 42 942 1353 1167
87 1399 1765 1715 1476 1453 1650 2000 3232 2931 3068 3171 3473 2887 2912 2864 3698 3727 3437 3262 3497 3266 3189 3171 3116 2977 2999 3352 1734 4 0 25 1470 2497 2469 1772 1367 1073 525 110 588 108 1962
0 25 1306 1632 2157 2468 2098 2214 2508 2594 2775 2905 3008 3071 3149 3081 2913 3033 3190 3109 3102 3157 3055 3163 3149 3172 3243 3418 3699 2368 330 44 176 932 1836 2451 2149 1983 2043 2489 1182 2245 2986
0 0 0 635 767 1058 1392 1565 2421 2616 2750 2934 3012 3213 3234 3162 3345 3454 2622 3242 3627 1721 3294 3203 3361 3467 3552 3577 3463 3679 4021 3332 2205 2368 2793 2943 2927 3080 3356 3563 3426 3603 2963
0 0 0 0 51 83 380 804 1609 1984 2945 2673 2684 2762 2834 3128 3204 3381 2501 0 1 3 71 53 1253 3614 2241 2644 2774 3028 2818 1764 2103 2666 3380 3204 3288 3369 3184 3292 3286 2858 2063

GFSMW_con_sbcape_057.txt.gz
CAPE
333 180 73 62 22 71 130 443 882 2151 1161 944 865 878 846 1219 1343 1684 1703 1930 2054 1544 1864 2089 1464 1478 1890 587 800 96 500 69 34 36 55 32 15 151 112 84 203 143 226
343 242 125 69 24 148 249 1160 1307 2332 1436 952 1465 1275 1441 683 746 790 1880 1687 1523 1916 1572 1648 1425 1494 1435 1352 927 1025 671 198 306 531 417 174 49 97 128 71 65 235 244
393 292 197 123 45 166 419 1341 1964 2259 1867 1686 1320 1422 1459 1309 794 1577 1387 1838 1758 1748 1947 1609 2222 1558 1929 1145 1376 1361 2657 919 50 328 830 268 286 313 46 134 258 444 648
452 360 286 200 164 168 431 1432 1743 2390 1911 2072 981 2104 1037 751 667 1261 1079 1699 1929 1781 1903 1876 1722 2119 2096 2619 1828 1683 2207 2232 367 35 52 1101 405 722 1102 217 237 366 430
428 387 362 360 272 213 485 590 2097 2555 2285 2079 1832 1232 1671 693 647 607 3079 2954 3361 2064 1683 2257 1818 2052 1626 1786 1819 1790 1900 1024 1422 116 79 376 56 817 1089 582 360 368 274
466 408 346 414 384 255 426 898 2333 2883 2804 2509 2039 2504 1802 1802 501 889 1551 979 1700 1919 2287 2047 2817 2112 1903 1970 1976 1949 1709 2681 1573 1206 513 248 453 492 179 104 540 285 346
538 478 391 345 601 649 724 1310 2464 3022 2938 2492 1847 2007 2567 2652 3089 2544 917 1324 599 763 3142 3271 3022 2492 2556 2241 1934 2361 1972 2101 1500 1801 341 281 293 338 356 306 292 311 439
729 550 467 423 859 954 1247 1290 2312 3048 3094 2627 2508 2022 2646 954 852 1645 932 655 461 601 3613 2623 2217 2365 2424 2352 2895 2150 1989 3036 1948 1880 2350 587 223 221 280 474 596 686 776
835 889 682 517 859 1123 1589 1544 2124 2782 2935 2116 2739 2711 2405 1889 694 1604 2556 1360 1697 817 1105 2124 2258 2118 2057 2666 2926 1816 3020 2518 2431 2641 2433 1714 649 589 422 452 524 610 825
759 883 1063 856 692 747 953 1520 1967 2600 2514 2409 2807 2659 2529 2625 2182 2366 3325 2303 2464 2622 1450 1960 1651 2122 2630 2736 3675 2594 2768 3134 2309 1651 3396 2939 1307 1228 872 743 667 638 601
576 789 1155 1171 1016 904 870 1041 1416 2159 2269 2428 2604 2323 2367 2248 2316 2995 3125 3334 2862 3267 3041 2668 2304 2271 2357 2785 3881 3639 2641 2746 3285 3005 2531 3519 3844 2112 1320 960 844 815 790
370 728 809 1093 1208 1194 1093 1149 1152 1160 1850 2270 2768 2484 2676 2249 2098 2314 2909 3319 3400 3029 3488 3141 2931 2432 2099 2970 3568 2624 2300 2691 2782 2926 3505 2553 2232 3997 3922 2319 3596 1923 2367
171 512 654 831 1274 1333 1587 1166 1201 1159 1227 2085 2004 2481 2485 2495 2250 2850 2700 3127 3476 3721 2432 3266 3532 3039 2417 3145 3457 3639 3268 2975 3032 2988 3319 3228 3529 4145 2836 3631 2216 1623 2341
204 247 579 835 1162 1753 2336 2234 1402 1242 1121 1301 1554 2219 2591 2622 2515 2976 3141 3237 3531 3722 3615 3693 3655 3370 2961 2772 2733 3208 3399 3353 2821 3163 3288 3382 3700 4176 4536 3838 4493 3716 3315
75 229 286 1409 2517 2394 2865 2606 1828 2042 1629 1932 1835 2149 2670 2840 3074 2873 3348 3317 3566 3654 3841 3954 3817 3673 2856 2078 2842 3170 3324 3636 3308 3274 3432 3307 3292 2612 3646 3240 4051 4127 3745
0 0 187 499 896 1539 2831 2983 2661 2455 2083 2424 2123 2277 2927 3115 3084 3043 3317 3600 3703 3842 3976 3885 3911 3801 2191 1417 1105 1968 2736 3338 3583 3691 3682 3738 2450 2222 2025 2083 2227 2247 3927
104 144 190 122 382 933 1810 2494 3013 2566 2773 2865 2842 2791 3099 3214 3232 3276 3531 3730 3837 3964 4176 4061 3980 4029 3906 1525 573 431 2212 2916 3302 3632 3798 3280 1881 2637 3722 2074 1827 1633 1179
316 388 476 507 541 503 900 1398 2121 3235 3147 3121 3526 3074 3532 3438 3563 3711 3764 3952 3985 4002 4124 4168 4208 4201 3964 2347 539 11 2153 2289 2855 3517 3678 3987 3719 3716 3463 3988 3768 3524 3696
657 638 599 584 793 974 779 870 1833 3317 3256 3697 3393 3606 3494 3839 3903 3903 3970 4098 4127 4138 4095 4170 4312 4379 4263 1954 950 18 2021 2166 2922 3123 3202 3577 4082 3479 2670 3323 3554 3901 4082
660 931 1036 1060 1186 1366 1367 1309 946 2392 3500 3627 3525 3828 3732 4025 4052 4123 4240 4279 4208 4179 3612 3926 4310 3995 4506 3188 369 214 2253 2449 2153 3218 3586 2497 2265 2705 2431 3286 3714 3880 4056
470 747 1614 1727 1897 2086 1774 2103 1525 2155 3165 3509 3738 4120 4036 4173 4293 4450 4439 4451 4387 3724 4296 4167 4267 4393 4051 4298 1171 0 2811 2145 2237 2125 1926 2239 1684 1563 1212 819 3486 3530 3632
0 50 1763 2356 2247 2208 2309 3111 2770 2327 3459 3695 3892 4138 4295 3696 3648 4488 4483 4478 4474 4495 4703 4540 4367 3599 4540 3220 731 0 280 2339 2625 2264 1248 1736 1039 357 309 38 870 1312 1383
0 0 696 2975 2903 2223 1840 2996 2749 3727 3917 4059 4115 4171 4252 4226 4238 4424 4590 4076 4442 3503 3546 3409 3165 2928 2841 3550 1945 0 0 243 1762 2478 1381 1280 1576 178 0 0 661 774 2043
2 3 31 579 1786 2017 2537 2980 3024 3833 4185 4219 4253 4288 4192 4197 4189 3790 3755 3442 3258 3264 3111 3051 2922 2733 2548 2234 2708 1567 112 22 248 1436 1979 2173 1916 1243 2217 2612 592 2015 3063
9 13 5 7 8 33 284 753 1994 3693 3207 3992 3807 3934 3504 3436 3948 3774 3369 3344 3638 2491 3200 2716 2450 2204 2742 2739 2858 3149 3428 2663 2028 2380 2685 2552 2589 2912 3296 3799 3877 4029 4042
32 15 7 3 3 1 0 0 88 2090 3306 3222 3394 3136 3077 3471 3469 3429 2267 0 297 316 480 125 1215 2857 1001 1353 664 2494 2733 2376 2232 2255 3015 3269 3384 3566 3612 3832 4008 4007 3781

GFSMW_con_sbcape_060.txt.gz
CAPE
199 92 44 15 155 262 360 1100 1539 1943 1432 1624 1531 1131 1306 487 1937 1398 1549 3020 2865 2473 3326 2578 2218 1696 170 625 1915 1459 670 858 467 472 918 589 337 312 1005 624 486 402 1075
226 148 65 12 77 274 384 1111 1575 1910 1379 1659 1852 2134 958 559 126 1772 1990 2578 2687 2857 2992 2735 2557 1441 860 1729 1934 393 712 1662 954 1050 704 565 377 670 14 841 601 656 476
381 252 108 69 54 338 439 841 1581 1770 1485 2044 1638 2619 2871 2047 912 2115 2354 2733 2914 2770 2698 2867 2639 2405 2072 2359 2006 1311 2207 1602 641 1124 1171 787 129 656 665 339 844 821 400
544 371 172 183 52 425 565 885 1607 2069 1440 2233 1432 2381 1967 2029 1365 2113 1602 2423 3066 2854 3035 2972 2966 2698 897 2396 2441 2123 1913 444 1385 1286 840 988 789 541 463 1191 1066 864 809
457 447 255 231 93 472 555 885 1368 2145 1430 1529 2104 1830 2151 1593 2085 1427 1544 2669 3473 3287 2645 2893 3187 2765 2785 2833 2453 2104 2307 2433 1387 1624 1065 1261 1369 1749 900 696 1145 1030 1156
527 554 435 318 257 346 458 917 1304 1741 1786 1443 1619 2367 1594 2404 2047 2046 1731 2327 2555 2983 3213 2896 3243 3433 2611 2404 2854 3064 2753 2760 2999 1923 2062 913 964 1149 1210 1087 949 1129 977
595 639 620 495 388 342 573 871 1251 1462 1732 1556 1159 2159 1887 1847 2596 3175 1799 1732 2078 1918 2851 3535 3201 2987 3515 3164 2899 3167 3072 3189 3240 2843 2432 1174 407 300 1631 1093 1725 1043 1323
533 650 668 684 563 524 577 854 1405 1484 1604 2116 1153 1342 2278 1354 1443 2613 1520 2539 1552 1653 2639 3180 2848 3231 3261 3084 2920 3150 3083 2981 3158 3188 3105 2403 1894 1018 1206 1426 1579 1426 1795
12 737 793 676 861 774 674 1023 1457 1683 1894 1611 1897 1042 1767 1812 1033 2262 2547 2026 2391 2276 2731 2970 3421 3150 3328 3116 3164 2597 2764 2640 3181 3070 3469 3102 1999 1466 1142 1480 1513 1812 1357
1 86 921 777 927 876 1010 945 1602 1835 2086 1907 2009 1681 828 1663 1646 1114 2621 1882 2604 2317 2983 3218 3005 3182 3518 3661 3541 2905 3118 3051 2578 2911 3004 3198 2189 2121 2241 1766 1973 1950 1635
48 138 325 922 840 964 1155 1075 1141 2127 2345 2311 1979 1904 1572 1194 1126 1603 940 2342 2002 3990 3306 3733 3274 3062 3062 3650 3645 3077 3174 3116 3141 3463 3570 3235 3060 3103 2994 2757 1960 1818 2187
422 170 8 1 929 928 1060 1378 1246 1545 2167 2327 2144 2053 1996 1443 1339 797 1924 2188 2620 2608 3728 3292 3877 2998 3074 3135 3235 3240 2037 3053 3151 3465 3228 3516 3302 3996 3608 3090 3100 3315 3556
122 46 80 271 1031 940 1071 1227 1359 1300 1941 2312 2133 2191 2127 2049 1669 1244 1024 2160 2296 3151 2567 3370 3047 3292 2801 2820 2963 3249 2963 2864 3336 3277 3414 3237 3513 3689 3664 3726 2929 2418 2672
417 364 454 804 1292 1229 1298 1319 1267 1305 1434 1975 2067 2061 2068 2018 1855 2006 1147 2235 2461 2269 2679 2769 3190 3068 2793 2480 2555 3251 3180 3006 2795 3297 2949 3414 3592 3564 3932 3558 3471 3438 3442
280 167 672 924 1490 1742 1770 1707 1612 1395 1413 1591 1783 2111 2264 2075 2108 1857 1966 1281 2039 2489 2755 2854 3078 3133 2974 2460 2315 2561 3062 3181 3052 2903 3206 3151 3281 2944 3429 3376 3658 3649 3620
74 231 373 909 1048 2040 2178 2054 1867 1791 1665 1669 1763 1937 2275 2242 2317 1987 2223 2267 2157 2438 2815 2966 3054 3209 2930 2164 1509 2007 2335 3209 3096 3020 2966 3480 2229 2069 1985 1679 1967 2465 3312
506 732 756 819 268 31 678 2489 2407 2075 2047 2094 1962 2022 2384 2457 2291 2524 2126 2735 2436 2731 2795 2941 3109 3215 3222 2038 901 949 2127 2382 2856 3081 3004 3043 2476 2378 2986 2003 1007 1045 1271
772 703 346 537 468 13 211 2569 2693 2765 2748 2262 2513 2305 2277 2391 2554 2496 2715 2457 2852 2717 2958 3006 3074 3204 3247 2775 953 80 1514 2166 2551 2654 2885 3159 2883 2698 3179 3128 3134 2705 2538
20 615 525 635 1241 1337 1422 1895 2837 2742 2474 3015 2458 2803 2248 2564 2558 2653 2583 2704 2742 2945 2952 3081 3206 3214 3237 2614 1852 16 921 1625 1980 2080 2596 3255 3106 2706 2409 2161 2592 2907 3229
2 340 639 764 1192 1393 1379 1390 1603 3295 2706 2424 3063 2681 2724 2625 2773 2722 2769 2829 2910 2938 3050 3044 3185 3230 3415 2896 951 98 1767 1631 1847 2207 2449 1984 1777 2052 1942 2026 2899 2806 2755
5 12 90 619 1359 2415 2006 1698 1725 1802 3350 2836 2560 3400 3444 2813 3201 3127 3108 3190 3234 3200 3356 3338 3358 3632 3494 3649 1254 0 2115 2052 2140 1954 2136 2369 2173 1603 1173 978 2479 2766 2860
0 3 10 428 2317 3124 2947 2350 2368 2104 2717 3600 3117 3451 3384 3382 3176 3669 3645 3527 3513 3571 3596 3603 3695 3617 3945 3271 882 0 209 2166 2420 2303 2281 2077 1922 1438 937 53 383 1404 1220
2 5 6 7 51 422 1832 3400 3328 3177 2810 4018 3528 3675 3860 3759 3404 3807 3770 3849 3849 3714 3613 3655 3643 3739 3653 3941 2508 78 0 156 1949 2465 2091 834 897 0 0 0 7 49 661
13 1 4 1 4 4 24 721 1234 3369 3692 2828 3991 3842 4015 3851 3597 3789 3814 3898 3873 3851 3743 3421 3789 3597 3593 3637 3827 477 1 0 45 1242 1918 1157 1573 1373 1806 1299 5 585 2163
17 25 15 4 2 7 12 4 81 751 3368 3972 4013 3951 3905 3428 3811 3461 3816 3803 3729 3635 3624 3593 3280 3562 3357 3008 2782 2702 1969 1556 998 1751 2219 2490 2412 2271 2622 3304 3744 2634 2844
10 30 2 0 2 8 7 7 5 5 1094 4200 4065 3784 3719 3685 3739 3352 1797 0 1319 983 2392 1851 3042 1378 743 317 264 2 1836 1859 1703 1653 2637 2723 2801 2819 2665 2795 3279 3866 3763

GFSMW_con_sbcape_063.txt.gz
CAPE
9 17 7 0 35 0 0 49 193 158 668 802 684 720 539 146 971 858 1332 1451 1091 1436 580 1029 1016 305 6 72 1077 349 501 63 66 51 172 137 106 160 177 164 471 755 770
16 9 6 0 0 20 0 86 325 297 589 555 690 450 638 229 329 953 531 1714 1263 1449 1048 598 1178 757 93 363 284 58 51 591 30 141 180 104 3 84 10 149 104 72 691
10 1 0 0 0 0 37 150 588 351 541 391 430 1168 525 136 115 933 920 1426 1557 1317 1594 1019 1055 284 1031 910 629 411 996 580 279 43 155 126 73 283 151 17 31 4 395
18 0 0 0 10 0 21 417 683 428 449 594 297 616 736 397 278 851 1168 1519 1552 1332 1390 1580 1252 927 363 1074 792 1067 819 109 132 314 33 173 110 105 80 166 275 37 264
31 10 0 0 27 0 0 400 839 534 284 724 304 396 744 974 516 769 1159 1459 1716 1633 1396 1410 1676 1244 634 907 1094 904 1116 1085 1210 619 197 102 30 160 125 110 424 213 105
160 33 7 2 4 21 4 218 938 459 313 369 1043 282 729 693 828 619 1295 1491 1824 1626 2011 1304 1528 1166 1244 1082 1201 1576 1164 1019 1546 1390 991 58 55 169 159 291 185 104 161
296 165 40 20 3 131 61 132 576 842 353 269 324 1186 495 392 1035 1012 841 1266 1460 1729 1881 1453 1721 1727 1201 1411 1383 1398 1847 1463 1617 1741 1196 892 668 14 576 290 383 249 196
12 291 118 61 54 180 173 253 296 649 605 260 224 388 1262 237 570 1033 923 1133 1290 1220 1348 1537 1512 1580 1887 1369 1531 1292 1700 1336 1903 1241 1728 1236 743 767 45 84 193 193 366
289 333 253 150 100 139 155 307 363 322 711 554 78 296 940 484 313 517 944 834 796 1016 1363 2014 1534 1567 1757 1647 1527 1372 1849 1683 1747 1588 1512 1765 1055 718 667 82 218 290 301
507 290 150 255 175 156 214 207 463 436 677 698 438 67 355 956 327 289 750 986 376 1227 1347 2097 1585 1937 1751 1445 1597 1104 1513 1493 1144 1065 1765 1349 1204 831 1590 808 555 640 284
237 232 255 56 136 41 151 291 621 510 628 563 872 321 58 573 660 455 145 910 671 1360 1984 1883 2132 2062 1850 2015 1900 1290 1715 1444 1270 1374 1650 1597 1498 1076 1495 2362 1815 952 729
65 205 118 7 22 5 330 241 518 788 764 807 693 949 324 87 621 442 492 124 803 870 1844 2041 2031 1881 1804 2101 2046 1802 1563 1729 1768 1670 1795 2028 1974 1731 1611 1991 1857 1811 1845
313 193 92 145 43 0 0 433 414 986 1019 1105 859 1018 909 221 198 227 351 128 1048 556 1900 1784 1869 1824 1760 1702 1991 2079 1829 1607 1839 1883 2169 1834 1911 2161 2514 2336 1979 1772 1544
348 216 82 0 0 0 3 444 448 599 1261 1372 1419 1145 1047 985 214 174 22 689 515 1862 1080 2035 1662 1976 1509 1638 1801 1898 2068 1975 1768 2230 2032 2094 2108 1974 2093 2345 2400 2244 2267
497 231 140 22 255 99 390 531 573 518 826 1503 1564 1451 1271 1080 1015 478 360 0 969 751 1744 1380 2134 1812 1983 1708 1529 1788 2138 2125 1999 1769 1984 2072 2099 2472 2546 2639 2632 2683 2588
83 124 63 0 261 73 10 484 630 733 654 1155 1583 1559 1402 1335 1237 1091 894 349 165 1303 829 1384 1613 2111 2096 2026 1653 1415 1922 2237 2166 2127 2035 2174 2211 2128 2191 2012 2445 2816 2750
0 0 39 10 8 67 334 128 431 726 883 886 1386 1464 1435 1461 1351 1270 1101 1119 354 718 1523 1344 1510 1741 2082 2027 1460 1023 1325 1416 2205 2181 2112 2118 2214 2141 2051 1876 1218 687 504
0 3 0 0 1 0 69 101 46 211 476 913 973 1375 1502 1455 1510 1396 1293 1121 1146 633 733 1365 1732 1883 1951 2175 891 580 951 1300 1435 2153 2145 2109 2058 1892 1726 1833 2006 1769 1151
0 0 0 0 0 31 6 55 251 258 264 965 1225 1377 1411 1609 1662 1396 1474 1190 1451 1414 1152 1499 1719 1978 2072 1982 1347 1 299 999 1357 1533 1665 2040 2180 2116 2161 1564 2010 2418 2637
0 0 0 0 0 42 198 355 179 342 437 1361 1578 1502 1433 1591 1656 1698 1414 1639 1250 1398 1742 1515 1856 1993 2071 2019 1098 23 852 475 880 1191 1345 1788 1990 1932 1872 1407 1615 1441 1362
0 0 0 0 3 65 34 1515 671 836 908 1842 1979 1808 1656 1502 1738 1722 1800 1599 1762 1668 1646 1930 1866 2041 2017 2240 1402 7 1619 1465 949 965 1121 1273 1349 933 653 588 1326 1925 2161
0 0 0 0 0 0 3 9 472 435 1167 1605 2029 2234 2195 1646 1857 1859 1863 1873 1789 1872 1839 1896 2067 2040 2201 2000 1408 109 65 1819 1608 1216 1156 1085 1347 1314 987 34 5 499 362
0 0 0 0 0 0 0 3 2 1 29 1252 2496 1949 2403 2255 1901 2181 2034 2060 2044 2048 2063 2098 2138 2255 2300 2555 1562 264 0 14 1317 1661 1440 1470 1300 675 7 0 9 0 0
0 0 0 0 0 0 0 1 0 1 1 441 2099 2711 2491 2638 2197 2594 2275 2297 2268 2351 2258 2352 2364 2379 2381 2613 2785 239 0 0 0 1105 765 257 322 299 612 508 0 0 19
2 0 10 1 0 0 0 0 1 3 1 7 2052 2748 2603 2406 2721 2476 2828 2615 2606 2542 2530 2498 2493 2459 2731 2584 2839 2374 1076 979 478 632 1115 895 814 1323 1245 1379 1349 17 347
3 0 2 0 0 0 0 0 0 3 3 2 902 2719 2817 2841 2812 2611 707 1 678 2324 2583 2620 2780 2574 1379 2756 2454 1732 1607 1063 587 449 1419 1348 1486 1589 1620 1281 1866 1886 1207

GFSMW_con_sbcape_066.txt.gz
CAPE
9 5 0 0 0 0 0 0 90 10 170 96 312 82 192 414 544 338 543 648 666 580 427 391 366 79 24 120 91 38 160 36 22 5 38 33 39 113 157 311 478 687 615
55 2 0 6 12 0 0 0 78 14 335 123 193 208 154 138 517 475 919 788 821 780 421 559 543 99 2 375 51 22 70 158 14 17 12 3 0 0 25 41 181 300 726
53 8 6 19 0 0 15 31 98 36 395 161 312 460 103 13 235 429 322 1187 839 1072 596 675 598 113 42 204 90 128 242 68 39 4 92 34 0 17 0 0 0 41 159
53 4 0 23 0 0 0 54 156 77 324 167 204 653 326 46 4 478 558 822 1153 968 1141 803 441 219 168 466 360 833 111 17 35 42 5 14 0 0 0 0 31 0 126
101 1 0 27 0 0 0 236 170 131 220 176 81 255 333 151 1 423 653 806 1123 823 968 1122 776 325 126 366 488 475 739 469 580 224 249 7 1 21 10 43 128 33 0
142 27 0 0 0 0 0 391 201 132 212 226 60 66 316 443 338 276 676 843 1244 958 930 919 966 551 286 529 709 701 605 588 848 637 495 28 18 14 107 12 17 50 3
193 52 11 0 0 0 36 390 282 144 109 219 479 61 143 242 440 358 659 881 1273 1109 1230 833 1007 624 629 656 715 995 1159 547 929 1005 527 332 244 0 105 4 110 55 35
87 114 3 0 16 0 0 290 364 197 79 140 137 515 142 76 263 479 614 849 1164 1150 1187 960 977 1113 730 944 789 745 955 908 1114 1058 985 786 253 281 0 0 0 20 27
70 218 43 15 36 9 0 9 390 216 85 48 0 75 510 480 114 496 448 718 758 791 1004 1070 968 1047 1226 727 926 920 962 1259 940 1282 705 1074 834 183 168 92 0 0 49
346 352 124 67 70 92 14 0 74 293 242 80 0 0 109 517 79 205 397 754 617 765 819 1505 1094 959 1112 1038 816 743 882 1193 846 884 984 812 727 349 541 1148 120 61 0
332 317 235 157 77 182 180 78 34 107 439 336 104 0 5 133 517 49 91 314 413 561 783 1411 1220 1084 1156 888 1107 683 614 1075 977 628 630 1096 893 839 586 1096 1366 1027 191
277 218 278 178 114 50 203 196 198 165 162 443 325 94 0 34 312 427 87 26 382 522 1071 1314 1484 1294 1281 1220 1175 1042 997 1134 1071 889 907 1321 1556 1450 1029 1078 1363 1182 875
42 15 37 132 174 107 141 209 267 338 282 390 397 391 93 0 64 361 329 82 54 330 1414 1398 1613 1567 1467 1379 1388 1364 1068 967 1201 1243 1079 1166 1283 1599 1399 1335 1655 1376 1381
87 60 124 189 84 16 2 43 277 523 438 444 472 524 593 175 0 46 261 221 39 64 822 1463 1443 1361 1473 1438 1510 1466 1356 1158 1042 1220 1250 1420 1386 1238 1487 1626 1692 1722 1746
12 34 115 95 70 17 0 0 75 437 660 570 657 487 687 719 280 0 15 45 167 276 243 988 1409 1455 1360 1275 1154 1310 1362 1369 1287 1257 1370 1555 1551 1544 1328 1428 1579 1752 1775
0 0 0 0 7 20 60 6 123 265 780 817 795 905 633 828 800 452 0 0 0 178 477 856 1123 1240 1520 1330 1131 1203 1368 1396 1348 1302 1256 1267 1517 1517 1591 1646 2099 2018 2057
17 9 0 0 0 0 7 61 48 159 416 1080 1117 1149 1215 1001 893 855 495 189 88 0 280 553 1095 1329 1386 1360 830 697 1047 1405 1484 1463 1460 1440 1718 1648 1578 1339 607 495 1448
2 0 2 0 0 0 39 67 281 313 291 556 1330 1536 1467 1365 1255 1004 912 634 465 82 0 549 493 1009 1313 1646 656 329 857 872 1150 1578 1723 1655 1656 1499 1457 1514 1579 1453 1069
2 3 0 0 0 3 9 374 370 23 1 107 489 992 1580 1480 1404 1303 1144 1034 920 682 154 353 1035 817 766 850 813 47 813 1048 916 911 1101 1526 1564 1593 1315 1306 1333 1369 1477
0 0 0 0 0 1 1 90 341 92 0 191 271 491 954 1390 1462 1416 1330 1223 1101 1066 867 506 447 1134 1343 1213 315 1 1109 1182 1052 864 949 924 1433 1581 1289 897 1359 1347 1407
0 0 0 1 0 0 0 4 6 156 66 116 456 861 962 1209 1445 1430 1426 1359 1285 1138 1154 1058 839 741 888 1203 293 0 1175 1357 1048 831 786 864 731 303 308 317 1345 1392 1416
0 0 0 0 0 0 0 0 4 1 4 2 2 218 1279 1363 1356 1471 1507 1378 1345 1287 1118 1299 1392 1167 1256 1101 471 0 55 1413 1490 1316 834 743 657 276 10 0 102 936 706
0 0 0 0 0 0 0 0 0 0 3 2 0 20 688 1675 1408 1457 1519 1534 1353 1457 1490 1218 1244 1537 1567 1530 653 9 0 4 980 1616 1399 855 664 175 0 0 0 0 0
0 0 0 0 0 0 0 0 0 0 0 1 1 1 198 1828 1769 1540 1559 1541 1643 1493 1497 1636 1564 1482 1571 1719 1768 199 0 0 0 470 1089 844 191 113 70 40 0 0 0
0 0 0 0 0 0 0 0 0 0 1 2 2 3 340 1780 2167 1835 1806 1659 1692 1691 1641 1598 1596 1634 1649 1674 1840 1923 1240 674 402 606 825 226 56 349 93 148 242 0 0
4 0 2 0 0 0 0 0 0 0 1 5 4 7 5 142 2170 2370 1104 1 260 1318 1420 1523 1680 1738 1686 1767 1784 1700 1511 1097 637 1 1061 1076 1118 862 1076 1032 888 701 92

GFSMW_con_sbcape_069.txt.gz
CAPE
0 0 0 5 7 50 31 51 168 46 123 73 10 67 222 107 105 88 281 485 406 56 0 0 39 0 5 101 54 17 41 4 0 5 0 0 0 60 172 102 218 354 355
0 0 0 1 5 43 35 75 129 0 113 77 115 89 136 224 279 173 331 384 553 523 270 289 468 0 12 35 28 15 75 16 0 4 0 0 0 0 4 3 76 276 420
0 0 0 0 0 0 0 82 54 0 85 84 125 87 54 79 404 341 542 832 592 650 564 417 480 145 2 26 0 31 40 16 8 0 16 17 0 0 0 0 0 6 15
0 0 0 0 0 0 0 29 0 0 96 63 180 207 177 135 127 424 194 866 864 953 568 553 289 113 38 160 254 348 45 4 19 6 0 0 0 0 0 0 0 0 0
82 0 0 0 0 0 0 0 0 0 85 52 103 222 134 52 0 236 309 498 913 804 1022 667 375 205 48 105 234 362 285 162 101 56 83 0 0 0 0 0 0 0 0
63 0 0 0 0 0 0 0 0 0 48 69 31 133 249 167 74 56 236 389 653 833 626 848 641 338 69 203 247 235 457 510 570 203 180 28 0 0 16 0 0 0 0
117 17 0 0 0 0 0 0 0 0 18 89 10 13 86 127 157 52 184 446 706 896 856 686 786 455 262 209 383 618 491 298 685 620 142 84 39 0 0 0 6 2 0
151 127 0 0 0 0 0 58 15 0 0 66 80 0 0 48 96 182 65 414 638 990 885 750 627 697 386 481 416 566 808 763 597 717 787 446 75 78 0 0 0 0 0
99 171 16 0 0 0 0 68 59 20 0 33 45 100 6 0 21 214 102 360 512 889 793 944 721 800 730 598 612 635 599 776 615 847 628 529 502 53 1 5 0 0 0
46 68 60 0 10 7 8 71 126 70 24 0 28 62 168 164 0 0 395 270 418 493 701 1030 785 816 879 777 540 688 664 793 778 795 935 557 361 192 31 559 0 0 0
34 49 73 3 20 31 6 2 140 172 113 47 23 28 35 93 181 0 17 311 409 393 537 977 1051 914 860 904 778 538 537 789 876 478 488 552 514 602 283 473 848 469 9
92 148 115 11 0 19 28 0 49 191 173 126 44 0 0 0 161 132 0 0 94 159 487 570 1145 1018 908 826 819 866 869 557 731 862 476 573 770 963 734 572 872 844 424
0 2 16 18 7 2 19 2 0 76 189 214 155 45 0 0 20 94 105 0 0 11 229 609 972 1015 970 950 818 840 848 779 825 978 845 712 755 1066 1055 818 901 1128 1074
24 4 0 0 0 0 11 0 10 22 31 192 277 212 87 0 0 4 10 101 0 0 65 810 957 1144 1072 1045 1066 1075 1035 932 872 881 978 1088 1065 1004 1029 1073 1282 1337 1360
2 3 0 0 0 1 0 0 0 65 99 37 187 265 257 112 0 0 0 0 10 7 0 237 1016 1000 1142 1194 1117 1181 1189 1172 1075 919 926 1044 1147 1281 1270 1188 1062 1079 1169
5 4 4 0 0 0 0 3 14 8 280 247 205 283 269 326 124 0 0 0 0 0 0 0 205 838 1158 1160 1154 1216 1294 1234 1122 1082 923 994 1293 1137 1135 957 983 1504 1541
0 1 2 6 7 1 3 14 70 34 195 476 345 341 329 407 505 239 0 0 0 0 0 6 84 275 683 1127 832 371 1028 997 1006 983 975 911 1201 1097 1153 1062 463 262 424
0 0 0 0 5 2 0 1 97 270 282 394 577 505 575 412 512 629 392 35 0 0 0 0 0 161 351 626 516 133 630 957 969 995 1021 993 1057 1110 1193 1242 1245 1042 839
0 0 0 0 0 5 0 2 350 204 0 70 147 574 822 931 712 708 709 598 238 6 0 0 0 0 63 337 129 0 470 782 825 832 924 1114 1238 1300 1176 1158 1211 1160 1160
0 0 0 0 0 0 0 0 14 4 4 40 152 247 187 1203 1234 1107 914 806 642 499 295 128 0 0 103 94 0 0 730 858 973 1017 836 675 896 1167 995 555 1157 1126 1299
0 0 0 0 0 0 0 2 0 1 3 8 3 1 130 429 555 1260 1262 1151 995 882 754 646 345 61 154 473 0 0 765 864 869 930 888 857 645 167 157 30 993 1141 1222
0 0 0 0 0 0 0 0 0 0 8 4 8 7 4 199 747 1016 1169 1317 1232 1091 989 931 870 677 343 196 154 0 12 620 827 935 868 802 759 436 38 0 1 354 116
0 0 0 0 0 0 0 0 0 0 2 4 2 3 3 4 318 1172 1115 1236 1271 1300 1171 1090 993 991 911 676 19 0 0 0 529 1085 1063 1051 771 387 0 0 0 0 0
0 0 0 0 0 0 0 0 0 0 0 4 4 3 1 0 15 820 1316 1186 1301 1336 1236 1216 1108 935 1092 1249 1073 23 0 0 0 167 596 730 429 1 6 0 0 0 0
0 0 0 13 4 0 0 0 0 0 0 0 4 2 2 3 2 9 1263 1341 1383 1464 1402 1281 1248 1151 1036 1099 1394 1415 727 301 144 273 390 875 368 806 296 24 25 0 0
0 0 2 7 0 0 0 0 0 0 1 3 1 1 3 2 4 4 99 141 213 680 878 952 1253 1284 1177 1147 1085 1037 904 733 207 1 797 987 1091 1086 1061 1152 609 193 8

GFSMW_con_sbcape_072.txt.gz
CAPE
5 0 0 0 28 22 22 17 64 61 44 68 0 0 116 0 57 63 156 476 340 305 0 23 157 83 108 136 175 47 180 132 21 205 237 173 116 169 403 381 312 399 515
0 0 0 0 6 19 19 0 8 0 77 129 0 23 33 97 116 57 200 496 513 76 35 20 443 29 91 138 85 57 217 92 7 127 24 166 20 0 0 112 258 363 514
0 0 0 0 0 1 6 0 0 0 56 37 0 7 30 91 227 179 215 611 530 584 216 365 461 5 37 56 24 47 119 84 28 20 188 189 78 0 0 0 0 67 136
0 0 0 0 0 0 0 6 3 0 1 7 72 68 107 172 194 241 209 645 601 783 765 240 298 180 32 150 101 308 117 22 75 99 11 11 7 84 177 0 1 9 24
0 0 0 0 0 0 0 0 0 0 0 15 93 58 56 70 49 153 201 336 711 765 699 507 338 289 150 274 545 582 320 262 74 172 329 30 7 0 7 159 106 119 131
32 0 0 0 0 0 0 0 0 0 0 0 9 61 74 36 34 89 210 224 449 762 722 830 717 375 286 349 348 446 593 783 743 362 425 268 81 77 153 77 85 69 339
161 23 0 0 0 0 0 0 0 0 0 0 0 47 47 50 38 16 86 217 437 660 799 724 843 326 353 372 479 554 622 529 849 1008 566 260 238 0 46 46 187 242 269
169 106 0 0 0 0 0 0 0 0 0 0 0 0 37 67 58 33 34 146 423 651 814 793 691 795 318 406 551 582 869 886 637 938 1098 835 411 297 44 20 111 391 119
176 66 0 0 0 0 0 0 0 0 0 0 0 0 0 27 76 83 60 113 371 705 950 915 749 772 614 593 616 670 827 929 859 1049 1023 813 990 347 162 359 0 232 531
132 75 16 0 0 0 0 0 25 4 0 0 13 14 0 0 0 51 162 187 336 457 912 980 943 865 796 869 797 823 761 828 968 943 1060 981 730 670 255 788 219 55 178
207 65 64 0 0 0 0 0 46 65 4 1 41 56 34 0 0 0 110 317 325 403 617 988 1126 930 752 931 561 698 829 930 1046 882 902 986 743 821 644 608 1094 828 234
68 109 59 0 0 0 0 0 0 0 36 14 5 1 1 56 104 0 0 72 363 327 538 668 1095 1156 1058 929 1162 1076 1065 842 883 1048 967 945 797 1051 1073 926 1135 1213 941
0 9 19 17 9 0 0 0 0 2 36 0 13 16 0 0 48 105 4 0 81 178 327 612 817 1152 1193 1111 1095 1164 1144 1071 986 1023 1063 1176 998 1222 1322 1382 1328 1280 1449
4 2 0 0 1 10 1 49 0 0 29 18 1 4 6 0 0 0 39 0 8 99 94 371 651 978 1151 1168 1191 1119 1142 1109 1090 1130 1214 1335 1258 1379 1472 1341 1549 1597 1748
1 3 5 4 2 3 12 23 36 12 0 99 134 63 4 0 0 0 0 8 17 21 85 206 597 907 1195 1149 1224 1236 1252 1237 1225 1263 1210 1201 1179 975 1250 1558 1844 1613 1572
6 3 1 3 3 7 7 41 56 50 64 63 146 302 260 132 0 0 0 0 0 36 0 36 323 781 950 1114 993 1031 1321 1359 1413 1422 1368 1415 961 903 683 567 699 1354 1982
1 7 4 1 3 5 11 5 5 71 77 260 190 143 298 299 236 46 0 0 0 0 4 0 28 255 657 685 718 477 1337 1383 1386 1448 1500 1281 1218 959 1414 978 400 29 32
0 0 3 0 0 1 0 1 23 286 122 111 340 322 271 355 401 373 124 0 0 0 0 0 10 54 140 192 39 113 831 1247 1273 1250 1220 1273 1345 1232 1273 1391 1488 1528 1416
0 0 0 0 0 0 0 1 6 5 17 29 63 307 466 436 462 510 559 375 61 0 0 0 0 1 34 0 0 0 538 794 1095 1156 1216 1213 1211 970 500 1336 1545 1677 1699
0 0 0 0 0 0 0 0 8 3 3 3 3 1 6 538 806 534 566 499 559 381 116 28 8 0 0 0 0 0 276 330 497 877 1009 516 931 909 392 790 1473 1531 1606
0 0 0 0 0 0 0 0 1 5 0 4 9 3 3 30 398 789 856 628 677 628 736 497 344 171 0 34 0 0 163 375 357 449 575 1026 308 76 9 64 1250 1246 1381
0 0 0 0 0 0 0 0 0 5 3 2 2 9 4 0 36 122 312 970 1254 1078 1011 994 849 690 385 2 8 0 1 253 578 562 671 713 470 172 0 0 3 275 87
0 0 0 0 0 0 0 0 0 0 1 2 1 1 8 4 2 20 158 767 1149 1391 1341 1295 1169 1157 1087 665 2 0 0 0 182 644 502 386 428 223 0 0 0 0 0
0 0 0 0 0 0 0 0 0 0 0 2 2 2 2 8 7 6 6 167 1183 1323 1449 1515 1400 1352 1290 1197 1015 6 0 0 0 1 230 367 206 18 116 0 0 0 7
0 0 0 0 2 4 0 0 0 0 0 2 1 4 6 5 4 5 4 2 129 1143 1412 1495 1478 1479 1356 1277 1112 986 275 50 0 0 245 727 818 786 588 273 338 28 3
1 0 0 0 0 15 3 0 0 0 0 2 1 5 5 3 1 4 1 0 0 2 13 65 1194 1476 1141 1023 785 531 224 192 11 1 512 634 803 1016 912 789 950 696 158

GFSMW_con_sbcape_075.txt.gz
CAPE
141 194 149 40 24 25 243 555 663 762 721 624 638 960 919 1056 1061 1166 1194 1028 1476 1119 1215 1155 1353 1438 1424 1323 1265 1210 1457 1118 1162 1152 936 1117 1287 1221 1222 1314 1362 1286 1248
79 88 129 89 32 36 158 537 690 838 798 629 906 896 1038 1044 987 1232 1163 1278 1625 1510 1093 924 1325 1228 1198 1528 1554 1238 994 962 856 895 929 658 522 463 501 742 1020 1317 1261
66 16 75 93 110 86 217 448 764 852 845 698 846 816 1082 1159 1092 1075 1164 1219 1563 1591 1565 1185 1570 1331 1266 1191 1353 1121 1496 958 852 884 860 733 541 805 593 870 715 986 994
81 14 15 26 116 174 287 382 678 868 876 932 822 1002 1006 996 1046 1377 1312 1300 1663 1766 1726 1695 1727 1518 1006 1201 895 1176 1218 1032 931 848 639 953 926 638 583 785 606 832 836
111 68 7 13 16 160 275 350 676 912 979 970 1249 1019 1198 1035 1225 1323 1572 1522 1912 1835 1872 1852 1861 1850 1528 1644 1847 1810 1566 1069 698 620 1250 1195 747 735 875 856 965 1014 1038
140 91 95 72 77 86 199 289 559 1001 890 966 1086 1155 1200 1107 1031 1325 1397 1351 1537 2027 2092 2014 2062 1712 1613 1518 1664 2083 1955 2037 1855 1425 1661 1473 925 780 1048 1044 1299 1277 1218
421 122 72 57 120 127 189 234 470 781 690 803 970 1109 1144 1376 1535 1643 1389 1457 1497 1582 2046 2237 2452 2421 1933 1800 1785 1949 2032 2004 1716 2324 1598 1562 1542 1160 1202 911 1008 1086 1301
589 387 122 105 139 159 263 269 410 877 654 729 1103 1302 1188 987 998 1394 1148 1383 1364 1534 1955 2330 2175 2202 1989 1807 1850 1804 1764 1966 1855 2097 2570 1814 1667 1485 1411 1700 1181 818 904
258 557 427 175 193 208 300 359 561 727 608 639 986 1136 1198 1139 1085 1197 1385 1202 1531 1285 1884 2004 2276 2182 2197 2126 2041 1652 2325 2459 2237 2176 2189 2086 1866 1717 1404 1515 1539 1297 1016
498 546 714 264 266 253 286 310 389 662 927 691 786 755 717 863 1119 1268 1434 1405 1517 1746 1635 2067 2193 2310 2321 2252 2245 1879 1942 2190 2085 1897 2322 2322 1764 1806 1585 1337 1449 1532 1677
433 723 654 356 309 270 252 261 316 393 437 454 887 835 771 658 859 973 1252 1623 1808 1980 2034 2121 2128 2261 2334 2412 2477 2355 2104 2237 2338 2202 2305 2313 2471 1711 1643 1555 1699 1904 1731
164 526 648 330 338 278 248 229 340 323 343 564 629 658 810 756 663 808 922 1176 1651 1819 2073 2195 2270 2295 2328 2403 2446 2350 1953 2195 2026 2054 2266 2136 1915 2356 2361 2158 2333 2064 2343
7 10 62 159 467 301 245 211 240 252 346 495 313 202 410 726 793 901 901 988 1151 1563 1573 1919 2180 2326 2351 2409 2450 2519 2428 2393 2251 1982 2112 2141 2305 2488 2083 2454 2295 2180 2460
3 4 5 7 18 78 426 416 298 232 337 377 419 408 261 262 658 1216 1253 1024 1070 1329 1410 1658 1878 2099 2397 2464 2435 2422 2517 2539 2387 2291 2167 2152 2227 2365 2644 2668 2733 2581 2644
0 2 4 5 6 8 6 118 353 353 386 560 529 613 809 477 325 876 1336 1106 1098 1070 1172 1341 1473 1708 1750 1751 2190 2360 2491 2538 2444 2348 2334 2225 2010 1748 1887 2005 2356 2541 2544
0 0 1 4 1 10 9 4 7 181 316 383 713 945 965 1067 1066 1175 1274 1270 1090 1079 1124 1026 1372 1408 1161 674 744 1568 2187 2383 2422 2498 2496 2426 1483 1191 821 646 917 1451 2533
0 0 0 0 7 7 11 2 4 76 471 575 624 730 1092 1067 1230 980 1022 1119 1268 1146 1169 1027 1024 1482 1708 819 213 402 1499 2041 2381 2521 2544 2393 1860 1805 2327 794 65 86 62
0 0 0 0 0 1 0 0 2 11 214 832 679 862 854 901 1082 1116 1062 1215 912 1086 1043 984 1178 1311 1256 578 56 2 1304 2112 2315 2414 2356 2566 2639 2397 2229 2352 2256 2275 2255
0 0 0 0 0 0 2 3 0 8 4 11 101 218 697 1157 1049 1124 1196 1184 977 845 799 841 984 1226 1383 234 1 0 936 1132 2172 2382 2290 2570 2505 2230 1383 1972 2161 2283 2265
0 0 0 0 0 0 0 6 0 6 6 4 11 19 89 313 1225 1282 1370 1359 1378 1118 960 839 860 552 1087 551 0 0 378 994 861 1582 2053 1231 1494 1595 751 1424 1893 2236 2098
0 0 0 0 0 0 0 2 7 4 4 3 0 3 18 20 44 1022 1748 1531 1693 1658 1578 1492 1392 1253 964 810 0 0 402 625 951 1012 1007 940 293 195 7 62 2065 2216 1989
0 0 0 0 0 0 0 4 5 16 5 0 0 0 7 20 17 58 75 349 1135 1417 1702 1721 1832 1776 1632 587 182 0 0 270 962 1331 1112 1194 568 37 0 0 304 876 823
0 0 0 0 0 0 0 4 9 18 11 0 0 0 0 3 20 15 70 444 555 1000 1584 1763 1757 1754 1816 1841 195 0 0 0 308 995 1070 813 497 75 0 0 0 0 458
0 0 2 1 0 0 0 0 12 29 4 1 0 0 0 0 5 6 8 17 99 498 774 1577 2015 1953 1819 1945 1933 726 24 0 0 12 463 566 416 266 563 442 21 82 838
15 14 17 15 9 2 0 0 3 32 9 1 0 0 0 0 0 1 0 0 2 56 573 1149 1531 1953 2140 2058 1689 1718 1861 1311 269 226 549 902 1014 1182 1223 1120 1339 1331 1062
27 41 53 38 21 25 30 16 17 18 3 5 6 0 0 1 1 0 0 0 0 0 0 0 0 107 1089 939 980 898 741 508 63 99 1062 1378 1471 1434 1274 1201 1273 1235 1095

GFSMW_con_sbcape_078.txt.gz
CAPE
278 344 416 284 0 0 184 528 762 815 956 978 766 720 876 985 1047 1220 1590 1609 1661 1733 1893 1332 1784 1750 1369 1680 1544 1575 1523 640 956 428 369 316 559 575 554 635 671 941 1030
207 339 413 414 10 0 162 563 842 991 1094 801 722 793 951 966 1042 1275 1635 1458 1697 2080 1712 1510 1539 1718 1291 1786 1778 1660 748 404 708 773 664 225 479 346 268 320 436 646 734
349 519 567 476 126 0 142 555 906 994 873 831 1252 1713 1568 1684 1433 1407 1529 1631 1744 1819 1903 1648 1500 1964 1938 1088 1999 1612 1656 481 1082 1518 1198 930 382 635 434 791 366 774 572
558 556 591 559 356 120 97 505 1001 1010 1042 1389 1317 1488 1139 771 866 1144 1127 1570 1835 1724 1729 1858 1995 2150 1325 1508 1681 1344 1677 1877 567 866 621 1424 1448 749 540 588 447 483 483
550 533 554 505 416 313 301 474 996 1427 1004 1444 1407 1447 1508 959 1048 978 1900 1893 2295 1477 1561 1804 2019 2145 1804 2176 1681 1757 1996 1089 831 347 562 1197 859 1451 1146 469 251 341 481
689 555 505 417 381 486 476 577 1044 1431 1669 1655 1768 1713 1434 1361 927 1082 1503 1485 1566 1757 1886 1523 1805 2006 1688 2190 1925 1630 2056 2029 1879 1093 906 576 669 868 1015 785 834 760 973
776 703 649 515 470 492 581 721 1054 1535 1615 1649 1839 1892 1943 1745 1756 1879 619 1276 1301 1458 2401 2203 1703 1682 2115 2161 2025 2443 1855 1734 1104 1748 1114 850 969 1296 1453 1219 965 1003 1029
1206 843 708 700 651 588 628 778 1001 1524 1670 1600 1751 1999 2096 1615 1417 1327 946 1042 1199 1402 1759 2554 1722 1779 1841 2069 2458 1528 1243 1688 1083 1461 1968 1291 1143 1494 1501 1565 1416 920 954
1128 1087 851 744 741 776 792 907 1125 1508 1596 1491 1664 1870 2082 1934 1190 1108 1290 1211 1442 1195 1830 2240 2174 1800 1797 1882 2253 1692 1840 1829 1888 1763 1622 1634 1205 1534 1554 1561 1454 1432 1099
882 1112 1147 846 772 814 898 1047 1184 1395 1631 1458 1477 1623 1732 1879 1767 1488 1431 1470 1158 1755 1469 2358 2363 2088 2264 2386 2516 1789 1881 2074 1842 1652 1793 2199 1270 1543 1610 1476 1446 1491 1445
641 828 836 1029 861 831 894 968 1146 1287 1543 1529 1463 1496 1486 1580 1719 1508 1445 1732 1529 1694 2188 2522 2414 2312 2223 2325 2855 2488 1912 2312 2042 2129 2180 2439 2270 1784 1230 1389 1371 1474 1587
7 5 100 904 1013 950 993 985 980 967 1186 1252 1580 1619 1961 1473 1321 1505 1386 1584 1777 1760 2231 2562 2653 1884 2067 2343 2809 2522 1827 2084 2018 2106 2298 2277 1799 2397 2246 1714 2038 2256 1851
2 7 11 14 69 174 983 919 918 877 867 939 901 1089 1144 1337 1306 1329 1496 1512 1685 1714 1594 2152 2679 2509 1997 2479 2704 2806 2611 2252 2158 2030 2336 2164 2168 2358 1707 2038 1706 1784 2010
1 3 6 14 12 18 65 210 924 817 759 852 1034 972 1118 1191 1215 1325 1497 1560 1689 1751 1607 1741 2129 2439 2242 2221 2629 2851 2927 2509 2219 2556 2584 2461 2028 2217 2657 2690 2752 2670 2512
0 0 0 2 9 8 13 11 19 282 1112 1012 1012 1119 1304 1221 1175 1010 1344 1569 1744 1783 1792 1622 1735 2020 2099 2058 2685 2802 2754 2773 2827 2645 2881 2699 2276 1562 1750 1908 3297 3140 2591
0 0 0 0 0 1 4 0 5 11 548 1085 1131 1348 1323 1428 1536 1371 913 1540 1710 1871 1904 1837 1567 1464 1071 711 949 1445 2482 2715 2907 2846 2710 2816 1939 1758 1525 1381 1255 1139 2485
0 0 0 0 0 0 0 0 0 7 1 630 1292 1071 1228 1556 1589 1630 1713 1629 1616 1827 2012 1881 1821 2002 1833 472 215 378 1364 1664 2304 2591 2520 2251 1765 2227 2503 951 638 263 114
0 0 0 0 0 0 0 0 1 4 2 0 1 1 792 1255 1785 1875 1919 1810 1760 1743 1767 1803 2166 2026 2089 942 265 7 1189 1661 2223 2546 2458 2841 2943 2154 1970 2364 2340 2574 2493
0 0 0 0 0 0 0 0 0 4 5 0 4 4 4 73 901 1664 1784 2092 2052 1948 1756 1710 1868 2180 2253 989 184 0 1089 995 1962 2210 2732 2994 3265 2457 1758 2326 2825 2685 2561
0 0 0 0 0 0 0 0 0 0 7 5 6 9 14 8 5 389 1382 1805 2011 1708 1780 1731 1766 1478 1930 1439 239 0 917 1007 1029 1922 2599 1567 1794 1911 1431 2445 2882 2986 2624
0 0 0 0 0 0 0 0 0 0 1 3 3 1 5 17 12 9 126 1172 2150 2633 2414 1956 2210 2285 1782 1747 275 0 974 1031 1136 1147 1217 1270 488 471 221 199 2911 2400 2065
0 0 0 0 0 0 0 0 0 0 2 4 2 3 2 0 8 27 55 61 546 976 2030 2298 2789 2252 2724 1476 1117 0 7 671 1321 1518 1310 1623 1055 0 0 0 310 744 348
0 0 0 0 0 0 0 0 0 0 1 5 5 2 2 0 0 5 9 55 138 575 1339 1834 1775 2659 2179 2539 1127 99 0 0 133 1356 1310 1144 142 7 0 0 2 0 503
6 9 11 8 10 8 7 9 3 1 1 6 9 2 0 0 0 0 0 1 1 4 153 528 1684 1920 2522 2788 2149 1306 126 11 2 30 126 565 709 717 901 843 101 123 761
8 12 23 22 5 1 15 24 37 31 6 6 8 2 0 0 0 0 0 0 0 0 2 11 52 368 1248 2355 0 6 2231 2533 1177 622 1012 1192 1215 1376 1602 1673 1577 1553 1243
14 21 19 34 28 21 23 26 10 9 30 39 7 0 0 0 0 0 0 0 0 0 0 0 0 0 0 0 0 0 1 2 367 673 1356 1737 1844 1904 1948 2036 2030 1928 1478

GFSMW_con_sbcape_081.txt.gz
CAPE
51 109 97 46 12 114 351 691 681 953 853 1018 781 481 532 877 1222 1619 1583 1574 1603 1833 1887 1951 1598 1636 1838 1754 1403 1526 1334 1474 377 1659 543 231 387 541 299 490 529 706 868
113 287 337 141 21 47 224 655 824 1044 1008 962 1256 421 1501 330 1568 1676 1530 1557 1747 1984 1737 1887 2123 1925 1525 1725 1575 2210 2151 108 1282 1040 1249 892 404 242 314 297 287 544 538
161 320 474 376 46 4 111 565 984 1191 1240 1217 836 1245 1646 1447 723 1581 1307 1643 1508 1719 1894 1783 2336 1838 2181 1574 1760 1487 1479 1750 478 1777 1037 1233 1021 908 534 588 393 483 524
168 299 426 466 111 0 146 540 992 1244 1093 1189 1919 2803 1252 612 799 1347 1902 2231 1697 1611 1667 1776 1833 2061 1721 1883 1709 874 2401 2451 1480 634 1224 1317 1579 1857 1090 299 264 357 605
181 350 391 604 201 28 181 624 1118 1756 1986 1859 2433 1722 2138 1419 1380 1446 2436 2106 2311 1627 1350 1914 1938 2022 2105 2417 1675 1703 1796 1795 1303 1049 657 790 372 676 1261 383 227 309 493
567 483 524 671 268 156 100 438 1376 2183 1730 1533 1824 2122 1662 1927 2082 1268 1388 1802 1695 1541 1735 1596 1976 1954 1884 2141 1990 1872 1934 2019 2911 2106 1128 1120 700 1312 1688 771 995 683 904
551 635 525 611 265 277 319 473 1229 1972 1855 1570 1747 1904 1855 1645 1828 1824 992 1350 1193 1626 2632 2123 2181 1830 2008 1957 2167 2289 2017 1970 1405 1772 1727 1687 1028 633 1628 1654 635 1380 992
552 487 723 715 454 230 440 711 1310 1935 1913 1884 2731 2940 2440 1669 1207 1711 2200 1834 1422 1742 2919 2168 1867 1844 1838 1949 2127 1889 1853 2674 1602 1550 2920 2040 1027 774 969 2203 1388 1656 865
1077 845 791 524 591 621 413 816 1462 1830 2068 1878 2682 2835 2868 2540 1779 2257 1900 1184 2643 1511 2082 1670 1821 1837 1855 1927 2274 1984 2596 2144 2167 1899 1958 1939 1412 633 864 859 1115 1623 2125
702 354 583 802 801 783 529 768 1150 1620 2054 2052 1985 2019 2166 2476 2364 1627 1875 1598 1760 1589 1103 1745 2546 2161 1806 2000 2355 2732 2529 2007 1841 1212 3239 2852 1274 1180 871 1022 1063 1163 1294
220 270 393 829 515 1002 1013 966 1140 1462 1860 2039 2136 2204 2189 2041 2262 1964 1718 1872 1688 1796 1742 2147 2618 2254 2650 2240 3207 3078 2483 2330 2047 2319 2243 2285 3447 1858 1117 872 885 1026 1213
9 11 14 39 256 358 536 895 1089 1279 1606 1860 2656 1985 2438 2478 1883 2131 1901 1888 2362 1946 1998 2352 2327 2396 2046 2608 2670 2377 1788 1873 2204 1939 2273 1936 1633 3476 3430 1980 3569 2305 3061
3 1 4 4 10 38 506 361 163 829 1187 1591 1777 2006 1896 1831 2014 2259 1996 2636 2377 2404 1529 2258 2867 2510 1963 2856 2882 2663 2767 2341 2316 2324 2301 2098 2535 3382 2304 2981 1879 1563 2142
0 1 1 6 9 10 12 40 219 534 508 1126 1515 1648 1778 1744 1844 2396 2830 2067 2947 2629 2335 2432 2895 2575 2064 1984 2318 2848 2843 2781 2564 2492 2804 2620 2547 3199 3392 2901 3558 2855 2546
0 0 0 0 1 3 7 5 10 127 508 1396 1406 1882 1773 1640 1765 1918 2267 2403 2868 2848 2890 2917 2651 2752 2091 1864 2635 2661 2846 2905 3282 2849 2900 3232 2556 1603 2285 1855 3142 3723 2870
0 0 0 0 0 0 1 0 4 7 31 110 409 502 1836 1882 2080 1989 1944 1997 2245 3283 3553 3048 2995 2673 1409 676 898 1782 2980 3398 3857 3229 3231 3296 2179 1966 1653 1141 1114 1322 3087
0 0 0 0 0 0 0 0 0 0 0 0 0 0 130 984 1610 2234 2571 2341 1971 2571 3442 3320 3139 3267 3167 1240 90 631 1627 2505 3342 3593 3625 2948 1503 2338 3261 1477 1163 913 456
0 0 0 0 0 0 0 0 0 1 0 0 0 0 2 59 442 1092 1913 2304 2547 2657 2824 3144 3482 3594 3176 1765 784 0 1761 2092 2556 2849 3509 3805 3356 3270 3066 3409 3154 2897 2942
0 0 0 0 0 0 0 0 0 0 8 1 0 0 0 4 9 145 213 1603 2422 2272 2185 2262 2947 3007 3496 2013 766 42 1419 1303 1971 2422 2671 2706 3388 3098 2181 2869 3341 3585 3352
0 0 0 0 0 0 0 0 0 0 0 0 3 6 2 1 4 4 22 265 1518 2017 2735 2017 2555 2035 2923 2400 1693 15 1476 1850 1597 2353 2528 1488 1411 1894 1829 2707 3128 3269 3172
0 0 0 0 0 0 0 0 0 0 0 0 1 1 3 2 0 2 17 31 55 678 1729 2186 2603 3022 2549 2720 1418 246 1937 1719 1672 1753 1683 1889 900 482 337 224 2976 2782 2851
0 0 0 0 0 0 0 0 0 0 0 0 0 2 2 0 0 7 1 8 41 102 578 1662 2097 2723 2830 1909 1771 63 46 1516 1726 2113 1698 1891 1011 0 0 0 276 634 796
4 1 2 2 1 4 3 1 2 3 1 0 0 0 1 0 0 0 0 0 91 377 383 381 1308 1552 1710 2900 1563 77 0 0 454 1869 1620 824 0 0 0 0 0 0 504
5 3 6 8 9 12 11 8 7 6 7 13 3 0 0 0 0 0 0 0 0 0 0 80 80 68 330 2073 2176 83 7 50 47 102 510 641 577 66 110 519 53 44 881
4 7 10 9 13 14 10 9 20 21 17 8 4 2 0 0 0 1 0 0 0 0 0 0 0 0 0 37 0 0 8 4 2 1 102 1786 1720 1493 1810 2006 2196 2391 1798
7 8 8 11 11 11 15 17 17 15 17 25 5 0 0 0 0 0 0 0 0 0 0 0 0 0 0 0 0 0 0 1 3 1 254 2070 2194 2191 2270 2414 2526 2661 2146

GFSMW_con_sbcape_084.txt.gz
CAPE
41 10 19 19 22 277 840 1412 1444 2328 1945 2054 1759 1158 1594 1424 1432 1886 3068 1709 1646 2931 2724 2569 2822 783 2473 545 2825 2661 2772 2274 2408 2841 1785 1337 736 868 1250 1347 845 1288 1367
37 55 35 31 27 355 804 1635 1666 1804 2150 1605 2224 2421 1697 1734 1628 1565 2740 2436 2400 2679 2574 1886 2343 1170 1388 2909 2626 605 2669 1852 2356 1931 2314 1042 1269 973 656 1013 843 784 1147
84 185 93 62 115 397 720 1452 1842 1612 1933 2257 2487 3213 2242 2079 2078 1833 2306 2283 2651 2971 1744 2328 2796 2256 2482 1964 2682 3083 1907 1960 2121 2298 1469 1734 1359 2264 1091 917 772 860 1415
125 301 159 160 61 250 523 1374 2161 1682 1758 2576 2117 2999 2436 2189 1606 1792 2434 2720 2559 2713 2411 2935 2410 1651 993 758 2455 2255 1807 2782 2297 2409 1861 1943 1100 2045 1671 1210 586 1153 856
179 184 224 345 17 16 256 1154 2025 1908 1858 2683 2125 2584 2551 616 723 1745 2489 2627 3036 2915 2032 3190 3011 2569 1925 1237 2090 2690 3285 2368 1985 1744 2009 2104 2500 1949 1921 1413 961 1305 1272
261 198 347 294 80 99 225 1007 1867 2261 2558 2154 2401 2643 2077 665 273 1129 1461 1953 2912 2612 3076 2951 3026 2590 717 403 3316 2830 2838 3020 3728 3254 2737 2253 915 1397 1797 1940 1815 1478 1570
205 344 624 512 273 93 351 1281 2001 2278 2307 1850 2155 2740 2285 2646 1682 1879 749 1756 771 877 2067 2884 3355 2959 3003 2312 2854 3199 3082 3200 2923 3430 2863 2774 1830 525 2455 2198 2417 1209 1842
603 286 677 618 809 108 386 1017 2112 2400 2244 2083 2446 2742 2962 2264 2110 2573 2954 902 734 1101 2077 2499 2815 3099 2666 2463 2836 3343 2915 3007 2795 2646 3000 2856 2414 2342 2509 1861 2655 1701 2204
945 591 656 594 944 226 570 1005 2047 2455 2597 2409 2724 3206 3107 3001 1650 2401 3142 2348 1880 838 2097 860 2608 2883 2890 2624 2726 2345 2982 2907 2842 3014 2984 3147 2331 1859 2057 1741 1857 2121 2296
539 316 268 89 989 382 653 1323 2143 2468 2513 2299 2659 2807 2998 3028 3092 3443 3352 3329 2717 1086 626 791 872 2971 2962 2755 2927 2486 2308 2705 3022 2479 2892 3095 2200 2208 1747 1020 2242 2584 2338
22 118 34 0 296 614 273 943 2135 2412 2591 2556 2542 2512 2635 2834 3110 2956 3291 2995 2890 1591 679 0 221 2626 3131 2811 2951 2352 2162 2200 2434 2693 2629 2765 3302 2676 2471 2267 2379 2006 2382
2 8 5 1 5 4 575 659 345 1597 2150 2350 2714 2713 2933 2561 2725 2857 2902 3271 3134 3149 2991 2354 2580 2872 2698 2540 2676 2751 2150 2319 2662 2685 2178 2398 2380 3340 3182 2723 2600 2839 2847
9 10 10 4 2 2 2 23 355 555 947 2135 2565 2610 2555 2675 2674 2872 2792 3187 3171 3016 2662 2650 3165 3040 3108 3194 2956 2740 2864 2754 2285 2693 2660 2828 3115 3178 2472 3523 3000 2438 2539
7 7 8 6 16 6 5 11 38 21 382 914 437 2490 2612 2584 2394 3188 3210 2957 3297 3139 3026 3019 3246 2852 3025 2993 2873 3121 3021 3377 2587 3001 2990 3222 3148 3150 3197 2980 2994 2863 2898
0 0 0 0 2 6 3 6 12 6 48 281 455 473 789 2231 2825 2865 2631 3169 3130 3096 3255 3189 2911 3226 2963 2259 2598 2870 2985 2676 2513 2868 2903 3123 3087 2522 2981 2617 2740 2672 2716
0 0 0 0 0 0 0 2 10 5 1 5 24 153 567 758 1618 2326 2454 2651 2998 3259 3275 3035 3130 2817 1993 1298 1013 1670 2215 3059 2986 2534 3019 3229 2577 1852 1184 1171 1149 1090 2826
0 0 0 0 0 0 0 0 0 0 0 0 0 3 17 136 195 612 1925 2310 2393 2374 2893 2991 3129 2970 3019 1946 1011 0 1957 2862 3012 2971 2950 2935 1846 1532 2672 1104 964 745 253
0 0 0 0 0 0 0 0 1 0 0 0 0 0 0 3 25 232 188 319 1003 2252 2247 2422 2818 2888 2949 2475 1953 1130 558 1488 2057 2218 2712 2897 2334 2468 2651 3045 2912 1959 1828
0 0 0 0 0 0 0 0 0 6 0 1 6 0 0 0 0 3 1 13 121 319 1459 2127 2287 2485 2773 2225 1511 469 956 1454 1460 1477 1969 2129 2140 2812 2348 1577 2302 2787 3088
0 0 0 0 0 0 0 0 0 0 0 0 3 4 5 6 0 0 3 35 80 166 493 1069 2012 2009 2159 2230 1852 654 1771 1935 1871 1788 1709 1049 1072 1664 1205 1072 2430 2005 1742
0 0 0 0 0 0 0 0 0 0 0 0 0 1 11 0 12 8 6 0 31 182 268 711 1554 2011 2011 2349 1804 898 1182 2173 2066 1913 1786 1792 1280 641 210 36 1114 1456 1865
0 0 0 0 0 0 0 0 6 9 12 13 4 0 1 3 0 0 0 0 0 102 296 396 807 1933 1888 1388 751 10 0 181 617 1769 1923 1889 0 0 0 0 0 50 171
0 0 0 0 0 0 0 0 6 11 14 7 5 23 8 0 3 8 0 0 0 9 210 220 256 215 140 353 0 0 0 0 1 8 37 0 46 34 0 8 0 0 0
0 0 0 0 3 1 3 0 3 17 10 15 16 5 0 0 0 0 0 0 0 0 0 0 0 0 0 235 0 0 0 0 0 0 0 0 0 2 135 61 512 0 26
5 3 2 3 5 3 4 3 9 14 2 5 2 1 0 0 0 2 5 1 0 0 0 0 0 0 0 0 0 0 0 0 0 2 2 1 397 1603 1897 1831 1464 1557 658
3 7 8 10 8 5 6 4 4 7 5 4 1 0 0 0 0 0 0 0 0 0 0 0 0 0 0 0 0 0 0 0 0 3 1 0 12 434 466 1227 1428 1638 1457

GFSMW_con_sbcape_087.txt.gz
CAPE
14 7 6 17 290 130 183 151 575 733 500 925 172 451 151 422 1129 1194 1193 802 588 1589 1428 1336 423 738 945 332 1501 1308 1466 1518 1247 1125 576 510 0 47 518 468 593 427 829
5 0 0 6 183 97 163 743 828 612 552 709 714 653 716 643 834 1163 1365 795 948 1265 1427 1216 1119 716 815 1431 939 336 1229 854 539 798 403 321 289 328 98 315 538 487 691
1 3 0 11 44 173 340 662 575 684 582 606 866 1602 1016 1089 1175 1459 1153 1705 1601 1520 1088 1111 1089 343 675 682 754 1556 658 714 951 908 453 756 546 1008 294 92 149 4 601
3 6 3 1 39 174 439 690 531 272 293 1009 497 913 547 708 518 739 1060 1121 1521 1734 1548 1315 1203 1340 434 186 690 1627 1233 247 636 393 660 765 244 865 620 294 55 163 510
19 6 31 5 86 140 387 912 568 298 220 904 1203 1097 524 174 247 1157 1084 1521 1535 1747 1428 1293 990 881 673 420 1058 1412 1392 1385 1867 1875 1324 1089 1028 1308 742 666 43 220 250
19 64 57 54 83 116 292 974 667 613 417 1045 957 1014 860 191 245 568 989 852 1143 1209 1028 1696 1148 1162 647 160 105 1347 1544 1804 1515 2038 1367 1347 563 217 1074 1011 849 163 496
31 35 62 146 19 52 288 450 1087 732 692 1054 743 1219 1095 770 532 860 384 890 614 441 522 1494 1480 1205 717 247 314 1584 1502 1978 1284 1470 1711 1520 1555 1303 1095 799 1258 890 823
19 46 0 146 126 5 287 493 1009 1102 926 792 1014 1077 1219 998 715 851 476 1036 31 276 439 989 1216 1621 1122 1248 1424 1447 1568 1408 1516 1056 1019 1240 1489 1333 938 1214 766 750 1254
0 0 0 98 319 26 313 559 896 1123 871 1078 1058 1504 1275 1233 1016 856 576 404 353 952 1282 731 1319 1380 1481 1084 1566 1361 1586 1545 1352 1256 1413 1269 1407 972 1133 1387 327 797 609
239 24 71 64 27 51 385 758 1062 1178 1256 1256 1342 1751 1699 1642 1595 1895 1705 1268 691 554 595 676 631 1266 1571 1480 1346 1075 1242 1316 1425 1717 1226 1418 1529 1253 1459 1563 1427 1148 833
168 238 131 2 3 1 128 600 1032 1492 1633 1456 1502 1633 2070 1975 1970 1799 2008 1297 673 462 411 247 46 572 1364 1505 1465 1340 1123 1549 1265 1023 1471 1034 1629 1079 1499 1697 1425 1349 1410
2 42 11 36 36 1 5 21 26 249 626 1656 1758 1789 1880 2061 2205 2193 1955 1678 534 610 266 0 0 17 870 1658 1431 1374 1500 1289 1167 1178 1553 1250 1449 1540 1762 1581 1388 1405 1043
2 2 2 3 2 1 7 3 19 90 209 235 1322 1228 2010 2004 2042 2086 2020 1943 1742 1060 966 570 513 1121 1378 1424 1562 1391 1461 1622 1110 1215 1401 1569 1356 1631 1569 1046 1788 1653 1467
2 3 3 2 3 2 1 1 2 52 47 151 27 171 227 523 1634 2142 2143 2180 2086 1948 1630 1733 1436 1748 1753 1888 2015 1712 1293 1339 1827 1473 1885 1605 1032 1277 1533 1424 1254 1457 1582
0 0 0 1 2 2 2 4 1 4 1 11 42 12 259 328 853 1259 1955 1864 2014 2106 2033 1908 1945 2230 1833 1756 1880 1977 1842 1797 1721 1747 1685 2030 2204 2197 1961 1685 1410 1461 1453
0 0 0 0 0 0 1 4 1 1 3 0 2 0 88 141 126 441 965 1307 1292 1411 1855 2103 2083 1929 1929 2063 1871 1621 1398 1995 1565 1404 1630 1945 2113 2058 1801 1240 1630 1667 1743
0 0 0 0 0 0 0 0 1 0 0 0 1 1 1 15 72 128 96 123 261 1256 1320 1329 1481 1782 2000 1759 1318 107 370 1219 1682 1908 1818 1640 1631 1885 1705 1734 802 128 123
0 0 0 0 0 0 0 1 2 0 0 0 0 0 0 0 0 3 5 63 68 157 756 1178 1360 1476 1596 1759 1621 694 1 281 612 1170 1811 1886 1806 1640 1521 1764 1914 1386 813
0 0 0 0 0 0 0 0 0 0 0 0 0 0 0 0 0 0 0 2 8 40 110 278 711 1051 1371 1494 1322 331 194 484 665 742 937 1275 1481 1879 2039 1195 1137 1217 2000
0 0 0 0 0 0 0 0 0 0 0 0 0 0 0 0 0 0 0 0 0 8 193 197 289 761 1076 1249 1010 320 280 996 1184 1216 962 829 684 638 1058 619 827 904 1056
0 0 0 0 0 0 0 0 0 0 0 0 0 0 0 0 0 0 0 0 0 0 0 50 58 313 666 51 1 1 0 533 927 1219 1265 1215 58 0 0 0 43 571 440
0 0 0 0 0 0 0 0 0 0 0 0 0 0 0 0 0 0 0 0 0 0 0 0 50 263 0 0 0 0 0 0 2 1 18 11 1 2 1 0 0 0 0
0 0 0 0 0 0 0 0 0 0 0 0 0 0 0 0 0 0 0 0 0 0 0 0 0 0 0 0 0 0 0 0 0 0 0 0 0 0 0 0 0 0 0
0 0 0 0 0 0 0 0 0 0 0 0 0 0 0 0 0 0 0 0 0 0 0 0 0 0 0 0 0 0 0 0 0 0 0 0 0 0 0 0 1 23 167
0 0 0 0 0 0 0 0 0 0 0 0 0 0 0 0 0 0 0 0 0 0 0 0 0 0 0 0 0 0 0 0 0 0 0 0 0 0 0 267 1068 975 514
0 0 0 0 0 0 0 0 0 0 0 0 0 0 0 0 0 0 0 0 0 0 0 0 0 0 0 0 0 0 0 0 1 1 0 0 0 0 0 0 25 296 793

GFSMW_con_sbcape_090.txt.gz
CAPE
5 72 106 121 74 17 0 0 0 47 465 322 74 69 120 379 850 722 1052 1093 1017 1056 1140 1120 172 363 133 231 866 825 798 1138 593 255 348 80 0 149 281 281 314 437 809
9 18 117 112 118 16 71 155 0 93 321 439 108 263 272 350 717 887 903 516 563 1157 991 954 325 516 660 1151 820 315 614 414 302 507 1 179 11 72 26 326 378 270 490
0 2 136 96 65 0 154 207 274 200 201 459 411 843 510 656 852 948 1092 988 1088 1121 1293 942 717 156 261 330 505 986 385 603 456 546 170 391 282 371 69 1 238 207 134
0 2 118 112 23 85 267 326 391 217 169 339 449 790 709 538 490 709 655 1042 1325 1097 957 1065 921 943 221 192 199 1179 662 146 1060 420 749 295 30 694 359 56 69 0 53
79 0 36 133 99 72 406 302 298 185 148 633 747 374 383 140 358 609 923 775 918 1319 1300 966 568 618 266 19 558 1184 971 1197 1375 1420 1092 765 149 201 386 543 37 11 35
80 38 90 34 140 138 456 208 147 107 0 356 748 564 261 79 535 705 725 603 600 617 936 993 780 497 509 267 216 1126 1225 1199 1080 1264 1040 923 823 1020 745 602 522 67 24
31 45 46 40 84 172 626 295 133 0 0 389 558 608 404 84 415 389 643 663 614 593 762 1158 884 811 317 23 0 1066 1186 1064 956 874 1037 892 1107 1135 836 429 522 770 591
48 62 52 78 142 141 427 762 216 161 180 321 629 572 626 520 429 443 252 634 419 230 413 1068 1080 905 846 699 1033 912 1022 920 1042 841 800 414 880 770 617 1051 317 399 424
21 41 25 95 116 92 218 652 628 283 275 359 476 498 789 624 546 580 178 722 358 52 365 488 981 1162 1085 613 1028 952 1179 1177 976 820 717 801 939 676 809 703 700 481 471
10 2 0 126 83 49 58 298 896 681 420 596 432 740 722 842 669 477 782 483 277 375 858 723 920 993 1098 924 878 999 716 1059 965 1128 1256 840 1071 1088 1069 1138 987 778 385
88 267 30 64 55 33 70 203 479 683 763 802 746 764 1107 1072 969 1117 1148 838 410 397 425 390 623 613 1045 1203 985 774 788 966 1018 842 985 974 772 883 763 1259 874 882 1012
21 127 71 73 32 41 38 55 143 193 193 218 507 895 1044 1216 1199 1143 1274 1153 599 282 167 174 79 67 473 947 1087 1004 1252 916 875 979 762 1124 908 795 1148 1381 760 1265 811
2 2 1 28 43 14 18 73 111 99 69 73 146 583 582 783 1232 1507 1622 1360 700 369 336 118 0 0 16 552 1232 1060 900 1034 1108 853 721 1021 960 891 811 1040 845 1015 1006
4 3 3 1 1 2 30 48 118 54 43 65 14 5 178 250 436 912 1257 1031 1210 704 556 507 331 406 720 904 965 1243 849 867 1008 1198 1116 1191 1160 932 674 808 924 765 883
3 3 2 2 2 2 1 1 9 19 45 32 37 29 140 148 314 745 920 1430 1079 1128 1154 1115 1235 1170 1204 1212 1209 1424 1515 1199 991 1223 1401 1350 1501 1568 1383 1319 1270 928 871
0 0 1 1 1 1 1 1 1 4 0 25 1 10 35 81 96 83 100 244 511 903 1087 1302 1175 1105 1479 1870 1420 1167 1270 1457 1395 1257 1096 1062 1312 1334 1437 1441 1084 1146 1177
0 0 0 0 0 1 0 0 0 0 0 1 2 2 16 9 9 10 35 67 76 165 478 649 903 1176 1225 1310 1092 590 148 488 777 1154 1200 1135 1446 1483 1471 1522 1315 230 207
0 0 0 0 0 0 0 0 1 1 1 1 1 1 1 1 1 3 0 23 10 42 90 221 305 487 944 1182 909 643 83 113 179 525 1045 1299 1401 1263 1216 1156 1128 1180 1026
0 0 0 0 0 0 0 0 0 0 0 0 0 0 1 0 0 0 5 4 0 0 17 117 114 226 439 468 76 1 201 283 450 403 429 566 785 1102 1372 710 986 948 934
0 0 0 0 0 0 0 0 0 0 0 0 0 0 0 0 0 0 0 0 0 0 1 0 53 52 458 1 1 1 26 308 530 782 796 583 271 293 0 42 675 857 769
0 0 0 0 0 0 0 0 0 0 0 0 0 0 0 0 0 0 0 0 0 0 0 0 1 4 0 0 0 0 0 0 2 3 169 242 0 1 0 1 0 0 42
0 0 0 0 0 0 0 0 0 0 0 0 0 0 0 0 0 0 0 0 0 0 0 0 2 1 0 0 0 0 0 0 0 0 0 0 0 0 0 0 0 0 0
0 0 0 0 0 0 0 0 0 0 0 0 0 0 0 0 0 0 0 0 0 0 0 0 0 0 0 0 1 0 0 0 0 0 0 0 0 0 0 0 0 0 0
0 0 0 0 0 0 0 0 0 0 0 0 0 0 0 0 0 0 0 0 0 0 0 0 0 0 0 0 0 0 0 0 0 0 0 0 0 0 0 0 0 0 0
0 0 0 0 0 0 0 0 0 0 0 0 0 0 0 0 0 0 0 0 0 0 0 0 0 0 0 0 0 0 0 0 0 0 0 0 0 0 0 0 0 0 83
0 0 0 0 0 0 0 0 0 0 0 0 0 0 0 0 0 0 0 0 0 0 0 0 0 0 0 0 0 0 0 0 0 0 0 0 0 0 0 0 0 0 0

GFSMW_con_sbcape_093.txt.gz
CAPE
178 206 188 148 94 0 0 0 40 121 21 1 0 41 195 272 446 154 549 608 660 1005 895 940 332 209 56 300 771 552 420 679 288 178 159 0 0 117 168 178 307 422 654
175 185 98 174 82 1 0 0 0 114 81 28 20 103 59 207 501 550 762 711 809 1012 969 694 106 354 599 855 813 675 180 172 178 469 0 103 0 74 28 71 283 286 95
140 132 91 127 83 3 0 0 0 39 209 102 116 377 348 393 669 671 730 514 366 919 1079 811 477 263 276 263 400 933 629 302 258 311 166 245 190 91 9 0 77 348 156
58 117 77 108 108 18 22 0 0 0 118 231 322 460 417 408 206 387 591 678 808 962 783 711 594 352 35 133 161 1059 362 261 852 489 476 112 19 781 358 10 64 4 1
9 78 111 102 71 42 85 75 43 1 98 218 288 290 197 161 163 347 670 382 633 1053 697 827 621 495 132 0 299 982 870 1073 1077 934 727 446 22 126 293 457 72 3 0
1 82 120 91 50 79 163 179 122 0 102 254 372 388 310 105 263 464 597 575 428 578 842 815 484 346 341 155 281 836 966 940 894 845 772 694 814 964 676 528 374 285 70
49 47 45 79 43 161 242 269 140 36 43 208 344 372 223 85 260 334 512 364 388 587 624 886 699 506 386 86 2 664 841 898 866 648 665 621 920 804 548 273 224 521 449
78 36 72 29 82 161 337 250 77 24 0 146 301 366 357 77 38 241 299 400 348 443 446 740 908 585 541 339 0 659 804 721 883 774 555 284 582 503 580 736 275 392 68
18 59 94 164 162 131 462 294 136 39 5 63 258 324 416 300 278 241 242 226 468 249 139 400 855 564 665 566 675 771 831 1034 843 631 513 561 704 513 653 474 526 334 500
5 40 49 123 112 56 129 435 357 189 132 72 155 305 432 487 321 260 423 241 361 242 99 401 465 770 961 924 471 811 686 575 696 724 928 633 666 865 783 821 631 464 152
20 2 64 79 36 68 152 248 471 479 360 325 220 253 405 495 580 471 476 647 376 240 350 603 539 631 726 809 715 603 659 667 743 593 687 683 473 568 361 895 538 678 489
68 64 38 42 25 60 68 111 187 179 139 155 375 515 498 626 678 527 710 898 841 204 297 286 268 331 367 634 927 921 898 807 732 610 598 604 832 559 438 1001 543 820 605
3 79 90 66 94 121 129 83 40 65 16 10 79 257 350 512 687 806 886 922 1028 406 188 131 119 49 26 136 623 927 707 727 750 818 784 547 564 661 526 431 559 514 692
3 2 1 4 25 26 68 99 117 96 20 39 42 118 37 82 208 327 610 680 902 697 336 223 97 2 0 11 226 680 813 672 688 736 834 801 889 877 690 504 520 487 451
3 3 1 1 2 3 33 123 107 68 37 35 22 39 74 73 64 32 61 316 612 836 609 354 440 395 494 690 804 806 974 980 771 680 673 869 986 1121 1006 941 1052 923 762
4 4 3 1 1 3 2 3 1 4 12 31 34 52 16 4 6 3 8 4 41 142 346 609 668 714 1125 1519 1309 923 902 1001 1045 1077 964 758 845 869 902 487 376 815 1127
1 1 1 2 2 1 1 2 1 0 1 1 2 2 3 0 0 0 0 2 1 15 45 152 322 530 490 883 695 456 419 576 601 738 808 845 1014 1020 937 1100 840 423 41
0 0 0 0 1 2 1 0 0 0 0 0 3 5 4 2 0 0 0 0 0 0 8 54 54 97 249 43 36 1 5 199 177 182 356 594 762 899 989 944 876 812 756
0 0 0 0 0 0 0 0 0 0 0 0 0 0 0 0 4 0 1 0 0 0 0 12 30 84 98 1 1 62 133 235 260 230 267 317 374 256 14 52 462 580 635
0 0 0 0 0 0 0 0 0 0 0 0 0 0 0 0 0 0 0 0 0 0 0 0 34 5 0 0 0 0 0 0 0 0 8 1 1 1 1 1 0 0 32
0 0 0 0 0 0 0 0 0 0 0 0 0 0 0 0 0 0 0 0 0 0 0 18 8 0 0 0 0 0 0 0 0 0 0 0 0 0 0 0 0 1 0
0 0 0 0 0 0 0 0 0 0 0 0 0 0 0 0 0 0 0 0 0 0 0 0 0 0 0 0 0 0 0 0 0 0 0 0 0 0 0 0 0 0 1
0 0 0 0 0 0 0 0 0 0 0 0 0 0 0 0 0 0 0 0 0 0 0 0 0 0 0 0 0 0 0 0 0 0 0 0 0 0 0 0 0 0 0
0 0 0 0 0 0 0 0 0 0 0 0 0 0 0 0 0 0 0 0 0 0 0 0 0 0 0 0 0 0 0 0 0 0 0 0 0 0 0 0 0 0 0
0 0 0 0 0 0 0 0 0 0 0 0 0 0 0 0 0 0 0 0 0 0 0 0 0 0 0 0 0 0 0 0 0 0 0 0 0 0 0 0 0 0 0
0 0 0 0 0 0 0 0 0 0 0 0 0 0 0 0 0 0 0 0 0 0 0 0 0 0 0 0 0 0 0 0 1 0 0 0 0 0 0 0 0 0 0

GFSMW_con_sbcape_096.txt.gz
CAPE
60 105 198 187 74 4 0 0 72 18 17 17 15 65 116 160 215 217 589 521 627 964 745 678 560 415 307 713 530 507 1001 818 397 670 599 127 147 168 609 524 608 717 754
67 122 180 134 86 6 0 0 16 0 0 1 3 64 50 138 355 183 507 688 802 941 916 549 167 410 825 933 985 447 472 457 500 797 70 672 408 532 515 314 604 729 577
124 173 81 124 83 5 0 0 0 0 0 0 108 136 219 276 478 502 677 528 293 790 691 417 375 360 396 419 570 1052 745 815 729 375 593 697 654 317 227 453 372 568 647
160 144 99 101 79 18 0 0 0 0 0 0 173 246 173 210 170 310 527 667 630 898 1059 804 407 282 138 231 425 1152 308 836 1230 802 546 245 266 1160 1153 492 309 119 229
132 146 137 158 114 45 8 0 0 0 66 91 140 163 191 103 80 164 325 356 424 792 640 767 649 657 254 99 308 1142 1222 1418 1497 1081 956 860 353 433 623 978 1023 793 52
93 156 182 166 156 70 28 0 0 0 0 89 96 205 169 89 143 268 433 516 447 585 825 908 516 437 435 190 427 966 1126 1076 1052 1079 1050 1005 1255 1285 1179 957 726 830 790
12 139 133 116 143 83 71 40 0 0 0 99 171 169 213 131 87 222 340 411 405 534 601 892 532 376 384 325 105 801 983 1165 1172 933 1114 852 1115 1032 897 692 646 744 898
17 118 91 61 60 86 150 165 43 0 0 5 155 158 84 85 97 125 298 376 362 460 480 717 842 615 502 166 32 484 912 890 1070 1002 885 791 923 809 974 1271 1155 1301 962
42 99 59 38 86 73 263 144 122 40 2 1 110 196 212 114 82 161 199 292 330 379 315 480 897 662 530 650 707 890 954 1207 1046 847 755 880 963 909 931 847 877 1170 1216
1 26 21 7 44 72 224 193 136 53 29 17 77 136 262 246 198 153 255 162 140 340 292 153 341 700 760 811 542 842 827 869 775 906 1068 984 959 1169 1122 1109 972 783 830
71 57 114 94 88 92 164 418 187 70 113 61 17 112 197 276 296 246 334 468 400 262 131 215 369 538 710 879 905 672 744 834 885 850 944 1080 806 870 716 961 1042 939 719
1 25 65 72 56 29 145 209 218 117 144 173 165 93 138 280 370 302 362 572 759 337 87 268 467 550 383 672 904 901 970 541 846 884 802 696 855 991 774 957 1302 972 1051
52 1 34 47 42 43 82 134 59 15 1 6 97 194 175 293 302 445 585 619 717 566 224 177 183 106 130 310 556 711 880 807 822 508 886 750 743 1035 884 869 862 763 915
73 134 64 82 57 49 108 84 28 7 1 35 44 27 59 1 58 157 216 306 561 765 360 228 251 177 138 51 32 399 918 923 910 747 814 884 830 834 1076 945 1006 786 881
2 10 53 39 8 49 119 128 127 74 50 33 15 32 34 3 3 2 1 19 101 311 504 472 350 261 125 142 331 516 799 1069 1147 1086 1005 1001 898 775 814 1432 1655 1217 1239
4 2 5 2 1 1 6 10 23 58 42 28 20 1 17 3 0 9 1 0 0 0 1 238 382 451 594 845 554 590 1083 1227 1309 1562 1469 1277 836 947 754 339 105 503 1589
3 7 3 2 2 2 2 1 1 1 2 2 2 4 0 2 0 0 0 0 0 0 0 16 22 62 176 1 1 0 288 908 951 973 1012 967 1046 887 1083 933 626 191 8
0 0 3 4 1 0 0 0 0 0 0 0 0 1 4 4 3 0 0 0 0 0 0 0 6 84 18 1 1 1 72 270 150 224 297 389 462 50 16 334 897 1061 1083
0 0 0 2 0 0 0 0 0 0 0 0 0 0 0 0 0 2 4 0 0 0 0 0 44 0 1 0 0 2 63 36 18 59 16 13 4 2 0 0 18 96 273
0 0 0 0 0 0 0 0 0 0 0 0 0 0 0 0 0 0 0 0 0 0 0 5 4 0 3 0 0 0 0 0 0 0 0 1 0 1 2 0 0 0 0
0 0 0 0 0 0 0 0 0 0 0 0 0 0 0 0 0 0 0 0 0 0 0 0 0 0 0 0 0 0 0 0 0 0 0 0 0 0 0 0 0 0 0
0 0 0 0 0 0 0 0 0 0 0 0 0 0 0 0 0 0 0 0 0 0 0 0 0 0 0 0 0 0 0 0 0 0 0 0 0 0 0 0 0 0 1
0 0 0 0 0 0 0 0 0 0 0 0 0 0 0 0 0 0 0 0 0 0 0 0 0 0 0 0 0 0 0 0 0 0 0 0 0 0 0 0 0 0 0
0 0 0 0 0 0 0 0 0 0 0 0 0 0 0 0 0 0 0 0 0 0 0 0 0 0 0 0 0 0 0 0 0 0 0 0 0 0 0 0 0 0 0
0 0 0 0 0 0 0 0 0 0 0 0 0 0 0 0 0 0 0 0 0 0 0 0 0 0 0 0 0 0 0 0 0 1 0 0 0 0 0 0 0 0 1
0 0 0 0 0 0 0 0 0 0 0 0 0 0 0 0 0 0 0 0 0 0 0 0 0 0 0 0 0 0 0 0 0 0 1 0 0 0 0 0 0 1 1

GFSMW_con_sbcape_099.txt.gz
CAPE
191 292 422 475 551 586 620 730 829 1090 1084 1081 975 1091 940 1090 1268 1347 1539 1455 1726 1929 2231 1847 1882 1580 2067 2267 2024 1766 1999 1779 1975 1816 1290 1184 986 1099 1426 1629 1596 1580 1558
179 197 365 425 526 568 567 693 862 1138 1131 1258 1161 1109 1167 911 1262 1392 1635 1773 1890 1963 2089 2186 1564 1850 2106 2443 2589 2496 1670 1848 1993 1795 1523 1101 1056 1488 1369 1389 1370 1590 1586
158 269 348 415 522 544 597 640 920 1161 1073 1110 1059 1134 1236 1260 1380 1427 1309 1882 1801 1830 2107 1879 1669 1989 1888 1660 2147 2350 2170 1887 1965 2085 1853 1403 1330 1837 1366 1320 1291 1698 1576
147 256 313 408 458 526 515 698 975 1067 868 933 1155 1499 1154 1477 1140 1495 1960 2215 1818 1697 1706 2067 1941 1897 1585 1803 1952 2152 2225 2312 1997 2056 1863 1971 2204 1960 1127 1630 1369 1542 1033
89 204 318 365 422 481 431 576 855 947 719 809 1234 1458 1357 1216 1319 1514 1958 2328 2033 2156 1757 2046 2059 2119 1583 1548 1787 2451 2560 2320 1936 1748 2027 2314 2070 2319 2124 1449 1685 1614 1508
93 203 318 328 461 425 321 409 743 846 968 821 1024 1486 1634 1489 1303 1482 1464 1555 1521 1839 2054 1988 2076 2068 1995 1681 1638 2466 2570 2376 2014 1673 1650 1528 1753 2138 2218 1823 1829 2108 2113
110 225 277 202 423 381 345 349 572 808 728 960 1002 1287 1422 1587 1589 1928 1449 1436 2468 1999 1776 2202 2373 1928 1952 1731 1652 2400 2351 2388 2102 2285 1625 1446 1491 1826 2229 2357 1909 1728 1842
76 212 314 231 459 421 412 440 502 705 568 769 1120 1366 1681 1201 1518 1644 1304 1364 1542 1382 1804 1879 2040 1937 1899 1618 1532 1591 1963 2119 1929 2264 2260 1698 1746 1681 1899 1930 2247 1745 1880
85 164 346 456 502 216 384 543 632 577 451 460 1000 1166 1188 1270 1293 1373 1417 1316 1575 1464 1533 1723 1688 2019 1888 1910 1831 1227 1987 2292 2349 2087 2128 2152 1839 2004 2065 2141 1882 2042 1560
110 204 163 166 214 240 309 417 599 610 490 432 774 902 1171 1277 1354 1409 1507 1470 1403 1492 1583 1503 1563 1851 1971 1986 1986 1880 2122 2172 2043 1693 2311 2418 1901 2060 2128 2139 2091 1807 1728
307 415 292 143 108 204 157 494 609 482 535 410 668 934 958 1374 1479 1390 1350 1622 1556 1621 1628 1528 1236 1260 1422 1772 2359 2279 1779 2074 2101 1940 2177 2273 2365 1786 1642 1801 2123 2071 1901
330 529 465 298 115 56 187 519 980 508 737 634 712 706 1076 1276 1414 1489 1501 1531 1433 1687 1645 1539 1713 1781 1674 1865 2103 2056 1908 2057 1902 1706 1899 1949 1694 2303 2157 1736 2196 1940 2141
331 417 479 511 311 136 87 226 351 418 252 415 774 853 912 976 1073 1313 1439 1498 1418 1782 1711 1550 1662 1783 1408 1219 1529 1806 1777 1978 1908 1842 1905 1700 1883 2257 1969 2293 2757 1783 1940
458 478 454 495 512 360 274 203 107 82 105 229 294 387 757 1106 1121 1302 1233 1484 1603 1622 1822 1637 1586 1567 1198 1049 1045 1144 1588 1904 1626 1557 1872 1861 2010 2169 2197 1865 2318 1884 2405
339 422 473 502 529 587 540 292 211 32 13 36 29 71 196 186 542 694 740 708 1169 1339 1612 1631 1511 1488 1289 859 1000 1135 1133 1247 1970 2058 1839 1851 1766 1277 1199 2211 2953 2203 2209
182 330 335 310 296 437 432 430 217 87 26 60 68 70 40 142 258 301 291 294 366 616 723 796 891 823 969 0 1 211 1783 2083 2224 2195 2229 2105 1427 1216 410 246 83 314 2081
86 104 48 8 33 67 39 33 40 50 82 137 110 48 9 4 9 77 126 135 181 207 256 325 460 250 4 0 1 1 1452 1976 2113 1968 1805 1674 1370 460 915 1356 889 523 28
3 4 2 2 1 1 1 0 0 0 0 0 2 4 5 3 1 18 37 41 57 47 117 334 8 0 0 0 0 5 933 1147 797 370 245 178 2 0 0 336 1218 1581 1757
1 2 1 1 1 0 0 0 0 0 0 0 0 0 3 3 3 3 1 0 2 1 218 3 2 0 0 0 0 0 0 3 4 1 0 0 0 1 1 0 0 46 470
2 2 1 3 0 0 0 0 0 0 0 0 0 0 0 0 0 2 0 3 5 31 9 2 0 0 0 0 0 0 0 0 1 0 0 0 0 0 0 0 0 0 0
0 0 0 1 0 0 0 0 0 0 0 0 0 0 0 0 0 0 0 0 0 0 0 0 0 0 0 0 0 0 0 0 0 0 0 0 0 0 0 0 0 0 0
0 0 0 0 0 0 0 0 0 0 0 0 0 0 0 0 0 0 0 0 0 0 0 0 0 0 0 0 0 0 0 0 0 0 0 0 0 0 0 0 0 0 0
0 0 0 0 0 0 0 0 0 0 0 0 0 0 0 0 0 0 0 0 0 0 0 0 0 0 0 0 0 0 0 0 0 0 0 0 0 0 0 0 0 0 0
0 0 0 0 0 0 0 0 0 0 0 0 0 0 0 0 0 0 0 0 0 0 0 0 0 0 0 0 0 0 0 0 0 0 0 0 0 0 0 0 0 0 0
0 0 0 0 0 0 0 0 0 0 0 0 0 0 0 0 0 0 0 0 0 0 0 0 0 0 0 0 0 0 0 0 0 0 0 0 0 0 0 0 0 0 0
0 0 0 0 0 0 0 0 0 0 0 0 0 0 0 0 0 0 0 0 0 0 0 0 0 0 0 0 0 0 0 0 0 0 0 0 0 0 0 0 0 0 0

GFSMW_con_sbcape_102.txt.gz
CAPE
276 460 536 419 440 511 677 773 838 1308 1206 1016 834 982 859 1186 1265 1340 1732 1970 1820 1682 1748 1676 1969 1809 1808 2376 2120 1635 1699 1057 1391 1160 892 939 1116 1193 1281 1262 1243 1362 1273
286 388 564 562 445 603 719 1055 1097 1610 1513 1283 1248 988 832 886 990 1151 1660 1690 1807 1540 1711 2015 1667 1956 1863 2434 2658 2524 1315 1362 2133 1041 1097 857 927 1007 951 1098 1015 1197 1374
214 362 529 635 642 559 764 1023 1295 1418 1677 1432 1759 1764 1625 1419 1454 1431 1214 1606 1709 1571 1602 1914 1863 2132 1777 1667 2129 2086 2669 1305 1997 2515 1910 1023 1180 946 856 1090 951 1216 1466
359 287 421 671 715 740 694 880 1274 1303 1715 1983 1409 1540 1282 1544 1200 1481 1206 1194 1135 1378 1396 1875 1931 2174 1630 1994 1945 2024 2389 2662 1535 1861 2294 2937 3266 1381 1020 897 1089 966 961
257 388 434 534 692 805 879 891 1375 1372 1115 1909 1522 1992 1027 916 1127 1287 1513 1218 1318 1462 1583 1644 2262 2289 1799 1933 1987 2167 2144 2010 1721 1713 1903 2605 2433 2676 1455 1076 1115 837 1093
246 301 432 527 619 829 854 839 1488 1853 1508 1657 1688 1427 1104 1183 1145 1266 1231 969 1338 1065 1096 1223 1558 2072 1960 2205 1634 1836 1719 2750 2219 1736 1624 1615 1792 1966 1748 1439 1608 1542 1820
348 253 493 719 725 849 927 828 1302 1694 1673 1498 1379 1472 1082 1033 1270 1270 811 1408 1303 1147 1253 1463 1517 1523 1802 2018 1669 2390 1779 2027 2205 2285 1650 1375 1442 1773 2117 2050 1810 1650 1802
388 336 455 766 880 860 1010 831 1113 1465 1476 1318 1479 1620 1175 661 545 791 1371 884 1445 1128 1790 1366 1510 1641 1470 1939 2140 1971 1608 1686 1466 1916 2334 1513 1493 1415 1495 1808 1890 1638 1651
292 353 513 800 825 878 1076 999 1020 1321 1323 1109 1383 1278 929 934 1043 1013 1248 1239 1165 1682 1772 1786 1545 1707 1641 1933 2027 1508 2010 2211 2226 1644 1842 1817 1290 1440 1499 1557 1477 1612 1353
158 293 479 740 614 746 1023 889 1102 1303 1092 961 1065 1019 966 952 644 903 761 1164 1784 1843 2003 2047 1893 1519 1548 1465 1792 1484 1661 2143 1652 1521 1789 2040 1288 1519 1346 1399 1319 1347 1309
471 313 401 742 917 985 829 508 1101 1240 1130 935 815 871 928 742 1048 947 793 1097 956 1592 1799 2228 2115 1847 1679 1782 2204 2024 1577 1884 1538 1693 1866 2089 2539 1596 1127 1038 1130 1213 1205
623 688 448 480 834 858 587 545 812 776 1063 927 1074 925 520 819 673 1037 853 1190 1079 1472 1404 1674 2286 1790 1291 1585 2038 1725 1211 1652 1328 1278 1415 1678 1368 2197 2112 1543 1676 1836 1826
781 840 920 680 700 341 181 192 457 1041 804 1176 1000 1348 543 532 788 920 1019 1252 1052 1158 1264 1601 1555 1179 1666 1612 1611 1577 1639 1485 1354 1163 1261 1282 1376 1667 1422 1907 1665 1131 1530
899 961 1028 957 1044 697 377 178 179 421 590 891 1010 707 740 742 792 1035 1352 1257 1665 1013 1035 1248 1691 1414 1231 1506 1725 1595 1619 1525 1291 1506 1300 1401 1419 1607 1832 1621 1901 1806 1947
743 804 812 865 975 1025 678 403 145 54 89 231 258 623 970 1042 1236 1223 1438 1500 1588 1228 1940 1413 1768 1819 1557 1084 1879 1916 1804 1870 1669 1687 1594 1495 1317 995 1120 1978 2148 1925 1919
781 905 853 870 914 954 887 643 540 324 229 67 35 59 143 373 764 1017 1206 1313 1528 1762 1808 1834 1794 1588 1243 0 1 140 1837 2015 1718 1666 1811 1552 1089 1195 766 608 378 543 2122
666 878 1028 972 1000 1150 990 913 586 373 295 75 40 41 124 154 175 284 618 836 1043 1134 1144 1185 1135 273 59 0 0 0 1544 1950 1535 1674 1840 1591 624 483 782 791 763 751 387
229 63 10 4 7 129 442 446 397 409 380 263 136 227 101 32 10 26 104 252 304 510 725 392 144 0 0 0 0 135 1448 814 423 427 169 73 0 0 0 335 962 1413 1647
9 4 5 3 2 1 1 1 1 1 1 2 5 14 5 3 3 2 24 69 278 322 426 103 3 0 0 0 0 170 291 194 27 0 0 0 0 0 0 0 7 46 202
4 4 3 3 1 0 0 0 0 0 0 0 0 0 0 34 88 64 4 2 162 26 0 0 0 0 0 0 0 0 54 2 0 0 0 0 0 0 0 0 0 0 0
4 3 1 3 3 0 0 0 0 0 0 0 0 0 0 6 4 4 9 7 0 0 0 0 0 0 0 0 0 0 0 0 0 0 0 0 0 0 0 0 0 0 0
0 0 0 0 0 0 0 0 0 0 0 1 0 0 0 0 1 11 14 3 0 0 0 0 0 0 0 0 0 0 0 0 0 0 0 0 0 0 0 0 0 0 0
0 0 0 0 0 1 0 0 0 0 0 0 0 0 0 0 0 4 0 0 0 0 0 0 0 0 0 0 0 0 0 0 0 0 0 0 0 0 0 0 0 0 0
0 0 0 0 0 0 0 0 0 0 0 0 0 0 0 0 0 0 0 0 0 0 0 0 0 0 0 0 0 0 0 0 0 0 0 0 0 0 0 0 0 0 0
0 0 0 0 0 0 0 0 0 0 0 0 0 0 0 0 0 0 0 0 0 0 0 0 0 0 0 0 0 0 0 0 0 0 0 0 0 0 0 0 0 0 0
0 0 0 0 0 0 0 0 0 0 0 0 0 0 0 0 0 0 0 0 0 0 0 0 0 0 0 0 0 0 0 0 0 0 0 0 0 0 0 0 0 0 0

GFSMW_con_sbcape_105.txt.gz
CAPE
120 169 144 94 198 352 382 362 553 1048 1138 708 881 1322 1975 2055 2354 1930 1704 1712 1738 1844 2077 2419 1924 2468 2975 2416 2008 2032 1742 912 869 1598 887 910 1142 1376 1294 1168 1138 1218 1266
195 264 335 210 151 341 352 427 978 1154 1554 927 2982 2467 1425 1280 1430 1567 1593 2023 1623 1837 1672 2589 2198 2203 1881 2159 2554 2608 2148 910 839 1619 1261 981 1090 1137 1077 1062 915 1115 1216
112 311 386 331 315 356 505 691 1017 1290 1524 1745 2216 1771 1722 1937 837 1232 1437 1552 1605 1641 1989 2015 2534 1871 2621 2215 2610 1947 2435 1155 1009 2483 2940 1552 2099 1033 914 1004 1046 1247 1492
124 242 342 411 260 453 465 982 1214 1498 1494 1778 2087 1886 1512 910 1825 1646 1758 1459 1481 1481 1618 1811 1961 2309 2950 3148 2391 2178 3518 3284 975 965 1457 2790 2865 3004 1160 717 1085 949 1108
121 82 266 266 246 490 529 733 1442 1846 1691 1826 1588 1646 1758 1120 542 1551 2253 1966 1836 1402 1438 1754 1980 2085 2120 1987 2521 2075 2898 2336 2545 1639 1211 2130 1649 1556 1734 1843 1317 737 872
217 200 210 356 276 461 425 671 1298 2077 1411 1736 1674 1888 1879 2063 1491 1704 1749 1524 1282 1483 1405 1516 1798 1872 2476 1928 1726 2087 2099 2850 3643 2555 2209 1258 1795 2442 2497 1617 1592 1831 1719
124 219 145 329 648 732 790 514 1262 1575 1414 1617 1248 1399 1340 1261 1385 1193 1339 928 1161 840 1456 1622 1658 1595 1973 2244 1899 2137 2510 1917 2307 3513 2332 832 1081 1237 1543 1601 2061 1242 1529
320 207 316 476 656 611 676 543 1230 1498 1520 1415 1474 1465 1327 970 707 1020 1994 1630 1179 1225 2077 1673 1498 1493 1883 1857 2183 1919 1397 2713 1726 1976 3551 2236 1065 968 1112 1378 1310 1264 2311
64 138 265 605 639 696 766 1054 1252 1433 1372 1293 1536 1537 1296 1160 1412 426 1618 1777 1314 2120 1981 1380 1495 1533 1532 1784 2062 1784 2094 2298 2166 2427 1905 2026 1327 806 1034 1059 1078 1149 971
227 253 276 366 425 675 782 1084 1125 1213 1169 999 1030 1142 1088 1058 1063 1213 1216 454 1054 1233 2076 1596 1716 1811 1824 1914 2029 2296 2317 1920 1846 1050 2054 2057 1325 1920 1088 917 875 874 942
358 249 444 335 644 852 789 970 935 1615 1172 1055 950 833 661 586 781 599 708 974 948 1148 1403 1665 1708 1590 1898 1903 1978 2823 1968 1989 1772 1707 1667 1455 2207 1670 1327 1404 1068 677 705
475 242 289 579 1369 1304 1268 1254 1698 1262 1299 1194 1295 1124 955 689 523 649 647 1079 1234 1390 1430 1794 1654 1367 1691 1785 1978 2284 1278 1416 1507 1465 1545 1533 1086 1933 2859 1715 3361 1789 2270
618 356 295 781 1427 1857 1667 1393 1419 1168 1229 1370 1305 1831 991 827 715 572 664 911 1291 1312 1439 1415 1415 1559 1680 1399 1769 2020 1516 1578 1217 1134 1372 1453 1530 1865 1782 2083 1833 1188 1839
1012 1038 869 696 662 575 786 1031 1093 877 1058 758 1249 1823 1441 900 941 1971 778 910 1405 1375 1219 1663 1884 1652 1554 1629 1432 1588 1760 1738 1437 1475 1862 1849 1520 1705 1946 1878 2437 2359 2177
1093 1068 1230 1447 1530 1249 1062 789 398 387 311 412 884 836 1885 1530 1413 1386 1611 946 1018 1141 1210 1217 2236 1377 1338 714 1282 1519 1721 1963 1789 1421 1479 1585 1171 772 1047 1347 2475 2492 2138
1211 1318 1295 1278 1465 1460 1288 1141 779 637 387 364 515 951 1104 1189 1479 1413 1396 1416 1283 1257 1308 1337 1527 1463 1282 0 0 0 1815 1717 2067 2073 1564 1237 1619 1155 1117 924 828 973 2321
1082 1240 1078 1134 1204 1330 1303 1165 859 540 619 291 280 272 350 240 386 587 1095 1161 1186 1269 1431 1262 1300 1120 310 0 0 0 1130 1703 1993 1861 1854 2011 794 1054 1211 548 539 528 489
988 886 654 611 669 1278 1472 1339 1184 1007 687 674 365 256 144 161 227 177 124 234 548 927 942 824 277 95 0 0 0 0 1442 1823 1576 1544 1273 1105 510 0 0 33 775 965 1359
134 28 30 6 5 51 550 986 919 770 700 570 528 379 296 166 21 11 54 97 247 433 272 165 88 0 0 0 0 0 1174 582 373 84 27 39 0 0 0 14 65 91 107
11 9 6 7 2 3 3 2 3 4 3 2 44 50 76 1 1 0 0 0 3 2 16 0 0 0 0 0 0 0 328 427 97 0 0 0 0 0 0 0 0 0 0
8 6 2 5 6 3 1 5 1 3 3 0 0 0 0 0 5 5 29 6 1 0 0 0 0 0 0 0 0 0 0 0 23 13 0 0 0 0 0 0 0 0 0
3 1 1 2 0 0 0 1 1 0 1 0 5 0 0 0 2 28 3 2 1 0 0 0 0 0 0 0 0 0 0 0 0 0 0 0 0 0 0 0 0 0 0
1 0 0 2 3 0 0 0 0 0 0 6 16 14 3 7 20 13 15 2 0 0 0 0 0 0 0 0 0 0 0 0 0 0 0 0 0 0 0 0 0 0 0
0 0 0 0 0 0 0 0 0 0 0 0 4 1 0 4 9 19 4 5 18 17 13 7 0 0 0 0 0 0 0 0 0 0 0 0 0 0 0 0 0 0 0
1 0 0 0 0 0 0 0 0 0 0 5 0 0 0 0 0 0 0 0 0 0 0 1 0 0 0 0 0 0 0 0 0 0 0 0 0 0 0 0 0 0 0
17 0 0 0 0 0 0 0 0 0 0 0 0 0 0 0 0 0 0 0 0 0 0 0 0 0 0 0 0 0 0 0 0 0 0 0 0 0 0 0 0 0 0

GFSMW_con_sbcape_108.txt.gz
CAPE
69 40 93 53 148 486 603 565 1311 1904 1029 1547 471 2293 649 2040 1783 1644 2742 3113 2853 2312 2915 3277 2746 881 864 3582 3521 3561 3255 3094 2662 3394 2118 1545 1831 2074 2063 1654 1381 1637 1917
79 83 56 76 44 547 809 1474 1189 1766 2076 1655 1305 1974 1884 1737 1964 2270 2792 2008 2492 2594 2799 2927 2055 1655 2779 3445 3727 3977 3816 2609 2119 2539 2427 2215 1973 1497 1288 1770 1332 1305 1458
61 112 193 44 126 509 904 1313 1703 1973 2321 1861 1590 2525 1230 2656 1690 1593 2388 2105 2253 2588 1247 2860 2028 2710 2965 3122 3808 3929 3532 3149 2256 3106 3717 2774 2465 2008 1453 1269 1618 1162 2076
156 166 155 97 153 533 608 1700 1956 1930 1773 1358 1844 828 2120 1471 1881 2512 2047 2682 2590 2368 2402 2515 2727 2965 912 1377 3767 3210 3635 3393 3311 2679 2237 3343 1029 377 1452 1246 1124 1330 1723
79 138 65 264 222 222 599 1323 2106 2023 2339 1014 2631 2036 2200 529 652 787 1166 2639 2962 2418 2134 2979 2682 3097 2634 2569 3518 3187 3702 3483 3679 2612 3142 2097 3585 1058 1590 104 171 1355 1525
79 127 112 129 475 199 536 1396 2151 2141 2151 1960 1665 1948 952 431 968 431 673 2042 1908 2285 2917 2076 2873 3161 3045 2090 2647 3688 3367 3345 4128 3525 3417 1640 601 352 567 313 64 409 1232
76 99 185 304 254 184 494 1232 1889 1840 2187 2124 1775 2079 2329 1153 339 676 760 108 1089 1082 2963 3486 2776 2711 2693 2814 2827 3270 3208 3309 3139 4219 3224 3023 274 2 241 296 78 219 917
18 210 150 220 304 437 191 1267 2018 1816 1824 2034 2409 2457 1847 2052 1349 845 662 0 164 348 1904 2817 2810 2937 2882 3080 2853 3093 2763 2972 3094 3646 3243 3195 2145 1334 1945 2365 1516 1100 1330
0 95 153 148 148 826 542 445 1970 2199 2009 1889 2180 2481 2523 1712 2618 1314 582 107 322 470 977 2140 2764 2758 2330 2942 2711 2885 2468 1806 922 2733 3482 3005 2269 1775 1883 856 2152 1985 1725
43 262 174 85 116 481 533 253 757 1835 1877 1768 1849 1775 1980 2112 2458 953 269 32 40 351 40 271 2536 2645 2199 2202 2931 2159 1748 2141 2372 2362 2520 2966 2462 2104 1838 1304 1623 1698 1363
47 451 393 382 42 80 176 590 1425 1787 1614 1627 1608 1895 1522 1729 1894 1957 1421 0 225 718 13 1524 2394 2266 2147 2091 2576 2507 2614 2030 2749 2702 2220 2282 2767 2688 2182 1962 1726 1452 1881
534 382 432 691 362 322 776 401 1255 1474 1321 1034 1791 1946 1604 1346 1451 1929 1563 2329 2368 2868 2261 2490 2630 2679 2523 2580 2703 2296 1986 1517 1932 2451 2630 2519 1749 2265 3254 2553 2586 2154 2603
1078 642 538 162 57 0 1 489 1019 949 1370 1214 1444 1165 1744 1773 1570 1133 1496 2395 2766 2474 2160 2462 2280 2129 2057 1864 2663 2698 2793 2109 1814 2423 2323 2286 2126 2167 2174 2712 2666 2063 2045
1110 842 656 445 131 0 0 176 1146 1133 940 961 1603 469 2054 1541 1741 1205 1658 2299 2717 2363 2508 2037 1485 2168 2348 2027 2309 2722 1986 2199 1944 1994 1814 867 1767 2186 2293 1864 2342 1890 2237
1197 1051 747 859 1490 452 491 668 421 766 1067 1065 1157 454 758 1283 1801 1541 2254 1695 2024 1594 1713 1910 2025 1726 494 0 10 1696 1967 1862 1973 2706 2136 2294 1197 518 868 1614 2449 2934 2493
1050 1348 1488 1230 1300 1277 934 690 711 741 591 421 467 707 816 773 625 783 1226 1603 1916 1754 1786 1643 1843 1378 0 0 0 0 1738 1780 1934 2025 1959 1357 1479 695 907 907 861 786 1693
1477 1644 1278 1284 1611 1532 1637 1248 1381 1251 950 610 648 843 1067 725 455 593 888 796 1067 1363 1497 1709 1538 82 0 0 0 0 168 1373 2316 2479 2575 1498 44 0 2 172 325 390 333
683 580 876 1116 1236 1378 1212 1123 1376 1150 964 809 732 431 326 187 102 134 432 525 278 341 478 188 108 16 0 0 0 0 26 1608 1794 886 1042 204 0 0 0 0 808 784 1219
7 5 4 4 2 29 656 1135 1260 1164 1085 960 561 329 276 74 93 51 72 73 106 110 1 0 0 0 0 0 0 0 1634 669 0 0 0 0 0 0 0 28 6 59 1
4 6 9 5 2 2 1 0 2 217 241 498 409 407 355 159 25 1 0 16 51 2 0 0 0 0 0 0 0 0 382 321 0 0 0 0 0 0 0 0 0 0 0
5 2 4 4 3 3 4 4 5 2 1 0 0 43 97 43 1 2 97 8 0 0 0 0 0 0 0 0 0 0 0 0 0 0 0 0 0 0 0 0 0 0 0
3 3 1 4 2 0 0 1 1 0 0 0 0 0 0 0 2 0 0 0 0 0 0 0 0 0 0 0 0 0 0 0 0 0 0 0 0 0 0 0 0 0 0
4 3 1 0 0 0 0 0 0 0 0 0 0 0 14 5 10 0 1 0 0 0 0 0 0 0 0 0 0 0 0 0 0 0 0 0 0 0 0 0 0 0 0
0 0 0 0 0 0 0 0 0 0 0 0 0 0 0 0 0 0 0 0 0 0 1 7 0 0 0 0 0 0 0 0 0 0 0 0 0 0 0 0 0 0 0
0 0 0 0 0 0 0 0 0 0 0 0 0 0 0 0 0 0 0 0 0 0 0 0 0 0 0 0 0 0 0 0 0 0 0 0 0 0 0 0 0 0 0
12 0 0 0 0 0 0 0 0 0 0 0 0 0 0 0 0 0 0 0 0 0 0 0 0 0 0 0 0 0 0 0 0 0 0 0 0 0 0 0 0 0 0

GFSMW_con_sbcape_111.txt.gz
CAPE
0 0 23 10 0 0 90 292 158 771 319 448 296 398 566 656 1131 979 1268 1222 1205 1298 1767 1683 0 0 232 781 2170 2092 2002 2226 1472 1376 1352 469 616 934 824 987 1054 780 1139
0 1 11 7 0 0 0 377 477 542 58 574 524 857 704 1055 1210 1285 1384 1194 1599 1309 1505 1397 460 335 1005 1931 2050 2385 2584 1842 844 869 1661 636 401 574 808 742 972 696 781
11 2 7 4 0 39 226 310 565 253 837 792 932 735 333 1136 892 776 1179 1288 1484 1277 1078 1507 949 830 908 849 2020 2451 2283 2495 1938 1534 2066 1590 1648 854 135 230 220 180 506
33 17 6 0 21 131 350 210 452 455 743 674 709 538 450 399 504 479 942 1029 1380 1387 1119 1376 1555 1073 918 1067 1779 1790 2196 2348 2321 1744 1612 340 182 5 433 556 2 267 322
30 39 7 0 45 194 205 451 517 565 591 415 997 415 310 230 367 495 400 484 1521 1422 1304 1118 1165 1536 1366 1160 1585 2171 1836 2079 2347 2084 2035 677 299 491 10 38 4 6 259
33 37 29 37 37 73 251 537 588 559 629 107 807 534 276 98 145 228 303 255 413 840 993 1479 1579 1172 1317 1301 1444 1738 1370 2034 1798 2260 1131 403 196 177 53 2 0 0 241
28 33 30 34 65 78 202 857 682 534 712 569 702 553 565 169 120 6 169 90 9 328 214 636 1141 1219 1141 1232 1496 1441 1168 1763 1500 1566 2086 1620 0 1 34 6 19 69 365
54 36 41 38 86 96 390 671 741 743 687 568 636 537 644 437 208 234 259 0 0 57 231 346 1082 1012 1336 1236 1571 1169 1680 1080 1084 1095 1332 1797 1177 365 393 281 5 0 134
35 69 55 111 86 93 580 961 774 575 917 887 970 663 576 300 315 288 134 6 0 2 225 365 750 1093 1341 1155 1297 1385 1060 1078 456 1057 1188 1497 1323 1049 1197 838 898 781 393
0 21 51 70 178 120 377 1136 1036 664 637 1059 869 835 831 627 182 91 34 0 0 0 153 372 284 1023 863 647 1158 961 563 1087 930 1222 890 1043 1021 988 1192 1132 1126 747 609
0 0 24 78 60 144 409 710 970 1178 906 961 793 960 1024 757 173 338 119 0 0 11 55 105 180 1033 678 1024 1109 1009 796 1103 987 1161 1121 976 1167 1213 838 1436 1364 1046 1273
0 0 75 80 151 244 226 393 272 820 883 841 752 823 809 810 787 591 122 0 0 40 119 10 888 898 883 1040 657 844 1449 918 823 831 923 977 1146 905 980 1042 1245 1004 1116
0 151 322 76 141 107 50 53 67 575 840 671 947 850 766 874 555 581 572 289 233 630 878 971 826 951 1173 942 1075 1258 954 917 1069 888 983 799 705 850 508 889 1018 626 767
37 276 261 131 157 1 0 0 0 6 358 923 797 815 770 723 724 487 355 1000 857 763 645 1027 819 771 692 82 515 1116 1099 915 1020 1311 985 556 498 1026 657 867 865 1165 1076
170 264 196 100 36 0 0 2 0 35 129 266 571 401 577 657 754 942 466 1080 1139 882 747 765 752 0 0 0 0 0 602 764 687 710 639 630 523 264 330 426 537 623 908
552 567 375 259 5 0 0 0 0 1 415 186 279 311 317 367 374 397 306 409 311 329 435 511 191 0 0 1 1 0 7 663 797 805 523 0 0 0 0 0 213 208 381
286 757 864 865 692 103 0 223 158 309 233 138 163 218 356 343 330 241 308 323 223 199 144 67 0 0 0 0 0 0 0 290 562 382 232 0 0 0 0 0 123 253 36
1 7 24 23 105 802 468 538 368 338 271 233 398 487 424 179 74 58 85 219 158 133 44 1 0 0 0 0 0 0 0 0 0 0 0 0 0 0 0 0 0 0 0
2 5 5 6 4 3 291 559 524 281 340 332 359 288 134 40 26 0 0 55 16 0 0 0 0 0 0 0 0 0 0 0 0 0 0 0 0 0 0 0 0 0 0
2 4 5 3 3 4 3 0 113 201 381 363 321 260 151 50 0 0 0 1 0 0 0 0 0 0 0 0 0 0 9 0 0 0 0 0 0 0 0 0 0 0 0
1 1 5 5 6 2 0 0 5 3 3 8 172 115 32 17 7 1 0 0 0 0 0 0 0 0 0 0 0 0 0 0 0 0 0 0 0 0 0 0 0 0 0
1 1 1 1 1 1 2 2 2 1 0 0 0 0 0 0 0 0 0 0 0 0 0 0 0 0 0 0 0 0 0 0 0 0 0 0 0 0 0 0 0 0 0
1 0 0 0 0 0 0 0 1 0 0 0 0 1 0 0 0 0 0 0 0 0 0 0 0 0 0 0 0 0 0 0 0 0 0 0 0 0 0 0 0 0 0
0 0 0 0 0 0 0 0 0 0 0 0 0 0 0 0 0 0 0 0 0 0 0 0 0 0 0 0 0 0 0 0 0 0 0 0 0 0 0 0 0 0 0
0 0 0 0 0 0 0 0 0 0 0 0 0 0 0 0 0 0 0 0 0 0 0 0 0 0 0 0 0 0 0 0 0 0 0 0 0 0 0 0 0 0 0
0 0 0 0 0 0 0 0 0 0 0 0 0 0 0 0 0 0 0 0 0 0 0 0 0 0 0 0 0 0 0 0 0 0 0 0 0 0 0 0 0 0 0

GFSMW_con_sbcape_114.txt.gz
CAPE
3 15 8 0 0 0 0 0 0 25 261 329 386 321 393 733 720 926 842 1237 913 1106 1213 1132 0 364 1317 1476 1510 1911 2304 1110 541 532 984 165 278 365 360 296 294 482 480
17 11 0 0 50 13 0 0 4 134 68 186 314 184 489 475 684 878 1058 1130 1232 1263 1535 1000 551 723 1127 1046 1708 1769 2033 1842 940 1000 779 353 164 177 119 322 370 265 296
0 1 0 0 0 0 60 0 119 0 78 395 555 243 393 693 600 642 675 998 1119 1076 1116 1070 958 752 520 700 1370 1590 1925 1751 1453 612 1234 967 1014 213 6 88 249 322 246
19 4 0 0 0 0 82 64 82 101 437 550 479 174 156 360 283 316 447 734 1038 933 1029 1159 1119 771 902 950 1480 1658 1647 1677 1607 1016 458 204 195 19 140 43 10 251 379
0 0 0 0 0 9 56 76 64 218 301 280 264 231 193 99 187 212 317 424 409 922 881 744 1159 1176 826 900 1061 1266 1580 1503 1573 973 411 281 98 6 0 0 0 2 157
0 0 0 7 7 127 78 116 45 316 158 212 372 272 147 171 197 159 222 219 49 306 417 761 856 826 929 1008 1055 1090 1243 1340 1362 1179 412 317 138 97 0 0 0 0 52
2 0 0 34 41 87 305 129 0 269 91 132 328 252 119 43 30 99 45 96 3 232 253 397 752 880 891 972 1128 962 699 1096 1147 1291 781 0 21 42 0 0 0 21 133
42 2 0 49 57 85 343 268 150 119 156 150 335 224 260 106 62 17 58 12 0 72 119 418 702 647 899 615 1118 675 1126 626 579 599 921 222 0 0 0 15 2 0 0
21 18 8 13 52 77 315 303 274 162 168 137 250 222 279 210 146 84 16 0 0 0 22 361 451 559 692 788 893 822 892 805 281 939 808 668 181 1 151 147 0 1 22
64 65 56 58 28 77 285 508 337 286 257 160 301 214 200 213 95 56 94 0 0 0 0 185 372 323 725 677 677 734 385 763 615 852 429 583 474 519 649 873 508 212 53
76 67 77 103 56 99 321 552 470 277 359 420 447 276 231 186 79 8 0 0 0 0 0 54 42 200 601 538 794 660 485 731 659 675 702 579 732 777 1008 746 823 712 607
6 15 91 102 95 263 556 668 657 400 293 618 385 278 249 184 0 0 38 51 0 0 0 15 56 104 541 612 508 516 1304 702 501 407 505 564 785 538 558 626 769 531 554
0 0 46 76 98 136 310 620 502 505 425 444 365 320 347 169 75 8 70 0 0 0 13 89 5 251 635 364 348 475 464 740 775 689 527 498 364 455 251 506 527 389 410
0 0 16 52 67 64 111 127 38 32 74 237 410 374 295 336 267 209 210 0 0 0 137 346 334 284 67 1 10 154 679 591 536 708 634 553 431 462 313 485 603 591 577
8 119 90 78 47 43 33 24 38 26 17 37 207 336 298 312 339 235 185 271 210 288 376 343 0 0 0 0 0 0 83 539 348 395 436 138 64 90 248 200 311 335 318
2 197 171 152 27 17 4 0 0 76 139 96 158 214 171 232 331 309 353 309 142 131 71 75 0 0 0 0 0 0 0 185 312 249 0 0 0 0 0 0 48 164 272
2 4 93 49 11 4 0 0 0 0 51 70 95 116 108 124 127 218 219 284 131 49 20 0 0 0 0 0 0 0 0 92 233 174 0 0 0 0 0 0 0 0 0
3 1 3 4 2 1 0 8 0 2 165 112 94 125 146 126 47 65 165 238 104 85 8 0 0 0 0 0 0 0 0 0 0 0 0 0 0 0 0 0 0 0 0
13 7 6 3 4 4 1 146 104 177 173 136 155 147 113 31 7 11 41 34 4 1 1 0 0 0 0 0 0 0 0 0 0 0 0 0 0 0 0 0 0 0 0
3 2 5 1 3 1 2 0 46 161 160 101 64 60 30 12 4 9 15 1 0 0 0 0 0 0 0 0 0 0 0 0 0 0 0 0 0 0 0 0 0 0 0
1 1 0 1 2 1 2 1 1 2 3 49 74 28 16 0 0 0 1 0 0 0 0 0 0 0 0 0 0 0 0 0 0 0 0 0 0 0 0 0 0 0 0
0 0 1 1 0 0 0 2 1 1 1 1 2 1 2 1 0 0 0 0 0 0 0 0 0 0 0 0 0 0 0 0 0 0 0 0 0 0 0 0 0 0 0
0 0 0 0 0 0 0 0 1 1 1 1 1 1 0 0 0 0 0 0 0 0 0 0 0 0 0 0 0 0 0 0 0 0 0 0 0 0 0 0 0 0 0
0 0 0 0 0 0 0 0 0 0 0 2 1 0 1 0 0 1 0 0 0 0 0 0 0 0 0 0 0 0 0 0 0 0 0 0 0 0 0 0 0 0 0
0 0 0 0 0 0 0 0 0 0 0 0 0 0 0 0 0 0 0 0 0 0 0 0 0 0 0 0 0 0 0 0 0 0 0 0 0 0 0 0 0 0 0
0 0 0 0 0 0 0 0 0 0 0 0 0 0 0 0 0 0 0 0 0 0 0 0 0 0 0 0 0 0 0 0 0 0 0 0 0 0 0 0 0 0 0

GFSMW_con_sbcape_117.txt.gz
CAPE
0 14 12 81 23 0 0 0 0 5 100 344 244 219 313 524 422 613 844 921 799 1100 1184 20 0 638 1123 1393 1711 1634 1555 1011 310 341 344 47 21 50 212 251 262 278 244
1 18 14 0 0 6 0 0 0 21 78 59 130 39 288 302 388 677 714 714 873 1230 1153 781 375 618 627 1179 1429 1451 1420 1130 532 1074 194 76 102 14 120 263 255 191 200
0 0 0 0 0 0 0 0 0 10 44 92 332 116 347 428 476 538 483 587 799 986 1169 819 637 558 318 931 1150 1297 1351 1098 314 209 777 641 429 65 18 59 179 263 214
10 27 8 0 0 0 0 0 0 0 67 186 228 200 217 285 225 186 381 537 725 631 922 936 807 648 684 949 1388 1186 1140 1012 885 498 350 62 47 33 182 45 2 68 216
0 0 16 17 1 2 0 0 0 42 250 275 123 74 111 84 73 126 217 365 383 642 1026 675 826 791 608 822 949 1054 995 1155 622 386 160 47 0 0 0 0 0 0 2
0 0 16 29 4 6 10 0 0 80 108 170 118 102 102 83 153 115 190 211 93 319 441 753 697 667 594 757 879 676 1090 916 1097 603 266 191 60 23 0 0 0 0 0
1 0 0 2 2 0 4 0 0 82 41 226 143 111 63 83 92 72 85 112 57 189 223 428 690 616 614 685 768 653 517 797 852 878 386 0 0 0 0 0 0 3 0
1 6 13 27 28 63 1 79 0 107 10 90 194 156 46 18 8 8 4 8 33 59 77 242 440 577 641 323 676 559 858 516 491 528 664 0 0 0 0 0 0 20 0
0 12 20 55 63 88 92 66 0 20 73 2 112 99 120 102 54 17 0 3 3 0 0 296 383 503 468 595 592 519 688 577 172 529 504 286 12 0 0 26 0 1 52
11 2 8 60 80 94 185 128 48 0 75 54 87 76 135 145 86 54 10 0 0 0 0 170 264 307 346 602 489 522 355 424 250 495 319 468 338 217 234 213 190 14 0
20 9 10 52 79 130 193 210 176 89 80 56 95 120 129 122 39 0 0 6 0 0 0 0 127 115 419 443 327 455 387 312 479 424 249 256 312 375 390 400 397 354 132
12 35 42 77 59 91 147 245 302 197 193 165 120 172 150 144 58 0 0 0 0 0 0 0 23 0 266 217 303 437 686 567 391 310 347 340 373 244 283 357 422 323 223
47 23 41 72 86 74 162 231 422 278 245 280 295 263 174 179 97 0 0 0 0 0 0 15 4 1 163 385 312 276 302 408 431 431 422 357 264 250 121 203 319 220 391
16 5 17 66 134 203 304 342 468 386 304 341 399 310 229 174 162 44 0 0 0 0 0 0 50 101 190 67 81 201 416 375 357 397 459 497 317 195 206 182 242 334 271
68 127 5 58 147 203 314 521 493 343 352 332 402 366 310 215 203 132 117 107 22 0 0 87 35 0 0 0 0 2 130 192 238 292 221 94 54 20 164 237 229 160 112
24 44 101 105 124 156 177 241 175 162 157 250 376 394 280 234 214 225 208 224 97 95 26 69 0 0 0 0 1 0 0 25 238 250 0 0 0 0 0 0 42 84 149
2 5 5 11 2 4 0 0 0 2 52 71 73 161 160 154 198 203 259 172 99 24 0 0 0 0 0 0 0 0 0 3 76 80 0 0 0 0 0 0 0 0 0
5 4 1 4 2 2 1 0 0 0 7 21 29 101 94 95 117 136 162 119 90 70 0 0 0 0 0 0 0 0 0 0 0 0 0 0 0 0 0 0 0 0 0
2 3 2 2 3 1 1 0 1 0 1 47 86 60 70 46 28 35 39 29 74 67 1 1 0 0 0 0 0 0 0 0 0 0 0 0 0 0 0 0 0 0 0
1 1 1 1 1 0 1 69 63 159 104 77 82 79 47 11 4 2 6 1 1 1 0 1 0 0 0 0 0 0 0 0 0 0 0 0 0 0 0 0 0 0 0
0 0 0 0 0 1 1 1 1 2 0 142 58 22 2 5 3 1 2 2 0 0 0 0 0 0 0 0 0 0 0 0 0 0 0 0 0 0 0 0 0 0 0
0 0 0 0 0 0 1 2 0 1 1 1 2 24 17 2 1 1 0 0 0 0 0 0 0 0 0 0 0 0 0 0 0 0 0 0 0 0 0 0 0 0 0
0 0 0 0 0 0 0 0 1 1 1 0 2 1 1 1 3 1 1 0 0 0 0 0 0 0 0 0 0 0 0 0 0 0 0 0 0 0 0 0 0 0 0
0 0 0 0 0 0 0 0 0 0 1 1 2 1 3 5 5 5 2 0 0 0 0 0 0 0 0 0 0 0 0 0 0 0 0 0 0 0 0 0 0 0 0
0 0 0 0 0 0 0 0 0 0 0 0 0 1 1 0 0 1 2 2 0 0 0 0 0 0 0 0 0 0 0 0 0 0 0 0 0 0 0 0 0 0 0
0 0 0 0 0 0 0 0 0 0 0 0 0 0 0 0 0 0 1 0 0 0 0 0 0 0 0 0 0 0 0 0 0 0 0 0 0 0 0 0 0 0 0

GFSMW_con_sbcape_120.txt.gz
CAPE
4 13 19 8 0 0 0 0 0 8 65 79 21 99 228 205 206 356 655 705 787 1155 474 0 250 909 1351 1434 1777 1730 1567 1255 632 803 265 252 204 348 487 449 423 489 478
0 0 15 10 0 0 0 0 0 0 96 145 53 48 94 232 276 543 616 783 594 894 790 349 597 715 932 1305 1454 1489 1310 671 343 1362 171 422 460 254 185 408 464 357 273
0 0 8 10 0 0 0 0 0 0 4 52 52 149 289 346 431 535 559 632 825 850 841 558 481 451 619 1186 1295 1345 1315 880 399 328 1158 866 569 248 230 156 198 324 414
0 16 19 0 0 0 0 0 0 0 0 98 99 210 263 317 240 259 342 494 731 689 912 800 621 715 588 1149 1465 1283 1263 1078 772 506 263 185 293 402 690 253 224 203 241
0 0 8 17 0 0 0 0 0 0 17 112 95 87 89 82 62 101 240 392 409 754 1013 772 772 719 690 771 951 1138 1234 1036 727 533 369 113 52 0 119 104 46 44 146
0 0 15 26 3 0 0 0 0 0 32 69 45 61 97 81 125 87 138 164 195 411 633 792 774 728 593 828 872 748 1006 1044 1078 668 456 411 282 210 0 0 2 2 132
0 0 0 14 6 0 0 0 0 0 25 64 54 48 70 63 133 98 103 95 78 265 359 564 692 657 618 708 867 745 593 788 963 848 353 112 152 57 0 0 37 287 209
0 0 0 0 0 0 0 0 0 0 53 49 61 67 54 77 75 58 64 88 92 72 161 282 549 663 696 534 675 629 731 631 720 607 753 201 38 0 0 16 297 573 110
4 9 0 0 1 0 27 31 0 0 24 39 85 76 43 46 39 3 4 26 26 16 71 138 459 534 630 709 565 566 581 623 463 378 586 664 40 0 58 131 51 594 569
0 22 19 0 2 42 42 39 0 9 40 16 55 93 103 91 80 32 22 0 0 10 37 102 331 360 489 626 605 675 604 513 345 535 566 667 487 431 322 393 358 161 230
17 33 30 24 22 66 83 60 31 10 24 39 27 63 66 87 92 82 58 0 0 0 0 14 70 149 266 611 679 667 600 437 585 532 599 427 347 494 559 612 631 552 205
21 44 53 60 60 94 110 154 109 69 53 52 54 62 0 84 93 2 1 0 0 0 0 0 0 63 90 476 379 635 957 566 511 440 482 612 329 460 604 471 734 449 497
43 50 55 73 92 129 170 205 209 179 113 92 85 114 114 115 119 23 0 0 0 0 0 0 0 44 54 300 191 290 523 577 697 539 537 518 538 809 405 261 575 342 785
37 17 59 75 94 122 128 200 243 299 215 214 202 202 205 207 179 83 28 0 0 0 0 0 30 0 25 280 263 281 523 641 688 605 661 769 730 696 651 471 788 546 516
93 24 33 52 82 127 113 163 221 402 285 271 299 285 256 263 233 177 95 61 0 0 0 0 51 56 11 0 0 8 183 161 261 415 473 248 198 42 215 696 663 419 344
23 182 94 155 148 174 172 298 423 413 378 242 328 316 210 249 274 221 173 148 151 14 0 122 67 0 0 0 1 1 5 104 236 388 179 0 0 0 0 0 11 232 387
5 38 74 37 57 5 19 34 17 73 79 79 101 211 196 176 144 179 168 188 160 52 105 4 0 0 0 0 0 0 0 3 92 196 24 0 0 0 0 0 0 0 0
4 4 4 3 11 3 0 0 0 6 27 37 49 60 52 114 55 87 131 126 130 15 5 0 0 0 0 0 0 0 0 1 1 35 0 0 0 0 0 0 0 0 0
4 2 2 2 2 1 1 8 0 0 0 11 29 50 37 10 36 36 33 43 86 66 20 0 1 0 0 0 0 0 0 0 0 0 0 0 0 0 0 0 0 0 0
2 1 1 2 2 1 1 25 55 33 32 32 19 21 55 40 39 1 0 1 1 1 1 1 0 1 0 0 0 0 0 0 0 0 0 0 0 0 0 0 0 0 0
0 0 0 1 1 1 1 13 2 1 1 0 45 37 50 29 4 1 1 1 1 0 1 0 1 0 0 0 0 1 0 0 0 0 0 0 0 0 0 0 0 0 0
0 0 0 0 0 0 1 1 1 2 2 0 12 12 5 2 1 1 0 1 3 1 1 0 0 0 0 0 0 0 0 0 0 0 0 0 0 0 0 0 0 0 0
0 0 0 0 0 0 0 0 2 1 1 1 1 1 0 1 1 1 1 1 1 0 0 0 0 0 0 0 0 0 0 0 0 0 0 0 0 0 0 0 0 0 0
0 0 0 0 0 0 0 0 2 1 0 1 1 1 3 1 1 1 1 1 1 9 5 0 0 0 0 0 0 0 0 0 0 0 0 0 0 0 0 0 0 0 0
0 0 0 0 0 0 0 0 0 0 0 0 1 1 6 2 4 4 5 4 4 6 0 3 0 0 0 0 0 0 0 0 0 0 0 0 0 0 0 0 0 0 0
0 0 0 0 0 0 0 0 0 0 0 0 0 0 0 0 0 1 2 2 1 7 0 0 0 0 0 0 0 0 0 0 0 0 0 0 0 0 0 0 0 0 0